[[{"header":{"parameterUnit":"m.s-1","parameterCategory":1,"la1":30.6,"la2":29.2853,"lo1":-89.7004,"lo2":-87.6739,"dy":0.0162,"dx":0.0183,"nx":112,"ny":82,"refTime":"2023-06-27T06:00:00:Z","depth":0,"parameterNumber":2,"parameterNumberName":"U-component_of_WINDS"},"data":[0.0,0.0,0.0,0.0,0.0,0.0,0.0,0.0,0.0,0.0,0.0,0.0,0.0,0.0,0.0,0.0,0.0,0.0,0.0,0.0,0.0,0.0,0.0,0.0,0.0,0.0,0.0,0.0,0.0,0.0,0.0,0.0,0.0,0.0,0.0,0.0,0.0,0.0,0.0,0.0,0.0,0.0,0.0,0.0,0.0,0.0,0.0,0.0,0.0,0.0,0.0,0.0,0.0,0.0,0.0,0.0,0.0,0.0,0.0,0.0,0.0,0.0,0.0,0.0,0.0,0.0,0.0,0.0,0.0,0.0,0.0,0.0,0.0,0.0,0.0,0.0,0.0,0.0,0.0,0.0,0.0,0.0,0.0,0.0,0.0,0.0,0.0,0.0,0.0,0.0,0.0,-1.6413,-1.8802,-2.0348,-2.042,-1.9893,-1.8671,-1.6612,0.0,0.0,0.0,0.0,0.0,0.0,0.0,0.0,0.0,0.0,0.0,0.0,0.0,0.0,0.0,0.0,0.0,0.0,0.0,0.0,0.0,0.0,0.0,0.0,0.0,0.0,0.0,0.0,0.0,0.0,0.0,0.0,0.0,0.0,0.0,0.0,0.0,0.0,0.0,0.0,0.0,0.0,0.0,0.0,0.0,0.0,0.0,0.0,0.0,0.0,0.0,0.0,0.0,0.0,0.0,0.0,0.0,0.0,0.0,0.0,0.0,0.0,0.0,0.0,0.0,0.0,0.0,0.0,0.0,0.0,0.0,0.0,0.0,0.0,0.0,0.0,0.0,0.0,0.0,0.0,0.0,0.0,0.0,0.0,0.0,0.0,0.0,0.0,0.0,0.0,0.0,0.0,0.0,0.0,0.0,0.0,0.0,0.0,0.0,0.0,0.0,0.0,0.0,0.0,-1.6023,-1.7885,-1.9147,-2.0017,-2.0389,-1.9292,-1.8123,-1.6946,0.0,0.0,0.0,0.0,0.0,0.0,0.0,0.0,0.0,0.0,0.0,0.0,0.0,0.0,0.0,0.0,0.0,0.0,0.0,0.0,0.0,0.0,0.0,0.0,0.0,0.0,0.0,0.0,0.0,0.0,0.0,0.0,0.0,0.0,0.0,0.0,0.0,0.0,0.0,0.0,0.0,0.0,0.0,0.0,0.0,0.0,0.0,0.0,0.0,0.0,0.0,0.0,0.0,0.0,0.0,0.0,0.0,0.0,0.0,0.0,0.0,0.0,0.0,0.0,0.0,0.0,0.0,0.0,0.0,0.0,0.0,0.0,0.0,0.0,0.0,0.0,0.0,0.0,0.0,0.0,0.0,0.0,0.0,0.0,0.0,0.0,0.0,0.0,0.0,0.0,0.0,0.0,0.0,0.0,0.0,0.0,0.0,0.0,0.0,0.0,0.0,0.0,0.0,-1.5684,-1.6595,-1.8216,-1.8754,-1.9199,-1.9655,-1.8433,-1.7274,-1.6363,-1.568,0.0,0.0,0.0,0.0,0.0,0.0,0.0,0.0,0.0,0.0,0.0,0.0,0.0,0.0,0.0,0.0,0.0,0.0,0.0,0.0,0.0,0.0,0.0,0.0,0.0,0.0,0.0,0.0,0.0,0.0,0.0,0.0,0.0,0.0,0.0,0.0,0.0,0.0,0.0,0.0,0.0,0.0,0.0,0.0,0.0,0.0,0.0,0.0,0.0,0.0,0.0,0.0,0.0,0.0,0.0,0.0,0.0,0.0,0.0,0.0,0.0,0.0,0.0,0.0,0.0,0.0,0.0,0.0,0.0,0.0,0.0,0.0,0.0,0.0,0.0,0.0,0.0,0.0,0.0,0.0,0.0,0.0,0.0,0.0,0.0,0.0,0.0,0.0,0.0,0.0,0.0,0.0,0.0,0.0,0.0,0.0,0.0,0.0,0.0,0.0,0.0,0.0,-1.6218,-1.6694,-1.7926,-1.8164,-1.8371,-1.8723,-1.7409,-1.6312,-1.5732,-1.4945,0.0,0.0,0.0,0.0,0.0,0.0,0.0,0.0,0.0,0.0,0.0,0.0,0.0,0.0,0.0,0.0,0.0,0.0,0.0,0.0,0.0,0.0,0.0,0.0,0.0,0.0,0.0,0.0,0.0,0.0,0.0,0.0,0.0,0.0,0.0,0.0,0.0,0.0,0.0,0.0,0.0,0.0,0.0,0.0,0.0,0.0,0.0,0.0,0.0,0.0,0.0,0.0,0.0,0.0,0.0,0.0,0.0,0.0,0.0,0.0,0.0,0.0,0.0,0.0,0.0,0.0,0.0,0.0,0.0,0.0,0.0,0.0,0.0,0.0,0.0,0.0,0.0,0.0,0.0,0.0,0.0,0.0,0.0,0.0,0.0,0.0,0.0,0.0,0.0,0.0,0.0,0.0,0.0,0.0,0.0,0.0,0.0,0.0,0.0,0.0,0.0,0.0,-1.5742,-1.6094,-1.6977,-1.7461,-1.7792,-1.7823,-1.6177,-1.5297,-1.567,-1.4045,0.0,0.0,0.0,0.0,0.0,0.0,0.0,0.0,0.0,0.0,0.0,0.0,0.0,0.0,0.0,0.0,0.0,0.0,0.0,0.0,0.0,0.0,0.0,0.0,0.0,0.0,0.0,0.0,0.0,0.0,0.0,0.0,0.0,0.0,0.0,0.0,0.0,0.0,0.0,0.0,0.0,0.0,0.0,0.0,0.0,0.0,0.0,0.0,0.0,0.0,0.0,0.0,0.0,0.0,0.0,0.0,0.0,0.0,0.0,0.0,0.0,0.0,0.0,0.0,0.0,0.0,0.0,0.0,0.0,0.0,0.0,0.0,0.0,0.0,0.0,0.0,0.0,0.0,0.0,0.0,0.0,0.0,0.0,0.0,0.0,0.0,0.0,0.0,0.0,0.0,0.0,0.0,0.0,0.0,0.0,0.0,0.0,0.0,0.0,0.0,0.0,0.0,-1.5939,-1.6353,0.0,-1.6953,-1.6995,-1.7214,-1.5887,-1.507,-1.5245,0.0,0.0,0.0,0.0,0.0,0.0,0.0,0.0,0.0,0.0,0.0,0.0,0.0,0.0,0.0,0.0,0.0,0.0,0.0,0.0,0.0,0.0,0.0,0.0,0.0,0.0,0.0,0.0,0.0,0.0,0.0,0.0,0.0,0.0,0.0,0.0,0.0,0.0,0.0,0.0,0.0,0.0,0.0,0.0,0.0,0.0,0.0,0.0,0.0,0.0,0.0,0.0,0.0,0.0,0.0,0.0,0.0,0.0,0.0,0.0,0.0,0.0,0.0,0.0,0.0,0.0,0.0,0.0,0.0,0.0,0.0,0.0,0.0,0.0,0.0,0.0,0.0,0.0,0.0,0.0,0.0,0.0,0.0,0.0,0.0,0.0,0.0,0.0,0.0,0.0,0.0,0.0,0.0,0.0,0.0,0.0,0.0,0.0,0.0,0.0,0.0,0.0,-1.5378,-1.5687,-1.6054,0.0,-1.6434,-1.644,-1.6681,-1.5378,-1.4749,-1.5183,0.0,0.0,0.0,0.0,0.0,0.0,0.0,0.0,0.0,0.0,0.0,0.0,0.0,0.0,0.0,0.0,0.0,0.0,0.0,0.0,0.0,0.0,0.0,0.0,0.0,0.0,0.0,0.0,0.0,0.0,0.0,0.0,0.0,0.0,0.0,0.0,0.0,0.0,0.0,0.0,0.0,0.0,0.0,0.0,0.0,0.0,0.0,0.0,0.0,0.0,0.0,0.0,0.0,0.0,0.0,0.0,0.0,0.0,0.0,0.0,0.0,0.0,0.0,0.0,0.0,0.0,0.0,0.0,0.0,0.0,0.0,0.0,0.0,0.0,0.0,0.0,0.0,0.0,0.0,0.0,0.0,0.0,0.0,0.0,0.0,0.0,0.0,0.0,0.0,0.0,0.0,0.0,0.0,0.0,0.0,0.0,0.0,0.0,0.0,0.0,0.0,0.0,-1.4665,-1.4672,-1.4962,-1.5823,-1.6009,-1.6114,-1.6104,-1.4563,-1.421,0.0,0.0,0.0,0.0,0.0,0.0,0.0,0.0,0.0,0.0,0.0,0.0,0.0,0.0,0.0,0.0,0.0,0.0,0.0,0.0,0.0,0.0,0.0,0.0,0.0,0.0,0.0,0.0,0.0,0.0,0.0,0.0,0.0,0.0,0.0,0.0,0.0,0.0,0.0,0.0,0.0,0.0,0.0,0.0,0.0,0.0,0.0,0.0,0.0,0.0,0.0,0.0,0.0,0.0,0.0,0.0,0.0,0.0,0.0,0.0,0.0,0.0,0.0,0.0,0.0,0.0,0.0,0.0,0.0,0.0,0.0,0.0,0.0,0.0,0.0,0.0,0.0,0.0,0.0,0.0,0.0,0.0,0.0,0.0,0.0,0.0,0.0,0.0,0.0,0.0,0.0,0.0,0.0,0.0,0.0,0.0,0.0,0.0,0.0,0.0,0.0,0.0,0.0,-1.4982,-1.5093,-1.5315,-1.5853,-1.5972,-1.583,-1.5563,-1.4573,-1.4205,-1.4877,0.0,0.0,0.0,0.0,0.0,0.0,0.0,0.0,0.0,0.0,0.0,0.0,0.0,0.0,0.0,0.0,0.0,0.0,0.0,0.0,0.0,0.0,0.0,0.0,0.0,0.0,0.0,0.0,0.0,0.0,0.0,0.0,0.0,0.0,0.0,0.0,0.0,0.0,0.0,0.0,0.0,0.0,0.0,0.0,0.0,0.0,0.0,0.0,0.0,0.0,0.0,0.0,0.0,0.0,0.0,0.0,0.0,0.0,0.0,0.0,0.0,0.0,0.0,0.0,0.0,0.0,0.0,0.0,0.0,0.0,0.0,0.0,0.0,0.0,0.0,0.0,0.0,0.0,0.0,0.0,0.0,0.0,0.0,0.0,0.0,0.0,0.0,0.0,0.0,0.0,0.0,0.0,0.0,0.0,0.0,0.0,0.0,0.0,0.0,0.0,0.0,0.0,-1.4612,-1.4794,-1.5034,-1.5661,-1.5798,-1.5666,-1.5215,-1.4629,-1.4378,-1.4588,0.0,0.0,0.0,0.0,0.0,0.0,0.0,0.0,0.0,0.0,0.0,0.0,0.0,0.0,0.0,0.0,0.0,0.0,0.0,0.0,0.0,0.0,0.0,0.0,0.0,0.0,0.0,0.0,0.0,0.0,0.0,0.0,0.0,0.0,0.0,0.0,0.0,0.0,0.0,0.0,0.0,0.0,0.0,0.0,0.0,0.0,0.0,0.0,0.0,0.0,0.0,0.0,0.0,0.0,0.0,0.0,0.0,0.0,0.0,0.0,0.0,0.0,0.0,0.0,0.0,0.0,0.0,0.0,0.0,0.0,0.0,0.0,0.0,0.0,0.0,0.0,0.0,0.0,0.0,0.0,0.0,0.0,0.0,0.0,0.0,0.0,0.0,0.0,0.0,0.0,0.0,0.0,0.0,0.0,0.0,0.0,0.0,0.0,0.0,0.0,0.0,0.0,-1.4101,-1.4124,-1.4502,-1.5322,-1.5546,-1.5494,-1.4992,-1.471,-1.4556,-1.4503,0.0,0.0,0.0,0.0,0.0,0.0,0.0,0.0,0.0,0.0,0.0,0.0,0.0,0.0,0.0,0.0,0.0,0.0,0.0,0.0,0.0,0.0,0.0,0.0,0.0,0.0,0.0,0.0,0.0,0.0,0.0,0.0,0.0,0.0,0.0,0.0,0.0,0.0,0.0,0.0,0.0,0.0,0.0,0.0,0.0,0.0,0.0,0.0,0.0,0.0,0.0,0.0,0.0,0.0,0.0,0.0,0.0,0.0,0.0,0.0,-2.8489,0.0,0.0,0.0,0.0,0.0,0.0,0.0,0.0,0.0,0.0,0.0,0.0,0.0,0.0,0.0,0.0,0.0,0.0,0.0,0.0,0.0,0.0,0.0,0.0,0.0,0.0,0.0,0.0,0.0,0.0,0.0,0.0,0.0,0.0,0.0,0.0,0.0,0.0,0.0,0.0,0.0,-1.4936,-1.4856,-1.4844,-1.5352,-1.542,-1.5302,-1.488,-1.4547,-1.4131,-1.3629,-1.3313,0.0,0.0,0.0,0.0,0.0,0.0,0.0,0.0,0.0,0.0,0.0,0.0,0.0,0.0,0.0,0.0,0.0,0.0,0.0,0.0,0.0,0.0,0.0,0.0,0.0,0.0,0.0,0.0,0.0,0.0,0.0,0.0,0.0,0.0,0.0,0.0,0.0,0.0,0.0,0.0,0.0,0.0,0.0,0.0,0.0,0.0,0.0,0.0,0.0,0.0,0.0,0.0,0.0,0.0,0.0,0.0,0.0,0.0,0.0,0.0,-2.9394,0.0,0.0,0.0,0.0,0.0,0.0,0.0,0.0,0.0,0.0,0.0,0.0,0.0,0.0,0.0,0.0,0.0,0.0,0.0,0.0,0.0,0.0,0.0,0.0,0.0,0.0,0.0,0.0,0.0,0.0,0.0,0.0,0.0,0.0,0.0,0.0,0.0,0.0,0.0,0.0,-1.4387,-1.4697,-1.4941,-1.5371,-1.541,-1.5244,-1.4814,-1.4635,-1.4301,-1.3711,-1.3334,0.0,0.0,0.0,0.0,0.0,0.0,0.0,0.0,0.0,0.0,0.0,0.0,0.0,0.0,0.0,0.0,0.0,0.0,0.0,0.0,0.0,0.0,0.0,0.0,0.0,0.0,0.0,0.0,0.0,0.0,0.0,0.0,0.0,0.0,0.0,0.0,0.0,0.0,0.0,0.0,0.0,0.0,0.0,0.0,0.0,0.0,0.0,0.0,0.0,0.0,0.0,0.0,0.0,-3.7085,-3.7152,-3.7461,-3.6901,-3.5957,-3.4754,-3.3693,-3.1854,-2.9658,-2.9368,0.0,0.0,0.0,0.0,0.0,0.0,0.0,0.0,0.0,0.0,0.0,0.0,0.0,0.0,0.0,0.0,0.0,0.0,0.0,0.0,0.0,0.0,0.0,0.0,-1.8735,-1.7585,0.0,0.0,0.0,0.0,0.0,0.0,0.0,0.0,0.0,0.0,0.0,0.0,-1.3837,-1.4597,-1.5225,-1.5498,-1.5527,-1.5352,-1.4932,-1.4712,-1.4407,-1.3933,-1.3341,-1.2703,0.0,0.0,0.0,0.0,0.0,0.0,0.0,0.0,0.0,0.0,0.0,0.0,0.0,0.0,0.0,0.0,0.0,0.0,0.0,0.0,0.0,0.0,0.0,0.0,0.0,0.0,0.0,0.0,0.0,0.0,0.0,0.0,-2.7321,-2.7466,0.0,0.0,0.0,0.0,0.0,0.0,0.0,0.0,0.0,0.0,0.0,0.0,0.0,-3.6552,-3.7313,-3.8751,-3.9546,-3.9665,-4.0881,-4.0869,-3.9743,-3.9688,-3.889,-3.752,-3.6732,0.0,-3.0662,-2.8794,0.0,0.0,0.0,0.0,0.0,0.0,0.0,0.0,0.0,0.0,0.0,0.0,0.0,0.0,0.0,0.0,0.0,0.0,0.0,0.0,0.0,0.0,-2.0551,-1.9006,-1.868,-1.8359,0.0,-1.6515,-1.6467,-1.6347,0.0,0.0,0.0,0.0,0.0,0.0,0.0,0.0,-1.5156,-1.5914,-1.6348,-1.6016,-1.6037,-1.5801,-1.5371,-1.4468,-1.3723,-1.3156,-1.2206,-1.1423,-1.0865,-1.0872,0.0,0.0,0.0,0.0,0.0,0.0,0.0,0.0,0.0,0.0,0.0,0.0,0.0,0.0,0.0,0.0,0.0,0.0,0.0,0.0,0.0,0.0,0.0,0.0,0.0,0.0,0.0,0.0,0.0,-2.9634,-2.9972,-2.8696,-3.0938,-3.2265,0.0,0.0,0.0,0.0,0.0,0.0,0.0,0.0,0.0,-3.7594,-3.9511,-4.0663,-4.1001,-4.2066,-4.3031,-4.3842,-4.3726,-4.3322,-4.2713,-4.1938,-4.1039,-3.9971,-3.8673,-3.6917,-3.4698,-3.1751,-3.0183,-2.9456,0.0,0.0,0.0,0.0,-2.7465,-2.7239,-2.6266,-2.5665,0.0,0.0,0.0,0.0,0.0,0.0,0.0,0.0,0.0,0.0,0.0,0.0,0.0,-1.9846,-1.9451,-1.9392,-1.8978,-1.8498,-1.7728,0.0,-1.6087,-1.5937,-1.5817,0.0,0.0,0.0,0.0,0.0,-1.4066,-1.4862,-1.5423,-1.5242,-1.5015,-1.4816,-1.4635,-1.4016,-1.3558,-1.3322,-1.2323,-1.1579,-1.1172,-1.0815,-1.0565,0.0,0.0,0.0,0.0,0.0,0.0,0.0,0.0,0.0,0.0,0.0,0.0,0.0,0.0,0.0,0.0,0.0,0.0,0.0,0.0,0.0,0.0,0.0,0.0,0.0,0.0,0.0,0.0,-3.115,-3.2059,-2.9782,-3.2731,-3.4283,0.0,0.0,0.0,0.0,0.0,0.0,-3.7005,-3.9086,-4.0459,-4.1018,-4.3318,-4.457,-4.457,-4.5145,-4.5991,-4.7073,-4.5807,-4.5187,-4.4933,-4.3751,-4.262,-4.154,-4.013,-3.9063,-3.7962,-3.4346,-3.2285,-3.1165,-3.0082,-2.9633,-2.9625,-2.9295,-2.9045,-2.8722,-2.7892,-2.744,-2.6985,-2.5646,0.0,-2.423,-2.3142,0.0,0.0,0.0,0.0,-2.273,-2.2325,-2.2248,-2.1983,-2.099,-2.0462,-2.0312,-2.0518,-1.998,-1.8936,0.0,-1.6894,-1.6894,-1.6894,0.0,0.0,0.0,0.0,-1.3469,-1.3381,-1.423,-1.4756,-1.4662,-1.4379,-1.4115,-1.4021,-1.354,-1.326,-1.326,-1.2322,-1.1628,-1.1349,-1.079,-1.0346,-1.0104,0.0,0.0,0.0,0.0,0.0,0.0,0.0,0.0,0.0,0.0,0.0,0.0,0.0,0.0,0.0,0.0,0.0,0.0,0.0,0.0,0.0,0.0,0.0,0.0,0.0,0.0,0.0,0.0,0.0,-2.9782,-3.4128,0.0,0.0,0.0,0.0,-3.683,-3.7386,-3.8681,-4.0985,-4.2424,-4.4236,-4.6537,-4.7302,-4.7699,-4.7699,-4.7733,-4.7784,-4.7868,-4.7074,-4.6339,-4.5694,-4.4979,-4.3529,-4.1586,-4.1296,-4.0344,-3.8645,-3.4991,-3.341,-3.3155,-3.1053,-3.0639,-3.1056,-3.0162,-2.9826,-2.9638,-2.8091,-2.7287,-2.6752,-2.6485,-2.5988,-2.541,-2.4858,-2.4618,0.0,0.0,-2.345,-2.303,-2.2728,-2.2182,-2.1752,-2.2117,-2.162,-2.1064,-2.0654,-2.0205,-1.9727,0.0,-1.8164,-1.7344,-1.7344,0.0,-1.4852,-1.487,-1.4937,-1.4875,-1.4461,-1.5112,-1.5487,-1.5138,-1.4754,-1.4396,-1.4047,-1.3099,-1.2573,-1.2573,-1.1662,-1.099,-1.0659,-1.0287,-1.0119,-1.0104,-1.0119,0.0,0.0,0.0,0.0,0.0,0.0,0.0,0.0,0.0,0.0,0.0,0.0,0.0,0.0,0.0,0.0,0.0,0.0,0.0,0.0,0.0,0.0,0.0,0.0,0.0,0.0,0.0,0.0,-3.6094,-3.9491,0.0,-3.9336,-3.9448,-3.9922,-4.0656,-4.1647,-4.2963,-4.4761,-4.665,-4.8088,-4.8961,-5.0101,-5.0744,-5.0744,-4.9796,-4.956,-5.0033,-4.8308,-4.7111,-4.6423,-4.5212,-4.4062,-4.2817,-4.1797,-4.0995,-4.0314,-3.7835,-3.631,-3.5265,-3.3617,-3.3093,-3.3089,-3.233,-3.1579,-3.0754,-2.983,-2.8942,-2.7939,-2.688,-2.6063,-2.5498,-2.4971,-2.5059,-2.536,-2.5523,-2.5555,-2.5407,-2.4402,-2.3674,-2.2915,-2.1809,-2.1164,-2.084,-2.0967,-2.0879,-2.0713,-2.0566,-1.9268,-1.8281,-1.8555,-1.7101,-1.5891,-1.5891,-1.5486,-1.501,-1.4326,-1.4665,-1.4775,-1.4103,-1.3785,-1.3437,-1.3096,-1.2489,-1.1984,-1.1616,-1.1316,-1.0836,-1.0294,-1.0163,-1.0002,-0.979,-0.979,-0.9995,0.0,0.0,0.0,0.0,0.0,0.0,0.0,0.0,0.0,0.0,0.0,0.0,0.0,0.0,0.0,0.0,0.0,0.0,0.0,0.0,0.0,0.0,0.0,0.0,0.0,0.0,-4.0319,-4.0802,-4.3785,-4.5216,-4.3699,-4.358,-4.3869,-4.4568,-4.5592,-4.6777,-4.8206,-4.9915,-5.0963,-5.1234,-5.2198,-5.2469,-5.1944,-5.0963,-5.0473,-5.0456,-4.8497,-4.7288,-4.6726,-4.5294,-4.4148,-4.3202,-4.2149,-4.1434,-4.0802,-3.9622,-3.8467,-3.7345,-3.5998,-3.5394,-3.5175,-3.4565,-3.3754,-3.2834,-3.1585,-3.0177,-2.875,-2.7657,-2.6904,-2.6377,-2.6038,-2.6176,-2.6527,-2.6904,-2.6984,-2.6699,-2.5904,-2.4848,-2.3745,-2.2362,-2.156,-2.1094,-2.1396,-2.1338,-2.1318,-2.1611,-2.0381,-1.9336,-1.9473,-1.7963,-1.6784,-1.7001,-1.6094,-1.5213,-1.4568,-1.4751,-1.4609,-1.3637,-1.3405,-1.314,-1.2548,-1.2321,-1.1875,-1.1121,-1.1077,-1.0785,-1.0126,-1.0104,-1.0002,-0.9782,-0.9885,-0.9995,-1.0087,0.0,0.0,0.0,0.0,0.0,0.0,0.0,0.0,0.0,0.0,0.0,0.0,0.0,0.0,0.0,0.0,0.0,0.0,0.0,0.0,0.0,0.0,0.0,-3.6387,-4.0405,-4.337,-4.3456,-4.6717,-4.8424,-4.6958,-4.7382,-4.7952,-4.8497,-4.9129,-5.0,-5.1251,-5.1961,-5.2689,-5.3484,-5.3501,-5.279,-5.1302,-5.1234,-5.049,-4.9069,-4.7522,-4.6811,-4.6742,-4.5274,-4.3879,-4.2663,-4.2633,-4.1633,-4.0071,-4.0026,-3.9783,-3.929,-3.7958,-3.7419,-3.733,-3.6499,-3.6179,-3.5692,-3.317,-3.0811,-2.895,-2.895,-2.8599,-2.816,-2.816,-2.816,-2.816,-2.816,-2.7446,-2.6769,-2.6995,-2.5663,-2.4198,-2.3888,-2.2835,-2.1885,-2.1885,-2.1553,-2.1504,-2.2334,-2.1455,-2.0449,-2.0029,-1.8654,-1.7733,-1.8184,-1.6821,0.0,-1.5323,-1.5555,-1.5117,-1.3652,-1.3838,-1.3699,-1.263,-1.2541,-1.2116,-1.1121,-1.107,-1.0785,-1.0126,-1.0104,-1.0104,-1.0104,-1.0433,-1.0335,-0.9763,0.0,0.0,0.0,0.0,0.0,0.0,0.0,0.0,0.0,0.0,0.0,0.0,0.0,0.0,0.0,0.0,0.0,0.0,0.0,0.0,0.0,0.0,-4.0198,-4.0388,-4.344,-4.6475,-4.8665,-5.1304,-5.2502,-5.1399,-5.2375,-5.2819,-5.2269,-5.2819,-5.3297,-5.3636,-5.3348,-5.3281,-5.3501,-5.3501,-5.3298,-5.2875,-5.1775,-5.1014,-5.0591,-4.7998,-4.6811,-4.6742,-4.5274,-4.4387,-4.3987,-4.3017,-4.2241,-4.158,-4.0477,-3.9854,-3.9535,-3.8537,-3.7823,-3.733,-3.6634,-3.5297,-3.355,-3.2015,-3.0729,-2.977,-2.963,-2.9453,-2.9327,-2.9327,-2.9327,-2.9327,-2.9327,-2.8984,-2.8431,-2.779,-2.6405,-2.4925,-2.4043,-2.2835,-2.1885,-2.1885,-2.1787,-2.1777,-2.2012,-2.1514,-2.1016,-2.0889,-1.9918,-1.9101,-1.86,-1.8109,0.0,-1.5783,-1.5664,-1.5215,-1.397,-1.3978,-1.3695,-1.2921,-1.2877,-1.2255,-1.0814,-1.0946,-1.0785,-1.0126,-1.0104,-1.0104,-1.0104,-1.0538,-1.0718,0.0,0.0,0.0,0.0,0.0,0.0,0.0,0.0,0.0,0.0,0.0,0.0,0.0,0.0,0.0,0.0,0.0,0.0,0.0,0.0,0.0,0.0,-4.1561,-4.3975,-4.5579,-4.7355,-4.939,-5.1787,-5.3449,-5.4132,-5.3604,-5.4473,-5.4734,-5.3768,-5.4347,-5.4499,-5.4143,-5.3788,-5.3551,-5.3501,-5.3551,-5.3382,-5.301,-5.1749,-5.086,-5.024,-4.7863,-4.6612,-4.6324,-4.5142,-4.4433,0.0,-4.3063,-4.2287,-4.1629,-4.0507,-3.9854,0.0,0.0,0.0,0.0,0.0,-3.5165,-3.282,-3.2177,-3.1132,-3.0075,-2.9934,-2.9869,-2.9792,-2.9792,-2.9792,-2.9792,-2.9792,-2.9702,-2.9431,-2.8688,-2.7232,-2.5665,-2.4734,-2.3288,-2.2148,-2.2148,-2.2148,-2.2197,-2.2373,-2.207,0.0,-2.1533,-2.0625,-1.9805,-1.9492,-1.9141,-1.8438,-1.7124,-1.6687,-1.5927,-1.4695,-1.4364,-1.3863,-1.2855,-1.2928,0.0,0.0,0.0,-1.1048,-1.0528,-1.0514,0.0,0.0,0.0,-1.0826,-1.0696,0.0,0.0,0.0,-1.0074,-1.0167,0.0,0.0,0.0,0.0,0.0,0.0,0.0,0.0,0.0,0.0,0.0,0.0,0.0,0.0,0.0,0.0,-4.4837,-4.7217,-5.0856,-5.1442,-5.1994,-5.3356,-5.404,-5.436,-5.4295,-5.4935,-5.4923,-5.4023,-5.4567,-5.45,-5.367,0.0,0.0,0.0,0.0,-5.3262,-5.2435,-5.1528,-5.0438,-4.911,-4.7461,-4.637,-4.5697,-4.4933,-4.4249,-4.3648,-4.3002,-4.2107,-4.1058,-4.039,-3.9843,-3.9409,-3.9334,-3.926,-3.9035,-3.7694,-3.5343,-3.289,-3.282,0.0,0.0,-3.0075,-3.0011,-2.9869,-2.9792,-2.9792,-2.9792,-2.9792,-2.9792,-2.9702,-2.9509,-2.7947,-2.636,-2.575,-2.4033,-2.2578,-2.2578,-2.2578,-2.2695,-2.3066,-2.2803,-2.2393,-2.2021,-2.0908,-2.0156,-2.0449,-1.9844,-1.9178,-1.8815,-1.8036,-1.7,-1.5659,0.0,0.0,-1.2877,-1.2932,-1.2475,-1.1209,-1.1431,-1.1439,-1.1085,-1.1114,-1.1114,-1.1077,-1.1114,-1.0863,-1.0291,-1.0233,-1.0217,-1.0282,-1.045,-1.0354,0.0,0.0,0.0,0.0,0.0,0.0,0.0,0.0,0.0,0.0,0.0,0.0,0.0,0.0,0.0,-4.4544,-4.732,-5.0011,-5.2597,-5.3477,-5.396,-5.4253,-5.4879,-5.5197,-5.4969,-5.6116,-5.6456,-5.5397,-5.5482,-5.5158,-5.4414,-5.389,-5.3501,-5.3501,-5.3501,-5.3416,-5.3264,-5.1898,-5.0776,-4.9823,0.0,0.0,-4.5697,-4.4933,-4.451,-4.4341,-4.3679,-4.2781,-4.1741,-4.1088,-4.0266,-3.9364,-3.8796,-3.8257,-3.762,-3.6237,-3.462,-3.3003,-3.229,-3.1381,-3.0546,-3.0228,-3.0075,-3.0011,-2.9869,-2.9792,0.0,-2.9792,-2.9792,-2.9702,-2.9509,-2.7947,-2.6449,-2.6091,-2.4418,-2.3018,-2.3018,-2.3018,-2.3047,-2.3125,-2.2803,-2.249,-2.2402,-2.1602,-2.0762,-2.0137,-1.9902,-1.9399,-1.8471,-1.7871,-1.7252,-1.6672,-1.5609,-1.479,-1.423,-1.3464,-1.2562,-1.1593,-1.1336,-1.1203,-1.1077,-1.1387,-1.1402,-1.1137,-1.1394,-1.1436,-1.1308,-1.1062,-1.1038,-1.1189,-1.0275,-1.008,0.0,0.0,0.0,0.0,0.0,0.0,0.0,0.0,0.0,0.0,0.0,-3.9662,0.0,0.0,-4.4785,-4.7769,-4.9562,-5.1356,-5.3632,-5.427,-5.4431,-5.4367,-5.4647,-5.4675,-5.4412,-5.5366,-5.5586,-5.4668,-5.4955,-5.4837,-5.4093,-5.3754,-5.3551,-5.3501,-5.3551,-5.3551,-5.3501,-5.1917,-5.0641,-4.9555,-4.7635,-4.6174,-4.5142,-4.4799,-4.4572,-4.4541,-4.3864,-4.3039,-4.2056,-4.0834,-3.9998,-3.9394,-3.9035,-3.8302,-3.7291,-3.6591,-3.5001,-3.3143,-3.2648,-3.175,-3.0622,-3.0381,-3.0152,-3.0088,-2.9869,-2.9792,-2.9792,-2.9792,-2.9792,-2.9792,-2.9611,-2.8371,-2.6976,-2.6461,-2.5062,-2.3647,-2.3222,-2.3135,-2.3135,-2.3135,-2.2969,-2.2754,-2.2549,-2.2158,-2.1582,-2.0703,-2.0381,-2.0013,-1.9497,-1.8648,-1.809,-1.7828,-1.657,-1.5503,-1.4792,-1.337,-1.2314,-1.1831,-1.1641,-1.1487,-1.1387,-1.1787,-1.1889,-1.156,-1.1875,-1.2043,-1.1978,-1.1652,-1.1598,-1.1597,-1.089,-1.0437,0.0,0.0,0.0,0.0,0.0,0.0,0.0,0.0,-3.7975,-3.9805,-4.1291,-4.2788,-4.4626,-4.5667,-4.7328,-5.0562,-5.1235,-5.208,-5.4201,-5.4391,-5.4224,-5.3952,-5.4025,-5.4049,-5.3904,-5.4347,-5.4415,-5.3754,-5.4262,-5.4279,-5.3602,-5.3601,-5.3601,-5.3551,-5.3601,-5.3601,-5.3501,-5.176,-5.027,-4.8988,-4.7282,-4.5822,-4.4572,-4.4572,-4.4572,-4.4526,-4.3651,-4.2916,-4.2099,-4.0383,-3.9553,-3.9424,-3.9424,-3.8676,-3.7599,-3.7446,-3.5689,-3.3396,-3.3255,-3.2136,-3.0698,-3.0444,-3.0292,-3.0075,-2.9869,-2.9792,-2.9792,-2.9792,-2.9792,-2.9792,-2.9792,-2.8803,-2.7557,-2.673,-2.5495,-2.4241,-2.3309,-2.3135,-2.3135,-2.3135,-2.3135,-2.3027,-2.2695,-2.2568,-2.2256,-2.1475,-2.1055,-2.082,-2.082,-1.9896,-1.9245,-1.9245,-1.7667,-1.6026,-1.4681,-1.3119,-1.2197,-1.2131,-1.2131,-1.2014,-1.1758,-1.2248,-1.2401,-1.2073,-1.2387,-1.2458,-1.2323,-1.2119,-1.1943,-1.1854,-1.1525,-1.0889,-2.706,-2.8531,-3.0714,-3.2853,-3.4243,-3.6326,0.0,0.0,-4.2215,-4.462,-4.5751,-4.6361,-4.6517,-4.7711,-4.9214,-5.0821,-5.1666,-5.2649,-5.4287,-5.3942,-5.3387,-5.3071,-5.3717,-5.4285,-5.4601,-5.4754,-5.472,-5.4465,-5.4532,-5.4313,-5.3685,-5.3618,-5.3551,-5.3651,-5.3551,-5.3501,-5.3501,-5.1328,-4.9776,-4.8988,-4.6861,-4.5352,-4.4572,-4.4572,-4.4572,-4.451,-4.2862,-4.2134,-4.1893,-4.0182,-3.9409,-3.9424,-3.9424,-3.8945,-3.8202,-3.7533,-3.5913,-3.3956,-3.3344,-3.2206,-3.0911,-3.052,-3.0368,-3.0292,-2.9934,-2.9792,-2.9792,-2.9792,-2.9792,-2.9792,-2.9792,-2.8803,-2.7557,-2.673,-2.5495,-2.4241,-2.3309,-2.3135,-2.3135,-2.3135,-2.3135,-2.3125,-2.3076,-2.2754,-2.2353,-2.1885,-2.1768,-2.1738,-2.1738,-2.1277,-2.0924,-2.0924,-1.8792,-1.6353,-1.3857,-1.3197,-1.2775,-1.2482,-1.2467,-1.2453,-1.2416,-1.2482,-1.2504,-1.2467,-1.2504,-1.2519,-1.2451,-1.2187,-1.2116,-1.2305,-1.1681,-1.0992,-2.9532,-3.1213,0.0,0.0,-3.6628,-3.9779,-4.2071,-4.3368,-4.4612,-4.6673,-4.768,-4.8358,-4.8737,-4.9288,-5.0028,0.0,-5.1735,-5.2442,-5.308,-5.2908,-5.2268,-5.1192,-5.1302,-5.1828,-5.2617,-5.3109,-5.3297,-5.3264,-5.3704,-5.3822,-5.3635,-5.3568,-5.3501,-5.3618,-5.3501,-5.3501,-5.3501,-5.1681,-5.0139,-4.8988,-4.721,-4.5697,-4.4572,-4.4572,-4.4572,-4.451,-4.3024,-4.2221,-4.1893,-4.0398,-3.964,-3.9424,-3.9424,-3.9245,-3.8874,-3.8172,-3.6373,-3.414,-3.3851,-3.2543,-3.0986,-3.0685,-3.0533,-3.0368,-3.0088,-2.9869,-2.9792,-2.9792,-2.9792,-2.9792,-2.9611,-2.9028,-2.8131,-2.6625,-2.5724,-2.4819,-2.3387,-2.3135,-2.3135,-2.3135,-2.3135,-2.3135,-2.3135,-2.2988,-2.2822,-2.2646,-2.2197,-2.1885,-2.1885,-2.1728,-2.1269,-2.0433,-1.8691,-1.6842,-1.4917,-1.3693,-1.295,-1.2811,-1.2804,-1.2716,-1.2533,-1.2884,-1.3001,-1.2811,-1.2994,-1.3089,-1.3089,-1.2728,-1.2578,-1.2697,-1.2134,-1.1501,-3.1523,0.0,0.0,-3.5813,-3.9365,-4.2926,-4.339,-4.4957,-4.668,-4.8138,-4.8803,-4.9219,-4.9716,-4.9704,-4.9889,-5.0907,-5.139,-5.1821,-5.2459,-5.1821,-5.0814,-4.946,-4.8675,-4.8635,-4.9576,-5.0913,-5.1691,-5.1691,-5.2604,-5.3179,-5.3246,-5.3382,-5.3501,-5.3551,-5.3501,-5.3501,-5.3501,-5.1749,-5.0253,-4.8988,-4.7261,-4.5813,-4.4572,-4.4572,-4.4572,-4.451,-4.3098,-4.2294,-4.1893,-4.047,-3.9711,-3.9424,-3.9424,-3.9424,-3.9262,-3.8418,-3.6561,-3.4438,-3.4066,-3.2603,-3.0986,-3.0773,-3.0636,-3.0599,-3.0381,-3.0161,-3.0018,-3.0018,-2.9905,-2.9702,-2.9509,-2.9275,-2.8633,-2.6871,-2.613,-2.5411,-2.381,-2.3309,-2.3135,-2.3135,-2.3135,-2.3135,-2.3135,-2.3135,-2.3135,-2.3135,-2.2617,-2.2236,-2.2236,-2.2236,-2.1726,-2.0366,-1.894,-1.7581,-1.6197,-1.4478,-1.3411,-1.3411,-1.3243,-1.3038,-1.2804,-1.3243,-1.3389,-1.3148,-1.3375,-1.3492,-1.3492,-1.3119,-1.29,-1.29,-1.2526,-1.2003,0.0,0.0,-3.7564,-3.9782,-4.2586,-4.5234,-4.6872,-4.7906,-4.877,-4.9642,-4.94,-4.8955,-4.8838,-4.8346,-4.8643,-5.0735,-5.0528,-5.0856,-5.3063,-5.0804,-4.8793,-4.8511,-4.6503,-4.5329,0.0,-4.846,-5.0152,-5.0152,-5.1505,-5.2416,-5.2581,-5.3161,-5.3551,-5.3717,-5.3551,-5.3501,-5.3501,-5.1196,-4.9726,-4.8988,-4.668,-4.528,-4.4572,-4.4572,-4.4572,-4.4495,-4.3008,-4.2206,-4.1893,-4.0311,-3.9625,-3.9424,-3.9424,-3.9424,-3.9262,-3.7828,-3.6416,-3.4941,-3.3647,-3.2185,-3.0986,-3.0773,-3.0907,-3.111,-3.0966,-3.0741,-3.0595,-3.0595,-3.0206,-2.9702,-2.9509,-2.9275,-2.8803,-2.7718,-2.6648,-2.5568,-2.4659,-2.3734,-2.3135,-2.3135,-2.3135,-2.3135,-2.3135,-2.3135,-2.3135,-2.3135,-2.3115,-2.3096,-2.3096,-2.3096,-2.2582,-2.1272,-1.9986,-1.8744,-1.7459,-1.5599,-1.4421,-1.4421,-1.3828,-1.3477,-1.347,-1.3484,-1.3492,-1.3477,-1.3492,-1.3492,-1.3492,-1.3119,-1.29,-1.29,-1.2526,-1.2298,-3.501,0.0,-4.118,-4.1884,-4.4727,-4.7466,-4.779,-4.843,-4.8771,-4.8004,-4.7295,-4.6515,-4.5614,-4.5668,-4.6306,-4.7722,-4.9481,-5.072,-5.1114,-5.1097,-4.9901,-4.6687,-4.6439,0.0,0.0,0.0,0.0,-4.9306,-5.0744,-5.1792,-5.2365,-5.3078,-5.3501,-5.3551,-5.3501,-5.328,-5.2694,-5.1371,-4.9886,-4.8169,-4.5955,-4.4803,-4.4572,-4.4572,-4.4572,-4.451,-4.3098,-4.2294,-4.1893,-4.047,-3.9711,-3.9379,-3.8916,-3.8736,-3.8504,-3.6518,-3.556,-3.4924,-3.3586,-3.2439,-3.1496,-3.1042,-3.1073,-3.1137,-3.0688,-3.0354,-3.0068,-3.0068,-2.993,-2.9702,-2.9287,-2.9131,-2.8803,-2.758,-2.6494,-2.5579,-2.4659,-2.3734,-2.3135,-2.3135,-2.3135,-2.3135,-2.3135,-2.3135,-2.3135,-2.3135,-2.3135,-2.3135,-2.3135,-2.3135,-2.2726,-2.1678,-2.019,-1.8888,-1.7744,-1.6095,-1.5109,-1.5109,-1.4699,-1.4457,-1.4457,-1.404,-1.3821,-1.3821,-1.3601,-1.3492,-1.3492,-1.3119,-1.29,-1.29,-1.2526,-1.2003,-3.8482,-4.1724,-4.4336,-4.5052,-4.7295,-4.9112,-4.8463,-4.8301,-4.7844,-4.6144,-4.4609,-4.3297,-4.2511,-4.2123,-4.2771,-4.5374,-4.6855,-4.8232,-4.9973,-4.9629,-4.8472,-4.6508,-4.6071,-4.5363,0.0,0.0,0.0,-4.8122,-5.0084,-5.142,-5.1894,-5.2926,-5.3501,-5.3501,-5.3212,-5.2834,-5.2307,-5.1205,-4.9576,-4.737,-4.5509,-4.4572,-4.4572,-4.4572,-4.4449,-4.4156,-4.299,-4.2157,-4.1559,-4.0379,-3.9711,-3.9379,-3.8931,-3.8601,-3.8162,-3.5969,-3.5096,-3.4864,-3.3213,-3.2283,-3.1667,-3.1094,-3.106,-3.1137,-3.0701,-3.0379,-3.0093,-3.0093,-2.9942,-2.9714,-2.9209,-2.9131,-2.8895,-2.7926,-2.6753,-2.5663,-2.5073,-2.3983,-2.3135,-2.3135,-2.3135,-2.3135,-2.3135,-2.3135,-2.3135,-2.3135,-2.3135,-2.3135,-2.3135,-2.3135,-2.2872,-2.2236,-2.0685,-1.9338,-1.8723,-1.6891,-1.5716,-1.5613,-1.5189,-1.4889,-1.4779,-1.4377,-1.4157,-1.4157,-1.3953,-1.3784,-1.3667,-1.3397,-1.311,-1.2907,-1.2675,-1.2061,-4.2395,-4.4956,-4.7026,-4.9068,-4.9947,-5.0068,-4.8899,-4.7524,-4.5934,-4.4222,-4.1552,-3.9578,0.0,0.0,-3.8543,-4.3793,-4.3166,-4.3987,-4.971,-4.6994,-4.5316,0.0,0.0,0.0,0.0,0.0,0.0,-4.6794,0.0,-5.1119,-5.1121,-5.2622,-5.3433,-5.3365,-5.2677,-5.2236,-5.2164,-5.0566,-4.8623,-4.6526,-4.5203,-4.4572,-4.4572,-4.4572,-4.4202,-4.3541,-4.2717,-4.1824,-4.0937,-4.0039,-3.9553,-3.9424,-3.9379,-3.8945,-3.8046,-3.5969,-3.5184,-3.4715,-3.2625,-3.185,-3.1746,-3.1007,-3.0958,-3.124,-3.0966,-3.0716,-3.057,-3.057,-3.0193,-2.9714,-2.9209,-2.9131,-2.8973,-2.859,-2.708,-2.5819,-2.5819,-2.4402,-2.3135,-2.3135,-2.3135,-2.3135,-2.3135,-2.3135,-2.3135,-2.3135,-2.3135,-2.3135,-2.3135,-2.3135,-2.3135,-2.3135,-2.132,-2.0223,-2.0206,-1.7908,-1.6279,-1.5965,-1.5357,-1.4874,-1.456,-1.4516,-1.4494,-1.4494,-1.4479,-1.4311,-1.4004,-1.3917,-1.3516,-1.2956,-1.3094,-1.2428,-4.5385,-4.8105,-4.9786,-5.0214,-4.993,-4.9152,-4.7345,-4.5507,-4.3472,-4.1006,-3.8698,-3.6746,0.0,0.0,0.0,-4.1663,-4.4517,0.0,-4.9471,-5.084,0.0,-4.7656,0.0,-4.7962,-4.5872,-4.6173,0.0,0.0,-4.9295,-5.0357,-5.0222,-5.2299,-5.2972,-5.1753,-5.2076,-5.1696,-5.0554,-4.8451,-4.6918,-4.5834,-4.4987,-4.4572,-4.4572,-4.4572,-4.4202,-4.3541,-4.2717,-4.1824,-4.0937,-4.0039,-3.9553,-3.9364,-3.8856,-3.7875,-3.6748,-3.6003,-3.501,-3.4023,-3.3344,-3.3143,-3.2973,-3.1708,-3.1525,-3.1662,-3.061,-3.0148,-2.9993,-2.9993,-2.9905,-2.9714,-2.9209,-2.9131,-2.8973,-2.859,-2.708,-2.5819,-2.5819,-2.4402,-2.3135,-2.3135,-2.3135,-2.3135,-2.3135,-2.3135,-2.3135,-2.3135,-2.3135,-2.3135,-2.3135,-2.3135,-2.3135,-2.3135,-2.132,-2.0121,-1.9935,-1.8206,-1.685,-1.6287,-1.6096,-1.587,-1.5562,-1.5079,-1.4823,-1.4823,-1.4589,-1.4428,-1.434,-1.4187,-1.3903,-1.3586,-1.3434,-1.2463,-4.7172,-4.9547,-5.0969,-5.1093,-5.023,-4.8625,-4.5924,-4.3723,-4.121,-3.7788,-3.5446,0.0,0.0,0.0,0.0,0.0,0.0,0.0,-4.8303,-4.948,-4.9605,0.0,-4.9297,0.0,-4.7903,-4.7768,-4.8068,0.0,-4.961,-5.0091,-5.0099,-5.226,-5.2817,-5.1294,-5.1606,-5.1011,-4.9325,-4.7506,-4.6403,-4.6018,-4.5049,-4.4572,-4.4572,-4.4572,-4.4218,-4.3392,0.0,-4.1678,-4.0792,-3.9896,-3.9481,-3.9379,-3.899,-3.7982,-3.6635,-3.6169,-3.5252,-3.4106,-3.3779,-3.3744,-3.3636,-3.1966,-3.1318,-3.1188,-3.0265,-2.9869,-2.9792,-2.9792,-2.9792,-2.9714,-2.9209,-2.9131,-2.8895,-2.8087,-2.6835,-2.5746,-2.5326,-2.4155,-2.3135,-2.3135,-2.3135,-2.3135,-2.3135,-2.3135,-2.3135,-2.3135,-2.3135,-2.3135,-2.3135,-2.3135,-2.3135,-2.3135,-2.132,-2.0155,-2.003,-1.8177,-1.6908,-1.6404,-1.6243,-1.603,-1.5716,-1.535,-1.516,-1.516,-1.4977,-1.4816,-1.4511,-1.4488,-1.417,-1.366,-1.3695,-1.2613,-4.8358,-5.0025,-5.1071,-5.1736,-5.0424,-4.8073,-4.4607,-4.1911,-3.8947,-3.4691,0.0,-3.083,-3.0195,0.0,-3.2399,-3.7023,0.0,-4.0433,-4.6736,-4.6096,-4.6217,-4.9422,-4.9497,-4.9509,-5.0193,-4.9491,-4.9316,-5.0075,-4.996,-4.996,-5.0073,-5.203,-5.259,-5.1236,-5.0919,-4.9977,-4.8343,-4.7173,-4.6511,-4.6311,-4.5141,-4.4572,-4.4572,-4.4572,-4.4127,-4.3257,0.0,0.0,-4.0631,-3.9856,-3.9427,-3.9265,-3.9265,-3.8238,-3.6833,-3.6259,-3.5388,-3.4485,-3.3817,-3.3849,-3.3845,-3.195,-3.0983,-3.0484,-2.9984,-2.9792,-2.9792,-2.9792,-2.9792,-2.9624,-2.9209,-2.9052,-2.8736,-2.7592,-2.6595,-2.5687,-2.4826,-2.3864,-2.3223,-2.3223,-2.3184,-2.3135,-2.3135,-2.3135,-2.3135,-2.3135,-2.3135,-2.3135,-2.3135,-2.3135,-2.3135,-2.3135,-2.132,-2.0215,-2.0163,-1.8175,-1.6696,-1.633,-1.606,-1.5767,-1.5438,-1.5431,-1.5431,-1.5431,-1.5431,-1.5119,-1.4674,-1.4691,-1.4378,-1.3625,-1.4007,-1.2875,-4.9639,-5.0639,-5.1009,-5.2191,-4.9848,-4.6414,-4.334,-3.9565,0.0,0.0,0.0,-2.9559,-2.9312,-3.037,0.0,-3.6432,0.0,0.0,0.0,0.0,-4.7455,0.0,0.0,0.0,0.0,0.0,0.0,0.0,0.0,-4.8982,-4.8864,-5.0534,-5.107,-5.0182,-4.939,-4.8376,-4.6957,-4.6711,-4.6034,-4.4926,-4.4695,-4.4572,-4.4572,-4.4572,-4.4127,-4.3273,-4.294,0.0,-4.0661,-4.0351,-3.9521,-3.8427,-3.8427,-3.7092,-3.5297,-3.5648,-3.4902,-3.3736,-3.3668,-3.3245,-3.2626,-3.2156,-3.1909,-3.1573,-3.0211,-2.9792,-2.9792,-2.9792,-2.9611,-2.9431,-2.9131,-2.8961,-2.8662,-2.7856,-2.7026,-2.6185,-2.5711,-2.4536,-2.3682,-2.3682,-2.3389,-2.3135,-2.3135,-2.3135,-2.3135,-2.3135,-2.3135,-2.3135,-2.3135,-2.3135,-2.3135,-2.3135,-2.132,-2.0112,-1.9892,-1.8041,-1.6608,-1.603,-1.5943,-1.5767,-1.5438,-1.5431,-1.5431,-1.5431,-1.5431,-1.5228,-1.5004,-1.5061,-1.4775,-1.4241,-1.435,-1.3237,-4.9821,-5.0703,-5.1217,-5.186,-4.8889,-4.4917,-4.1481,0.0,0.0,0.0,0.0,-2.8341,-2.8512,0.0,0.0,0.0,0.0,0.0,0.0,0.0,0.0,0.0,0.0,0.0,0.0,0.0,0.0,0.0,0.0,-4.8136,-4.8887,-4.9646,-4.9963,-4.9868,-4.9081,-4.8127,-4.7127,-4.6773,-4.6095,-4.5095,-4.4741,-4.4572,-4.4572,-4.4572,-4.4251,-4.364,-4.3214,0.0,-4.1025,-4.0114,-3.9147,-3.8113,-3.7706,-3.6584,-3.5276,-3.556,-3.5022,-3.3966,-3.3692,-3.3323,-3.273,-3.1883,-3.1327,-3.093,-3.0033,-2.9792,-2.9792,-2.9792,-2.9811,-2.97,-2.9204,-2.9389,-2.9222,-2.7488,-2.6215,-2.5317,-2.5088,-2.4445,-2.3789,-2.3789,-2.3437,-2.3135,-2.3135,-2.3135,-2.3135,-2.3135,-2.3135,-2.3135,-2.3135,-2.3135,-2.3135,-2.3135,-2.132,-2.0163,-1.9984,-1.8104,-1.6726,-1.6426,-1.6243,-1.6009,-1.5694,-1.5679,-1.5606,-1.5431,-1.5599,-1.5515,-1.509,-1.517,-1.4895,-1.4398,-1.3802,-1.2693,-4.9066,-5.0066,-5.0896,-5.1145,-4.7855,-4.3684,-3.9884,-3.5698,0.0,0.0,-2.779,-2.73,-2.7893,0.0,0.0,0.0,0.0,0.0,0.0,0.0,0.0,0.0,0.0,0.0,0.0,0.0,0.0,0.0,0.0,0.0,-4.9147,-4.8922,-4.9007,-4.9426,-4.8562,-4.785,-4.7173,-4.665,-4.6034,-4.5357,-4.4833,-4.4572,-4.4572,-4.4587,-4.4358,-4.3957,-4.3441,0.0,0.0,-3.9832,-3.8626,-3.7567,-3.6908,-3.6122,-3.5426,-3.5426,-3.495,-3.4319,-3.3783,-3.3411,-3.2972,-3.1806,-3.0866,-3.024,-2.9907,-2.9792,-2.9792,-2.9792,-2.9924,-2.9911,-2.9376,-2.9606,-2.9331,-2.7063,-2.5542,-2.4697,-2.4697,-2.4365,-2.4062,-2.4062,-2.3643,-2.3281,-2.3281,-2.3203,-2.3135,-2.3135,-2.3135,-2.3135,-2.3135,-2.296,-2.2775,-2.2775,-2.123,-2.0141,-1.996,-1.8024,-1.6857,-1.6857,-1.655,-1.6265,-1.6023,-1.6016,-1.5891,-1.5635,-1.5884,-1.5798,-1.529,-1.5275,-1.5054,-1.4494,-1.3297,-1.2238,-4.7002,-4.8297,-4.9453,-5.0034,-4.6919,-4.2923,-3.9393,0.0,0.0,0.0,-2.7037,-2.6504,-2.7762,-2.7695,0.0,0.0,0.0,0.0,0.0,0.0,0.0,0.0,0.0,0.0,0.0,0.0,0.0,0.0,0.0,0.0,-4.8996,-4.8407,-4.7985,-4.7858,-4.7176,-4.6449,-4.5772,-4.5711,-4.5341,-4.4664,-4.4603,-4.4572,-4.4572,-4.4435,-4.4205,-4.3988,-4.3771,0.0,0.0,-4.0066,-3.8374,-3.591,-3.5816,-3.5264,-3.4564,-3.4564,-3.4481,-3.4319,-3.3783,-3.3316,-3.2872,-3.2201,-3.1452,-3.0669,-3.002,-2.9792,-2.9792,-2.9792,-2.9636,-2.9514,-2.9745,-2.908,-2.7991,-2.6732,-2.6023,-2.5615,-2.5615,-2.5264,-2.4951,-2.4951,-2.4287,-2.373,-2.373,-2.3398,-2.3135,-2.3135,-2.3135,-2.3135,-2.3135,-2.2325,-2.1784,-2.1784,-2.0872,-1.9869,-1.8972,-1.7667,-1.6857,-1.6857,-1.655,-1.636,-1.633,-1.6323,-1.6309,-1.6279,-1.6309,-1.6228,-1.5941,-1.5697,-1.5374,-1.4809,-1.358,-1.2406,-4.6491,-4.8052,-4.903,-4.8828,-4.5282,-4.1086,-3.805,0.0,0.0,-2.7977,-2.6566,-2.5863,-2.6795,-2.6857,-2.7211,0.0,0.0,0.0,0.0,0.0,0.0,0.0,0.0,0.0,0.0,0.0,0.0,0.0,0.0,0.0,-4.8407,-4.8032,-4.7515,-4.7004,-4.6742,-4.6265,-4.5603,-4.5588,-4.5249,-4.4572,-4.4572,-4.4572,-4.4572,-4.4511,-4.4281,-4.3957,-4.3486,0.0,0.0,-3.9154,-3.7536,-3.5669,-3.5114,-3.4716,-3.4397,-3.4397,-3.4397,-3.4319,-3.3783,-3.3411,-3.2985,-3.1922,-3.1248,-3.0795,-3.0423,-3.0055,-2.9792,-2.9792,-3.0099,-3.04,-3.0208,-2.9201,-2.7988,-2.7127,-2.624,-2.5664,-2.5391,-2.5195,-2.499,-2.4727,-2.4394,-2.417,-2.417,-2.3818,-2.3525,-2.3525,-2.3301,-2.3135,-2.3135,-2.2236,-2.1516,-2.0872,-1.9968,-1.9247,-1.8788,-1.7757,-1.7135,-1.7135,-1.7018,-1.6865,-1.6667,-1.666,-1.6565,-1.6374,-1.6565,-1.6565,-1.6197,-1.6124,-1.5784,-1.53,-1.332,-1.2187,-4.4599,-4.645,-4.749,-4.6925,-4.3301,-3.9218,0.0,0.0,0.0,-2.7596,-2.6134,-2.5349,-2.6441,-2.6503,-2.6672,0.0,0.0,0.0,0.0,0.0,0.0,0.0,0.0,0.0,0.0,0.0,0.0,0.0,0.0,0.0,0.0,-4.7207,-4.6788,-4.6311,-4.6095,-4.5772,-4.5295,-4.528,-4.5049,-4.4572,-4.4572,-4.4572,-4.4587,-4.4511,-4.4281,-4.3957,0.0,0.0,0.0,-3.8369,-3.6866,-3.5519,-3.4713,-3.4397,-3.4397,-3.4397,-3.4397,-3.4345,-3.3966,-3.374,-3.3325,-3.2089,-3.1439,-3.1153,-3.0926,-3.047,-3.0068,-3.0218,-3.0518,-3.0626,-2.9975,-2.8877,-2.7796,-2.6938,-2.6187,-2.5644,-2.5332,-2.5264,-2.5176,-2.4863,-2.4697,-2.457,-2.4443,-2.4072,-2.375,-2.3613,-2.333,-2.296,-2.2687,-2.1872,-2.0872,-1.9877,-1.8972,-1.8334,-1.8334,-1.7692,-1.7326,-1.7326,-1.7326,-1.723,-1.7004,-1.6996,-1.6887,-1.666,-1.6879,-1.6887,-1.6652,-1.643,-1.6007,-1.5341,-1.3135,-1.1805,-4.0489,-4.256,-4.4133,-4.4159,-4.1086,-3.7437,0.0,0.0,0.0,-2.7442,-2.5749,-2.4948,-2.7011,-2.6842,-2.6826,-2.8181,0.0,0.0,0.0,0.0,0.0,0.0,0.0,0.0,0.0,0.0,0.0,0.0,0.0,0.0,0.0,-4.5972,-4.5603,-4.5603,-4.4941,-4.4603,-4.4587,-4.4587,-4.4587,-4.4572,-4.4572,-4.4572,-4.4587,-4.4205,-4.3988,0.0,0.0,0.0,0.0,-3.8087,-3.6601,-3.5221,-3.4633,-3.4397,-3.4397,-3.4397,-3.4397,-3.4397,-3.4384,-3.423,-3.3972,-3.3129,-3.2414,-3.1724,-3.1468,-3.1022,-3.0708,-3.1223,-3.0749,-2.9852,-2.8835,-2.7931,-2.6999,-2.5917,-2.5732,-2.5742,-2.5732,-2.5732,-2.5732,-2.5723,-2.5361,-2.4922,-2.4492,-2.4072,-2.3643,-2.3213,-2.3135,-2.2775,-2.1872,-2.0872,-1.9869,-1.888,-1.7878,-1.7326,-1.7326,-1.7333,-1.7326,-1.7326,-1.7326,-1.7326,-1.7326,-1.7326,-1.7318,-1.7318,-1.7318,-1.7318,-1.7318,-1.6857,-1.5946,-1.4625,-1.3122,-1.1313,-3.7405,-3.8762,-3.9325,-3.9196,-3.7141,-3.4587,-3.2369,0.0,-2.8,-2.6933,-2.618,-2.5933,-2.6595,-2.6903,-2.7519,-2.8873,-3.0212,0.0,0.0,0.0,0.0,0.0,0.0,0.0,0.0,0.0,0.0,0.0,0.0,0.0,0.0,-4.5957,-4.5372,-4.491,-4.4695,-4.4572,-4.4572,-4.4572,-4.4572,-4.4572,-4.4572,-4.4572,-4.4572,-4.4358,0.0,0.0,0.0,0.0,0.0,-3.7483,-3.6253,-3.5234,-3.4633,-3.4646,-3.4959,-3.4554,-3.4397,-3.4397,-3.4397,-3.4162,-3.3645,-3.3109,-3.2508,-3.1911,-3.1562,-3.0771,-3.0244,-3.0985,-3.0761,-3.0086,-2.9093,-2.82,-2.721,-2.6014,-2.5742,-2.5654,-2.5352,-2.5518,-2.5644,-2.5342,-2.541,-2.5478,-2.5342,-2.4707,-2.417,-2.4033,-2.3516,-2.296,-2.2687,-2.123,-2.0051,-1.9786,-1.8234,-1.7326,-1.7326,-1.7326,-1.7326,-1.7326,-1.7326,-1.7326,-1.7326,-1.7326,-1.7239,-1.7066,-1.7239,-1.7145,-1.6864,-1.6676,-1.5475,-1.329,-1.2133,-1.0849,0.0,-3.5394,-3.6106,-3.5931,-3.4554,0.0,0.0,0.0,-2.7534,-2.6255,-2.598,-2.6057,-2.6318,-2.6934,-2.775,-2.8858,-3.0151,0.0,0.0,0.0,0.0,0.0,0.0,0.0,0.0,0.0,0.0,0.0,0.0,0.0,0.0,-4.5341,-4.4633,-4.4218,-4.4202,-4.4326,-4.4572,-4.4326,-4.4326,-4.4572,-4.4572,-4.4572,-4.4572,-4.4281,0.0,0.0,0.0,0.0,0.0,-3.7304,-3.6287,-3.5547,-3.4959,-3.4829,-3.4907,-3.4541,-3.4397,-3.4397,-3.4397,-3.4175,-3.3779,-3.3122,-3.2426,-3.1699,-3.1241,-3.0909,-3.0896,-3.1622,-3.0953,-2.9912,-2.9329,-2.8038,-2.6668,-2.5927,-2.5742,-2.5664,-2.5381,-2.5537,-2.5654,-2.5371,-2.5547,-2.5742,-2.5742,-2.5137,-2.4609,-2.4443,-2.3828,-2.3144,-2.2618,-2.1141,-2.0051,-1.9695,-1.8241,-1.7326,-1.7326,-1.7326,-1.7326,-1.7326,-1.7326,-1.7326,-1.7326,-1.7239,-1.7153,-1.6979,-1.7059,-1.6864,-1.6588,-1.5812,-1.437,-1.2252,-1.1277,-1.0306,0.0,0.0,0.0,0.0,0.0,0.0,0.0,0.0,0.0,-2.5561,-2.5395,-2.5626,-2.6366,-2.7057,-2.7719,-2.8488,-2.972,0.0,0.0,0.0,0.0,0.0,0.0,0.0,0.0,0.0,0.0,0.0,0.0,0.0,0.0,-4.4279,-4.3541,-4.3494,-4.3448,-4.3771,-4.4495,-4.3879,-4.3879,-4.451,-4.4464,-4.4433,-4.4433,-4.399,0.0,0.0,0.0,0.0,0.0,-3.7448,-3.6567,-3.6044,-3.5456,-3.492,-3.4463,-3.441,-3.4397,-3.4397,-3.4397,-3.4345,-3.4105,-3.316,-3.2212,-3.1311,-3.0909,-3.1436,-3.2265,-3.2805,-3.124,-2.9362,-2.9396,-2.7579,-2.5742,-2.5742,-2.5742,-2.5742,-2.5742,-2.5742,-2.5742,-2.5742,-2.5742,-2.5742,-2.5742,-2.5361,-2.4932,-2.4521,-2.4102,-2.3403,-2.2063,-2.1006,-1.9994,-1.8972,-1.7963,-1.7419,-1.7333,-1.7326,-1.7326,-1.7326,-1.7326,-1.7326,-1.7326,-1.716,-1.6979,-1.6979,-1.6784,-1.6581,-1.6487,-1.4472,-1.284,-1.1585,-1.0507,-0.9821,-2.7051,0.0,-2.9548,-2.9548,0.0,0.0,0.0,0.0,0.0,0.0,0.0,0.0,0.0,-2.8396,-2.8719,0.0,0.0,0.0,0.0,0.0,0.0,0.0,0.0,0.0,0.0,0.0,0.0,0.0,0.0,0.0,0.0,-4.4018,-4.334,-4.2848,-4.234,-4.2617,-4.3787,-4.3648,-4.3648,-4.3802,-4.331,-4.3063,-4.3063,-4.1941,0.0,0.0,0.0,0.0,-3.7813,-3.6333,-3.5861,-3.6005,-3.4999,-3.4803,-3.5025,-3.4567,-3.4397,-3.4397,-3.4397,-3.3822,-3.2984,-3.2452,-3.1825,-3.1524,-3.2277,-3.2064,-3.1612,-3.1597,-3.0245,-2.8846,-2.9043,-2.74,-2.5742,-2.5742,-2.5742,-2.5742,-2.5742,-2.5742,-2.5742,-2.5742,-2.5742,-2.5742,-2.5742,-2.5361,-2.5029,-2.4932,-2.4541,-2.402,-2.3413,-2.2425,-2.129,-1.9994,-1.9055,-1.8149,-1.7326,-1.7326,-1.7326,-1.7326,-1.7326,-1.7326,-1.7326,-1.7239,-1.7153,-1.6979,-1.6784,-1.6298,-1.5724,-1.4184,-1.2937,-1.1883,-1.0609,-0.992,-2.6009,-2.7257,-2.8568,-2.8568,-2.8568,-2.8413,0.0,0.0,0.0,0.0,0.0,0.0,0.0,0.0,0.0,0.0,0.0,0.0,0.0,0.0,0.0,0.0,0.0,0.0,0.0,0.0,0.0,0.0,0.0,0.0,0.0,-4.3033,-4.2509,-4.2155,-4.1786,-4.2094,-4.311,-4.2817,-4.2833,-4.3125,-4.2771,-4.2368,-4.2043,-4.1143,-4.0251,0.0,0.0,0.0,-3.6836,-3.6141,-3.5877,-3.5838,-3.522,-3.501,-3.5023,-3.4612,-3.4397,-3.4358,-3.411,-3.3463,-3.273,-3.223,-3.1902,-3.1838,-3.2202,-3.1876,-3.1499,-3.1859,-3.0506,-2.898,-2.9157,-2.7484,-2.5742,-2.5742,-2.5742,-2.5742,-2.5742,-2.5742,-2.5742,-2.5742,-2.5742,-2.5801,-2.6006,-2.5664,-2.5371,-2.5371,-2.5,-2.4492,-2.3867,-2.2574,-2.1296,-2.0275,-1.8964,-1.7878,-1.7326,-1.7326,-1.7326,-1.7326,-1.7326,-1.7326,-1.7326,-1.7239,-1.7059,-1.6784,-1.6683,-1.6008,-1.4669,-1.3896,-1.2743,-1.1292,-1.0413,-0.992,-2.5937,-2.7394,-2.8856,-2.8791,-2.8933,-2.9013,0.0,0.0,0.0,0.0,0.0,0.0,0.0,0.0,0.0,0.0,0.0,0.0,0.0,0.0,0.0,0.0,0.0,0.0,0.0,0.0,0.0,0.0,0.0,0.0,0.0,-4.1909,-4.1494,-4.1294,-4.1386,-4.1592,-4.1965,-4.1699,-4.1894,-4.2448,-4.2195,-4.1739,-4.1025,-4.0374,-3.9255,0.0,0.0,0.0,-3.5979,-3.6161,-3.5897,-3.5542,-3.5437,-3.5107,-3.4673,-3.4481,-3.4397,-3.4319,-3.3783,-3.3209,-3.2739,-3.2342,-3.2181,-3.2139,-3.1763,-3.1555,-3.1672,-3.2621,-3.1187,-2.9215,-2.9201,-2.7484,-2.5742,-2.5742,-2.5742,-2.5742,-2.5742,-2.5742,-2.5742,-2.5742,-2.5742,-2.5859,-2.6221,-2.5977,-2.5742,-2.5742,-2.541,-2.4883,-2.39,-2.2235,-2.0931,-2.0178,-1.8542,-1.7512,-1.7326,-1.7326,-1.7326,-1.7326,-1.7326,-1.7326,-1.7326,-1.716,-1.6972,-1.6676,-1.6676,-1.5818,-1.3998,-1.3703,-1.2543,-1.0413,-1.0216,-0.992,-2.5724,-2.6856,-2.7673,-2.7454,-2.8284,-2.8871,0.0,0.0,0.0,0.0,0.0,0.0,0.0,0.0,0.0,0.0,0.0,0.0,0.0,0.0,0.0,0.0,0.0,0.0,0.0,0.0,0.0,0.0,0.0,0.0,0.0,-4.1663,-4.1047,-3.9878,-4.0401,-4.01,-3.8953,-4.0751,-4.1648,-4.1755,-4.044,-3.9778,-3.9546,-3.7949,-3.6967,0.0,0.0,-3.5297,-3.5378,-3.4952,-3.5005,-3.5332,-3.4821,-3.4559,-3.4494,-3.4397,-3.4397,-3.4319,-3.3783,-3.3031,-3.2278,-3.2675,-3.2498,-3.229,-3.2692,-3.2278,-3.1595,-3.1765,-3.0295,-2.861,-2.8179,-2.6924,-2.5742,-2.5742,-2.5742,-2.5742,-2.5742,-2.5742,-2.5742,-2.5742,-2.5742,-2.5762,-2.583,-2.5781,-2.5742,-2.5742,-2.5674,-2.515,-2.3765,-2.3015,-2.1893,-1.9649,-1.8877,-1.8241,-1.7326,-1.7326,-1.7326,-1.7326,-1.7326,-1.7326,-1.7326,-1.7239,-1.7239,-1.7239,-1.7239,-1.6183,-1.4268,-1.4172,-1.3017,-1.0708,-1.0507,-1.0216,-2.452,-2.5834,-2.6993,-2.7011,-2.7998,-2.8753,0.0,0.0,0.0,0.0,0.0,0.0,0.0,0.0,0.0,0.0,0.0,0.0,0.0,0.0,0.0,0.0,0.0,0.0,0.0,0.0,0.0,0.0,0.0,0.0,0.0,0.0,-3.9039,-3.8417,-3.8592,-3.8418,-3.775,-3.9073,-3.971,-3.971,-3.9003,-3.8223,-3.7504,-3.657,-3.5825,-3.5301,0.0,-3.4706,-3.4984,-3.4861,-3.4901,-3.4971,-3.4682,-3.4577,-3.4577,-3.4481,-3.4214,-3.3927,-3.3679,-3.3174,-3.2534,-3.2483,-3.2548,-3.2667,-3.2629,-3.2561,-3.2164,-3.1169,-2.9715,-2.8305,-2.7953,-2.6924,-2.5917,-2.5732,-2.5742,-2.5742,-2.5742,-2.5742,-2.5742,-2.5742,-2.5742,-2.5742,-2.5742,-2.5742,-2.5742,-2.5742,-2.5742,-2.5179,-2.3653,-2.2847,-2.1717,-1.9734,-1.8822,-1.8055,-1.7589,-1.7428,-1.7326,-1.7326,-1.7326,-1.7326,-1.7326,-1.7326,-1.7326,-1.7326,-1.7326,-1.656,-1.5127,-1.4453,-1.3204,-1.1375,-1.0605,-1.0019,-2.3378,-2.465,-2.5979,-2.6176,0.0,0.0,-2.8144,0.0,0.0,0.0,0.0,0.0,0.0,0.0,0.0,0.0,0.0,0.0,0.0,0.0,0.0,0.0,0.0,0.0,0.0,0.0,0.0,0.0,0.0,0.0,0.0,0.0,-3.7079,-3.6915,-3.6978,-3.6867,-3.649,-3.7125,-3.7661,-3.8101,-3.7875,-3.7253,-3.6192,-3.5697,-3.5196,-3.4713,-3.4353,-3.4472,-3.4839,-3.4908,-3.4839,-3.4673,-3.4673,-3.4673,-3.4673,-3.4481,-3.4058,-3.3613,-3.3662,-3.3364,-3.288,-3.249,-3.2726,-3.2993,-3.2554,-3.2448,-3.2077,-3.0621,-2.9154,-2.7955,-2.7662,-2.6829,-2.5917,-2.5732,-2.5742,-2.5742,-2.5742,-2.5742,-2.5742,-2.5742,-2.5742,-2.5742,-2.5742,-2.5742,-2.5742,-2.5742,-2.5742,-2.5111,-2.3481,-2.2566,-2.1327,-1.9701,-1.8604,-1.7896,-1.7823,-1.7516,-1.7326,-1.7326,-1.7326,-1.7326,-1.7326,-1.7326,-1.7326,-1.7326,-1.7326,-1.685,-1.5798,-1.4549,-1.3295,-1.1853,-1.0699,-0.992,-2.3003,-2.3512,-2.3961,-2.4141,0.0,0.0,-2.9778,0.0,0.0,0.0,0.0,0.0,0.0,0.0,0.0,0.0,0.0,0.0,0.0,0.0,0.0,0.0,0.0,0.0,0.0,0.0,0.0,0.0,0.0,0.0,0.0,0.0,0.0,-3.5481,-3.6122,-3.5741,-3.4353,-3.506,-3.6308,-3.8101,-3.7372,-3.6908,-3.6774,-3.5452,-3.5047,-3.5305,-3.4527,-3.4472,-3.4756,-3.4577,-3.4397,-3.4397,-3.4397,-3.4397,-3.4397,-3.4397,-3.4058,-3.3666,-3.3926,-3.3521,-3.2925,-3.3216,-3.3177,-3.3068,-3.3031,-3.1765,-3.0351,-3.026,-2.8806,-2.7251,-2.6774,-2.6207,-2.5732,-2.5742,-2.5742,-2.5742,-2.5742,-2.5742,-2.5742,-2.5742,-2.5742,-2.5742,-2.5742,-2.5742,-2.5742,-2.5742,-2.5742,-2.4913,-2.2859,-2.224,-2.123,-1.9048,-1.8559,-1.8145,-1.7838,-1.7516,-1.7326,-1.7326,-1.7326,-1.7326,-1.7326,-1.7326,-1.7326,-1.7326,-1.7326,-1.685,-1.5798,-1.4746,-1.3494,-1.1853,-1.0895,-1.0117,-2.2166,-2.3,-2.3744,-2.4005,0.0,0.0,0.0,0.0,0.0,0.0,0.0,0.0,0.0,0.0,0.0,0.0,0.0,0.0,0.0,0.0,0.0,0.0,0.0,0.0,0.0,0.0,0.0,0.0,0.0,0.0,0.0,0.0,0.0,-3.3986,-3.4197,-3.4071,-3.3468,-3.4073,-3.4748,-3.5481,-3.5203,-3.4857,-3.4499,-3.4358,-3.4251,-3.431,-3.4392,-3.4539,-3.4756,-3.4673,-3.4577,-3.4397,-3.4397,-3.4397,-3.4397,-3.4397,-3.4267,-3.4123,-3.4249,-3.3933,-3.3456,-3.3577,-3.3398,-3.3081,-3.3081,-3.2164,-3.0991,-3.0351,-2.9061,-2.7694,-2.6774,-2.6304,-2.612,-2.5732,-2.5742,-2.5742,-2.5742,-2.5742,-2.5742,-2.5742,-2.5742,-2.5742,-2.5742,-2.5742,-2.5742,-2.5742,-2.5742,-2.4922,-2.2793,-2.2364,-2.1478,-1.9287,-1.8803,-1.8394,-1.786,-1.7699,-1.7545,-1.734,-1.7326,-1.7326,-1.7326,-1.7326,-1.7326,-1.7326,-1.7326,-1.7044,-1.6581,-1.4841,-1.359,-1.2635,-1.0895,-0.992,-2.1794,-2.233,-2.2862,0.0,0.0,0.0,0.0,0.0,0.0,0.0,0.0,0.0,0.0,0.0,0.0,0.0,0.0,0.0,0.0,0.0,0.0,0.0,0.0,0.0,0.0,0.0,0.0,0.0,0.0,0.0,0.0,0.0,0.0,0.0,-3.2841,-3.2793,-3.2793,-3.3186,-3.339,-3.339,-3.3314,-3.3395,-3.3634,-3.3851,-3.3995,-3.4216,-3.4352,-3.4539,-3.4756,-3.4673,-3.4577,-3.4397,-3.4397,-3.4397,-3.4397,-3.4397,-3.4397,-3.4397,-3.4314,-3.4063,-3.3713,-3.3641,-3.3129,-3.2624,-3.2624,-3.1713,-3.0543,-2.9897,-2.8795,-2.7694,-2.6774,-2.64,-2.6304,-2.583,-2.5742,-2.5742,-2.5742,-2.5742,-2.5732,-2.583,-2.583,-2.583,-2.583,-2.5528,-2.5323,-2.5216,-2.4922,-2.4007,-2.219,-2.1988,-2.1285,-1.948,-1.8986,-1.8606,-1.816,-1.7933,-1.7721,-1.7494,-1.7384,-1.7326,-1.7326,-1.7326,-1.7326,-1.7326,-1.7326,-1.7044,-1.6487,-1.4746,-1.3494,-1.2538,-1.0797,-0.9826,-2.1979,-2.145,0.0,0.0,0.0,0.0,0.0,0.0,0.0,0.0,0.0,0.0,0.0,0.0,0.0,0.0,0.0,0.0,0.0,0.0,0.0,0.0,0.0,0.0,0.0,0.0,0.0,0.0,0.0,0.0,0.0,0.0,0.0,0.0,-3.2182,-3.2182,-3.2182,-3.2182,-3.2182,-3.2182,-3.2036,-3.288,-3.4787,-3.4126,-3.4427,-3.5345,-3.454,-3.4377,-3.4756,-3.4494,-3.4397,-3.4397,-3.4397,-3.4397,-3.4397,-3.4397,-3.4397,-3.4397,-3.4147,-3.3894,-3.3628,-3.3471,-3.2599,-3.1625,-3.1625,-3.026,-2.8724,-2.8724,-2.7809,-2.6805,-2.6602,-2.6294,-2.6004,-2.5732,-2.5742,-2.5742,-2.5742,-2.5742,-2.5732,-2.6004,-2.61,-2.61,-2.61,-2.5187,-2.4384,-2.4187,-2.3185,-2.2089,-2.1089,-2.0885,-2.0483,-1.9376,-1.8986,-1.8789,-1.8789,-1.8196,-1.7823,-1.7816,-1.7516,-1.7333,-1.7326,-1.7326,-1.7326,-1.7326,-1.7326,-1.6655,-1.5399,-1.4351,-1.3102,-1.1565,-1.0502,-0.9826,-2.2109,0.0,0.0,0.0,0.0,0.0,0.0,0.0,0.0,0.0,0.0,0.0,0.0,0.0,0.0,0.0,0.0,0.0,0.0,0.0,0.0,0.0,0.0,0.0,0.0,0.0,0.0,0.0,0.0,0.0,0.0,0.0,0.0,0.0,-3.189,-3.1963,-3.1963,-3.2109,-3.2109,-3.1963,-3.1963,-3.2159,-3.2745,-3.285,-3.2978,-3.3105,-3.3688,-3.4004,-3.3957,-3.4241,-3.4397,-3.4397,-3.4397,-3.4397,-3.4397,-3.4397,-3.4397,-3.4345,-3.3706,-3.3656,-3.3564,-3.3013,-3.229,-3.1625,-3.1625,-3.026,-2.8724,-2.8724,-2.7809,-2.6805,-2.6602,-2.6294,-2.6004,-2.5732,-2.5742,-2.5732,-2.5917,-2.6004,-2.6004,-2.6091,-2.6294,-2.6294,-2.6091,-2.5392,-2.4786,-2.4688,-2.3592,-2.2291,-2.1089,-2.0285,-1.968,-1.9376,-1.9191,-1.9038,-1.8811,-1.8613,-1.8306,-1.7845,-1.794,-1.7808,-1.7347,-1.7326,-1.7239,-1.7066,-1.7066,-1.6386,-1.4943,-1.3884,-1.263,-1.1268,-1.0207,-0.9628,-2.2032,0.0,0.0,0.0,0.0,0.0,0.0,0.0,0.0,0.0,0.0,0.0,0.0,0.0,0.0,0.0,0.0,0.0,0.0,0.0,0.0,0.0,0.0,0.0,0.0,0.0,0.0,0.0,0.0,0.0,0.0,0.0,0.0,0.0,-3.1757,-3.1743,-3.1743,-3.189,-3.189,-3.1743,-3.173,-3.1656,-3.1683,-3.227,-3.2505,-3.2513,-3.3146,-3.3382,-3.326,-3.3587,-3.3718,-3.3718,-3.3718,-3.3718,-3.3744,-3.3979,-3.4071,-3.4031,-3.3515,-3.3514,-3.3538,-3.2822,-3.1884,-3.108,-3.108,-2.9715,-2.8175,-2.8175,-2.7536,-2.6805,-2.6602,-2.6294,-2.6004,-2.5732,-2.5742,-2.5732,-2.6004,-2.61,-2.6197,-2.64,-2.6506,-2.6602,-2.64,-2.5294,-2.4393,-2.4285,-2.2785,-2.1387,-2.0483,-1.9783,-1.9279,-1.9279,-1.9279,-1.9199,-1.9001,-1.8745,-1.843,-1.8035,-1.7947,-1.7735,-1.7347,-1.7457,-1.7377,-1.6979,-1.6979,-1.6204,-1.4657,-1.3601,-1.2436,-1.117,-1.0109,-0.9628,0.0,0.0,0.0,0.0,0.0,0.0,0.0,0.0,0.0,0.0,0.0,0.0,0.0,0.0,0.0,0.0,0.0,0.0,0.0,0.0,0.0,0.0,0.0,0.0,0.0,0.0,0.0,0.0,0.0,0.0,0.0,0.0,0.0,-3.1442,-3.1455,-3.1529,-3.1529,-3.1582,-3.1609,0.0,-3.136,-3.1272,-3.1286,-3.2066,-3.2548,-3.2922,-3.2686,-3.2646,-3.2685,-3.2685,-3.2685,-3.2685,-3.2685,-3.2725,-3.2842,-3.3391,-3.3587,-3.3506,-3.3316,-3.3392,-3.3475,-3.281,-3.1527,-3.017,-3.017,-2.8806,-2.7262,-2.7262,-2.7081,-2.6805,-2.6602,-2.6294,-2.6004,-2.583,-2.5732,-2.583,-2.61,-2.6197,-2.6294,-2.6805,-2.69,-2.69,-2.69,-2.5089,-2.3484,-2.3094,-2.1081,-1.968,-1.968,-1.948,-1.9279,-1.9279,-1.9279,-1.9279,-1.9279,-1.8701,-1.8335,-1.8299,-1.7743,-1.7391,-1.7333,-1.7611,-1.7545,-1.6986,-1.6979,-1.6204,-1.4663,-1.3601,-1.2436,-1.117,-1.0109,-0.9628,0.0,0.0,0.0,0.0,0.0,0.0,0.0,0.0,0.0,0.0,0.0,0.0,0.0,0.0,0.0,0.0,0.0,0.0,0.0,0.0,0.0,0.0,0.0,0.0,0.0,0.0,0.0,0.0,0.0,0.0,0.0,0.0,0.0,-3.038,-3.0613,-3.0672,-3.0672,-3.1296,-3.1522,0.0,-3.1347,-3.1198,-3.1061,-3.1268,-3.1559,-3.2019,-3.2019,-3.228,-3.2685,-3.2685,-3.2685,-3.2685,-3.2685,-3.2986,-3.3417,-3.3548,-3.3506,-3.3316,-3.3044,-3.2887,-3.281,-3.2432,-3.1342,-3.017,-3.017,-2.8806,-2.7262,-2.7262,-2.7081,-2.6805,-2.6602,-2.6294,-2.61,-2.6004,-2.6004,-2.61,-2.64,-2.6602,-2.6794,-2.69,-2.7081,-2.7177,-2.69,-2.5089,-2.2994,-2.0783,-2.0078,-1.9576,-1.9376,-1.9376,-1.9279,-1.9279,-1.9279,-1.9279,-1.9279,-1.8913,-1.8577,-1.8321,-1.8174,-1.7867,-1.7347,-1.7399,-1.7211,-1.6683,-1.6683,-1.592,-1.4388,-1.3312,-1.2242,-1.117,-1.0109,-0.9628,0.0,0.0,0.0,0.0,0.0,0.0,0.0,0.0,0.0,0.0,0.0,0.0,0.0,0.0,0.0,0.0,0.0,0.0,0.0,0.0,0.0,0.0,0.0,0.0,0.0,0.0,0.0,0.0,0.0,0.0,0.0,-2.9358,-2.9418,-2.9719,-2.9791,-2.9994,-3.027,-3.0658,-3.0948,-3.1123,-3.1123,-3.1136,-3.0986,-3.0986,-3.1143,-3.1431,-3.1431,-3.1601,-3.1875,-3.1875,-3.1875,-3.1875,-3.1461,-3.1733,-3.2372,-3.2236,-3.2426,-3.2781,-3.2256,-3.2447,-3.2782,-3.1571,-3.0703,-3.0079,-2.9624,-2.8445,-2.7262,-2.7262,-2.7081,-2.6805,-2.6602,-2.6294,-2.61,-2.5917,-2.5917,-2.6014,-2.6602,-2.6699,-2.6794,-2.7081,-2.7167,-2.7262,-2.7081,-2.5187,-2.2785,-2.0285,-1.9783,-1.968,-1.948,-1.9376,-1.9279,-1.9279,-1.9279,-1.9213,-1.906,-1.8745,-1.8382,-1.8123,-1.7826,-1.7476,-1.7187,-1.7037,-1.6864,-1.6588,-1.6494,-1.5927,-1.5064,-1.3998,-1.3221,-1.2635,-1.0984,-1.0207,0.0,0.0,0.0,0.0,0.0,0.0,0.0,0.0,0.0,0.0,0.0,0.0,0.0,0.0,0.0,0.0,0.0,0.0,0.0,0.0,0.0,0.0,0.0,0.0,0.0,0.0,0.0,0.0,0.0,0.0,-2.8085,-2.866,-2.8974,-2.8974,-2.9065,-2.9353,-2.9823,-2.9941,-3.0228,-3.0686,-3.079,-3.083,-3.0843,-3.0934,-3.0986,-3.0986,-3.0823,-3.0748,-3.0748,-3.0583,-3.0583,-3.0508,-2.9781,-2.9998,-3.0714,-3.0394,-3.1019,-3.1855,-3.114,-3.1619,-3.2394,-3.0459,-2.9823,-2.967,-2.887,-2.8017,-2.7262,-2.7262,-2.7081,-2.6805,-2.6602,-2.6294,-2.6004,-2.583,-2.5732,-2.5936,-2.6709,-2.6699,-2.6688,-2.7167,-2.7156,-2.686,-2.6658,-2.4777,-2.2492,-2.0285,-1.9776,-1.968,-1.968,-1.948,-1.9279,-1.9279,-1.9279,-1.9169,-1.8891,-1.8577,-1.8166,-1.7924,-1.7373,-1.6954,-1.6952,-1.6626,-1.6494,-1.6494,-1.6312,-1.6028,-1.5832,-1.4777,-1.4298,-1.4292,-1.2047,-1.0979,0.0,0.0,0.0,0.0,0.0,0.0,0.0,0.0,0.0,0.0,0.0,0.0,0.0,0.0,0.0,0.0,0.0,0.0,0.0,0.0,0.0,0.0,0.0,0.0,0.0,0.0,0.0,0.0,0.0,0.0,-2.6896,-2.7445,-2.7758,-2.7758,-2.8242,-2.8543,-2.8621,-2.9131,-2.9431,-2.951,-3.0006,-3.0255,-3.0268,-3.0764,-3.0986,-3.0986,-3.0177,-2.9858,-2.9781,-2.9057,-2.8743,-2.8743,-2.8585,-2.8955,-2.9472,-2.9289,-2.9699,-3.0239,-2.9571,-2.9571,-2.9782,-2.9148,-2.8683,-2.8272,-2.8091,-2.7761,-2.7262,-2.7262,-2.7081,-2.6805,-2.6602,-2.6294,-2.61,-2.61,-2.5917,-2.583,-2.641,-2.6699,-2.689,-2.7262,-2.635,-2.5158,-2.4079,-2.2584,-2.1081,-1.968,-1.9376,-1.9376,-1.9376,-1.9272,-1.9279,-1.9279,-1.9279,-1.9257,-1.9213,-1.8716,-1.821,-1.7938,-1.7379,-1.6882,-1.6651,-1.6427,-1.6218,-1.6218,-1.6224,-1.6028,-1.5832,-1.4777,-1.4298,-1.4298,-1.2829,-1.1658,0.0,0.0,0.0,0.0,0.0,0.0,0.0,0.0,0.0,0.0,0.0,0.0,0.0,0.0,0.0,0.0,0.0,0.0,0.0,0.0,0.0,0.0,0.0,0.0,0.0,0.0,0.0,0.0,0.0,-2.5863,-2.6177,-2.6739,-2.6896,-2.6582,-2.7118,-2.7432,-2.7432,-2.8007,-2.8621,-2.9274,-2.9607,-2.9895,-3.015,-3.0385,-3.0449,-3.0266,-2.9858,-2.9459,-2.89,-2.8585,-2.8426,-2.8347,-2.7879,-2.8101,-2.8533,-2.7965,-2.8316,-2.8986,-2.8398,-2.8526,-2.8818,-2.7815,-2.7546,-2.7599,-2.6971,-2.6676,-2.6548,-2.6619,-2.6513,-2.6279,-2.6234,-2.611,-2.5917,-2.5917,-2.583,-2.583,-2.6207,-2.6496,-2.6794,-2.6986,-2.6061,-2.4856,-2.3285,-2.2089,-2.0885,-1.948,-1.9279,-1.9279,-1.9279,-1.9279,-1.9279,-1.9279,-1.9175,-1.9005,-1.8825,-1.8202,-1.776,-1.7434,-1.687,-1.6525,-1.6457,-1.6109,-1.6028,-1.6028,-1.6028,-1.5927,-1.5832,-1.535,-1.5064,-1.4962,-1.3607,-1.2344,0.0,0.0,0.0,0.0,0.0,0.0,0.0,0.0,0.0,0.0,0.0,0.0,0.0,0.0,0.0,0.0,0.0,0.0,0.0,0.0,0.0,0.0,0.0,0.0,0.0,0.0,0.0,0.0,0.0,-2.4957,-2.5244,-2.6009,-2.6127,-2.5553,-2.6164,-2.6452,-2.6452,-2.7027,-2.7812,-2.8677,-2.9118,-2.9416,-2.9693,-2.9849,-2.9748,-2.949,-2.9397,-2.89,-2.8119,-2.7879,-2.7799,-2.7718,-2.701,-2.708,-2.7383,-2.6565,-2.6885,-2.7656,-2.6948,-2.73,-2.777,-2.6399,-2.6368,-2.6678,-2.5978,-2.5792,-2.5877,-2.6044,-2.5845,-2.5714,-2.5948,-2.5838,-2.5742,-2.5742,-2.5742,-2.583,-2.61,-2.64,-2.6699,-2.69,-2.5781,-2.4365,-2.3085,-2.1684,-2.0483,-1.948,-1.9279,-1.9279,-1.9279,-1.9279,-1.9272,-1.9175,-1.8974,-1.874,-1.8316,-1.7865,-1.7362,-1.7018,-1.6483,-1.6204,-1.6152,-1.5945,-1.5832,-1.5832,-1.5737,-1.5737,-1.5737,-1.5737,-1.5642,-1.5356,-1.4292,-1.3119,0.0,0.0,0.0,0.0,0.0,0.0,0.0,0.0,0.0,0.0,0.0,0.0,0.0,0.0,0.0,0.0,0.0,0.0,0.0,0.0,0.0,0.0,0.0,0.0,0.0,0.0,0.0,0.0,0.0,-2.4304,-2.3744,-2.4955,-2.5353,-2.4758,-2.5501,-2.5876,-2.5876,-2.6553,-2.6933,-2.7012,-2.8198,-2.867,-2.849,-2.9065,-2.9155,-2.8838,-2.859,-2.8039,-2.7185,-2.6373,-2.6063,-2.5979,-2.5812,-2.5728,-2.5633,-2.52,-2.5538,-2.6135,-2.5041,-2.5211,-2.5812,-2.4903,-2.4892,-2.5264,-2.5264,-2.5396,-2.5655,-2.5594,-2.5623,-2.556,-2.5486,-2.5622,-2.5742,-2.5742,-2.5742,-2.583,-2.64,-2.6699,-2.69,-2.69,-2.4992,-2.3285,-2.2985,-2.0987,-1.9376,-1.9272,-1.9279,-1.9279,-1.9279,-1.9279,-1.9175,-1.8974,-1.8876,-1.8636,-1.8098,-1.7763,-1.7305,-1.6737,-1.6468,-1.6132,-1.5865,-1.5838,-1.5832,-1.5832,-1.5635,-1.554,-1.554,-1.554,-1.5356,-1.5083,-1.479,-1.41,0.0,0.0,0.0,0.0,0.0,0.0,0.0,0.0,0.0,0.0,0.0,0.0,0.0,0.0,0.0,0.0,0.0,0.0,0.0,0.0,0.0,0.0,0.0,0.0,0.0,0.0,0.0,0.0,0.0,0.0,-2.3628,-2.4407,-2.4696,-2.4188,-2.478,-2.514,-2.5275,-2.5656,-2.613,-2.6803,-2.7288,-2.7881,-2.8386,-2.8608,-2.8278,-2.7629,-2.777,-2.7652,-2.7103,-2.6218,-2.5812,-2.5728,-2.5644,-2.5391,-2.5126,-2.4946,-2.5031,-2.5031,-2.4625,-2.47,-2.4935,-2.4615,-2.4567,-2.4702,-2.4625,-2.4651,-2.4659,-2.4665,-2.4585,-2.4742,-2.512,-2.529,-2.5381,-2.5674,-2.5742,-2.583,-2.6197,-2.6496,-2.64,-2.5499,-2.4088,-2.2785,-2.1785,-2.0285,-1.9279,-1.9279,-1.9279,-1.9279,-1.9279,-1.9279,-1.9095,-1.859,-1.8458,-1.8119,-1.7507,-1.7,-1.6697,-1.6488,-1.6189,-1.5939,-1.5832,-1.5832,-1.573,-1.5635,-1.554,-1.554,-1.554,-1.5363,-1.5077,-1.4885,-1.479,-1.4004,0.0,0.0,0.0,0.0,0.0,0.0,0.0,0.0,0.0,0.0,0.0,0.0,0.0,0.0,0.0,0.0,0.0,0.0,0.0,0.0,0.0,0.0,0.0,0.0,0.0,0.0,0.0,0.0,0.0,0.0,-2.3424,-2.3854,-2.4086,-2.3903,-2.43,-2.4601,-2.478,-2.5037,-2.5524,-2.6225,-2.667,-2.7262,-2.7811,-2.8007,-2.7691,-2.7005,-2.7034,-2.6816,-2.6363,-2.5986,-2.5644,-2.5464,-2.5391,-2.5211,-2.4861,-2.4786,-2.4615,-2.454,-2.454,-2.454,-2.454,-2.454,-2.4454,-2.4368,-2.4206,-2.411,-2.3998,-2.3929,-2.394,-2.4096,-2.4585,-2.4853,-2.5137,-2.5439,-2.5625,-2.5732,-2.5917,-2.6207,-2.5994,-2.4688,-2.3583,-2.2484,-2.1081,-1.9975,-1.9279,-1.9279,-1.9279,-1.9279,-1.9279,-1.9175,-1.8991,-1.8466,-1.8037,-1.7687,-1.7184,-1.6599,-1.6319,-1.6413,-1.6046,-1.5872,-1.5972,-1.5879,-1.573,-1.554,-1.5452,-1.5356,-1.5255,-1.5077,-1.479,-1.4592,-1.4592,-1.3811,0.0,0.0,0.0,0.0,0.0,0.0,0.0,0.0,0.0,0.0,0.0,0.0,0.0,0.0,0.0,0.0,0.0,0.0,0.0,0.0,0.0,0.0,0.0,0.0,0.0,0.0,0.0,0.0,0.0,-2.2477,-2.304,-2.3271,-2.3509,-2.3865,-2.3995,-2.4144,-2.4266,-2.4873,-2.5189,-2.5216,-2.6351,-2.6776,-2.6687,-2.7262,-2.7404,-2.7205,-2.6347,-2.5516,-2.4837,-2.5333,-2.5454,-2.52,-2.4946,-2.4861,-2.4861,-2.4625,-2.454,-2.454,-2.454,-2.454,-2.454,-2.4454,-2.4368,-2.4206,-2.4206,-2.3851,-2.3503,-2.3503,-2.3634,-2.3769,-2.3789,-2.4434,-2.5088,-2.5068,-2.541,-2.5732,-2.5635,-2.582,-2.5693,-2.4688,-2.3583,-2.2383,-2.1081,-1.9983,-1.9279,-1.9279,-1.9279,-1.9279,-1.9279,-1.9078,-1.8757,-1.8415,-1.795,-1.7463,-1.723,-1.66,-1.6386,-1.666,-1.6146,-1.5959,-1.6246,-1.5985,-1.5737,-1.5445,-1.5172,-1.4987,-1.4688,-1.4688,-1.4592,-1.4298,-1.4298,-1.3516,-1.9547,0.0,0.0,0.0,0.0,0.0,0.0,0.0,0.0,0.0,0.0,0.0,0.0,0.0,0.0,0.0,0.0,0.0,0.0,0.0,0.0,0.0,0.0,0.0,0.0,0.0,0.0,0.0,-2.1158,-2.1587,-2.3027,-2.3271,-2.3331,-2.3097,-2.367,-2.3787,-2.3516,-2.4105,-2.4616,-2.5035,-2.5769,-2.6332,-2.6687,-2.7129,-2.6709,-2.5634,-2.5587,-2.4941,-2.3879,-2.4662,-2.4975,-2.4946,-2.4946,-2.4786,-2.4615,-2.454,-2.454,-2.454,-2.454,-2.454,-2.4454,-2.4368,-2.4292,-2.412,-2.3764,-2.359,-2.3503,-2.3232,-2.3232,-2.3389,-2.3711,-2.4668,-2.5469,-2.5146,-2.541,-2.5528,-2.4707,-2.459,-2.4393,-2.3285,-2.219,-2.1089,-1.9983,-1.948,-1.9279,-1.9279,-1.9279,-1.9279,-1.9078,-1.8974,-1.8575,-1.7922,-1.7723,-1.7293,-1.6652,-1.6366,-1.6219,-1.6079,-1.5919,-1.577,-1.5754,-1.5586,-1.535,-1.4975,-1.4879,-1.4694,-1.4394,-1.4394,-1.4394,-1.4298,-1.3919,-1.3534,0.0,0.0,0.0,0.0,0.0,0.0,0.0,-1.9408,0.0,0.0,0.0,0.0,0.0,0.0,0.0,0.0,0.0,0.0,0.0,0.0,0.0,0.0,0.0,0.0,0.0,0.0,0.0,-2.1064,-2.0544,-2.0948,-2.2506,-2.3017,-2.3179,-2.3038,-2.3302,-2.3418,-2.336,-2.3579,-2.3917,-2.4562,-2.5197,-2.5641,-2.5981,-2.6321,-2.5766,-2.4601,-2.4606,-2.4091,-2.3244,-2.3939,-2.4439,-2.47,-2.47,-2.4625,-2.454,-2.454,-2.454,-2.454,-2.454,-2.4464,-2.4378,-2.4206,-2.4034,-2.3851,-2.359,-2.3416,-2.3319,-2.3144,-2.3135,-2.3242,-2.3682,-2.4482,-2.5071,-2.4593,-2.4707,-2.4716,-2.3692,-2.3085,-2.2584,-2.1988,-2.1285,-2.0585,-1.948,-1.9279,-1.9279,-1.9279,-1.9175,-1.9078,-1.8869,-1.866,-1.8373,-1.7777,-1.7429,-1.7083,-1.676,-1.6299,-1.6119,-1.6192,-1.587,-1.5688,-1.5717,-1.5415,-1.5166,-1.4694,-1.4688,-1.4496,-1.401,-1.4202,-1.4202,-1.3919,-1.3244,-1.2856,0.0,0.0,0.0,0.0,0.0,0.0,-1.8728,-1.8533,-1.8522,0.0,0.0,0.0,0.0,0.0,0.0,0.0,0.0,0.0,0.0,0.0,0.0,0.0,0.0,0.0,0.0,-1.9739,-2.0036,-2.0754,-2.0485,-2.0724,-2.1725,-2.2628,-2.3113,-2.3242,-2.3,-2.309,-2.3526,-2.3206,-2.336,-2.3903,-2.458,-2.4962,-2.494,-2.5046,-2.473,-2.4013,-2.3602,-2.3188,-2.2919,-2.3248,-2.3856,-2.4478,-2.4519,-2.454,-2.454,-2.454,-2.454,-2.454,-2.4454,-2.4368,-2.4206,-2.411,-2.3851,-2.3503,-2.3503,-2.3319,-2.3135,-2.3135,-2.3174,-2.3291,-2.3633,-2.3971,-2.4121,-2.3481,-2.3605,-2.352,-2.2524,-2.1558,-2.0885,-2.079,-2.068,-2.038,-1.948,-1.9279,-1.9279,-1.9279,-1.9078,-1.8876,-1.8764,-1.8338,-1.8016,-1.7911,-1.719,-1.6847,-1.7081,-1.6346,-1.5989,-1.6573,-1.5829,-1.5562,-1.5713,-1.5306,-1.4885,-1.4688,-1.4688,-1.4304,-1.3539,-1.4016,-1.3919,-1.3443,-1.2467,-1.198,0.0,0.0,0.0,0.0,0.0,0.0,-1.9117,-1.9,-1.884,0.0,0.0,0.0,0.0,0.0,0.0,0.0,0.0,0.0,0.0,0.0,0.0,0.0,0.0,0.0,0.0,-1.6846,-1.7693,-1.9292,-2.1116,-2.1872,-2.1202,-2.2305,-2.2817,-2.2498,-2.2989,-2.3191,-2.2949,-2.3282,-2.3513,-2.3641,-2.4326,-2.4584,-2.4622,-2.4744,-2.4414,-2.3677,-2.3274,-2.3111,-2.314,-2.3234,-2.3597,-2.4043,-2.4405,-2.454,-2.454,-2.454,-2.454,-2.4454,-2.4282,-2.4206,-2.412,-2.3764,-2.359,-2.3503,-2.3232,-2.3144,-2.3135,-2.3135,-2.3389,-2.3603,-2.333,-2.3276,-2.3112,-2.2677,-2.25,-2.2128,-2.1047,-2.0881,-2.0688,-1.9783,-1.9576,-1.9583,-1.9376,-1.9279,-1.9279,-1.8974,-1.8974,-1.8764,-1.8233,-1.8023,-1.7911,-1.7687,-1.7371,-1.6987,-1.6807,-1.6216,-1.5835,-1.5717,-1.5421,-1.5102,-1.4961,-1.4815,-1.4688,-1.4394,-1.4394,-1.4112,-1.3539,-1.3636,-1.3443,-1.2958,-1.2273,-1.198,0.0,0.0,0.0,-1.9889,0.0,0.0,0.0,-1.8767,0.0,0.0,0.0,0.0,0.0,0.0,0.0,0.0,0.0,0.0,0.0,0.0,0.0,0.0,0.0,0.0,0.0,-1.7101,-1.7606,-1.8638,-2.0375,-2.1031,-2.0193,-2.1407,-2.2078,-2.1982,-2.2225,-2.2518,-2.2854,-2.275,-2.2949,-2.3509,-2.385,-2.3905,-2.3552,-2.3658,-2.3327,-2.2624,-2.2453,-2.245,-2.2511,-2.2749,-2.3122,-2.3598,-2.4281,-2.454,-2.454,-2.454,-2.4454,-2.4378,-2.4206,-2.4034,-2.3851,-2.359,-2.3416,-2.3319,-2.3144,-2.3135,-2.3135,-2.3135,-2.3301,-2.3368,-2.2815,-2.2656,-2.2399,-2.1362,-2.1122,-2.0949,-1.9868,-1.9611,-1.958,-1.9146,-1.8837,-1.8772,-1.9049,-1.9078,-1.8966,-1.875,-1.8548,-1.8338,-1.8023,-1.7911,-1.7745,-1.7382,-1.7101,-1.6807,-1.6308,-1.5921,-1.5602,-1.5274,-1.5077,-1.4885,-1.4694,-1.4592,-1.4298,-1.3919,-1.3919,-1.3534,-1.2759,-1.2759,-1.2662,-1.237,-1.1883,-1.1585,0.0,0.0,0.0,0.0,0.0,-1.9369,0.0,0.0,0.0,0.0,0.0,0.0,0.0,0.0,0.0,0.0,0.0,0.0,0.0,0.0,0.0,0.0,0.0,0.0,0.0,-1.7734,-1.7923,-1.804,-1.9239,-1.9727,-1.9242,-2.0437,-2.125,-2.1365,-2.1248,-2.1579,-2.2457,-2.1944,-2.2176,-2.3078,-2.333,-2.3175,-2.2665,-2.2643,-2.2309,-2.1793,-2.1808,-2.1859,-2.1963,-2.2335,-2.2822,-2.3391,-2.4126,-2.4467,-2.454,-2.4454,-2.4378,-2.4206,-2.412,-2.3851,-2.3503,-2.3416,-2.3319,-2.3135,-2.3135,-2.3135,-2.3047,-2.2872,-2.2862,-2.2675,-2.2089,-2.1706,-2.1226,-1.9941,-1.9705,-1.9568,-1.8699,-1.8398,-1.8352,-1.8647,-1.8313,-1.8175,-1.8708,-1.8764,-1.8653,-1.8325,-1.8115,-1.8016,-1.7911,-1.764,-1.7408,-1.7181,-1.6733,-1.6328,-1.5895,-1.5512,-1.5261,-1.5083,-1.479,-1.4592,-1.4592,-1.4304,-1.3919,-1.3539,-1.3443,-1.2953,-1.198,-1.198,-1.198,-1.1883,-1.1389,-1.1194,0.0,0.0,0.0,0.0,-2.0635,0.0,0.0,0.0,0.0,0.0,0.0,0.0,0.0,0.0,0.0,0.0,0.0,0.0,0.0,0.0,0.0,0.0,0.0,0.0,0.0,0.0,-1.6867,-1.6403,-1.8312,-1.9277,-1.8812,-1.9816,-2.0462,-2.0462,-2.0606,-2.0733,-2.0846,-2.1362,-2.1758,-2.2075,-2.2714,-2.2899,-2.2771,-2.2619,-2.2374,-2.206,-2.187,-2.2035,-2.2418,-2.248,-2.3008,-2.3805,-2.3919,-2.4198,-2.4454,-2.4282,-2.4206,-2.411,-2.3764,-2.3503,-2.3503,-2.3232,-2.3135,-2.3135,-2.3135,-2.3135,-2.296,-2.205,-2.1872,-2.1615,-2.0654,-1.9662,-1.8767,-1.8629,-1.7963,-1.744,-1.735,-1.7682,-1.8006,-1.7767,-1.7915,-1.8065,-1.8373,-1.8429,-1.8325,-1.8122,-1.8016,-1.7911,-1.7687,-1.7459,-1.7188,-1.6859,-1.6354,-1.5908,-1.5594,-1.5036,-1.4783,-1.479,-1.449,-1.4394,-1.4394,-1.3823,-1.3539,-1.3539,-1.3055,-1.2565,-1.198,-1.198,-1.178,-1.1292,-1.1194,-1.1194,0.0,0.0,0.0,0.0,0.0,0.0,-2.0012,0.0,-1.9541,0.0,0.0,0.0,0.0,0.0,0.0,0.0,0.0,0.0,0.0,0.0,0.0,0.0,0.0,0.0,0.0,0.0,0.0,0.0,0.0,-1.8032,-1.7933,-1.8764,-1.9286,-1.9552,-1.9801,-2.0109,-2.0386,-2.05,-2.0751,-2.1175,-2.1479,-2.1469,-2.1057,-2.1364,-2.1374,-2.1092,-2.1271,-2.1662,-2.2097,-2.1943,-2.2323,-2.2919,-2.2767,-2.3349,-2.4282,-2.4024,-2.3851,-2.3764,-2.359,-2.3406,-2.3232,-2.3144,-2.3135,-2.3135,-2.3135,-2.2589,-2.1943,-2.1578,-2.0953,-2.0223,-1.9222,-1.8588,-1.8048,-1.7505,-1.7201,-1.7147,-1.7147,-1.7162,-1.7258,-1.7306,-1.7172,-1.7134,-1.7327,-1.7736,-1.7915,-1.7772,-1.7799,-1.7634,-1.7355,-1.7131,-1.6823,-1.638,-1.5927,-1.5524,-1.5067,-1.4852,-1.4592,-1.4496,-1.4394,-1.4202,-1.3823,-1.3636,-1.3249,-1.2662,-1.2467,-1.2078,-1.159,-1.159,-1.1389,-1.1194,-1.1194,-1.1194,-2.1087,0.0,0.0,0.0,0.0,0.0,0.0,0.0,0.0,0.0,0.0,0.0,0.0,0.0,0.0,0.0,0.0,0.0,0.0,0.0,0.0,0.0,0.0,0.0,0.0,0.0,0.0,-1.6546,-1.6924,-1.7166,-1.7383,-1.7996,-1.8395,-1.871,-1.8973,-1.9286,-1.9683,-1.9597,-1.9788,-2.0268,-2.0579,-2.0464,-1.9985,-2.0671,-2.0872,-2.0638,-2.1104,-2.1497,-2.1807,-2.1578,-2.1778,-2.2206,-2.201,-2.2724,-2.3851,-2.367,-2.3567,-2.3503,-2.3416,-2.3232,-2.3135,-2.3135,-2.296,-2.2687,-2.2687,-2.1863,-2.0854,-2.0576,-1.9852,-1.8856,-1.7855,-1.7584,-1.7311,-1.6676,-1.6661,-1.6732,-1.6732,-1.6704,-1.6613,-1.6749,-1.6464,-1.6339,-1.6553,-1.7042,-1.734,-1.7526,-1.7395,-1.7295,-1.7071,-1.681,-1.6345,-1.5718,-1.542,-1.5099,-1.461,-1.4592,-1.44,-1.4112,-1.4106,-1.3823,-1.3346,-1.3152,-1.2759,-1.198,-1.1883,-1.1585,-1.1194,-1.1194,-1.1194,-1.1194,-1.1194,-1.1194,0.0,0.0,0.0,-2.0954,0.0,0.0,0.0,0.0,-2.04,0.0,0.0,0.0,0.0,0.0,0.0,-1.75,0.0,0.0,0.0,0.0,0.0,0.0,0.0,0.0,0.0,0.0,0.0,-1.6227,-1.6775,-1.7166,-1.7383,-1.7764,-1.7998,-1.8008,-1.8066,-1.8066,-1.8076,-1.87,-1.9156,-1.9365,-2.0204,-2.0587,-2.049,-2.117,-2.1304,-2.1124,-2.158,-2.1797,-2.1807,-2.1578,-2.1778,-2.2237,-2.2179,-2.2472,-2.2973,-2.2973,-2.3146,-2.3503,-2.3232,-2.3144,-2.3135,-2.3135,-2.2511,-2.1695,-2.1695,-2.0881,-1.9704,-1.8796,-1.8326,-1.7855,-1.6857,-1.6494,-1.6218,-1.6224,-1.6035,-1.5845,-1.5845,-1.6066,-1.6192,-1.5912,-1.6079,-1.6279,-1.6286,-1.6526,-1.682,-1.7121,-1.6921,-1.6739,-1.6819,-1.6253,-1.5692,-1.5189,-1.4861,-1.4598,-1.4298,-1.4298,-1.4106,-1.3539,-1.3539,-1.3346,-1.2861,-1.2273,-1.2078,-1.198,-1.1487,-1.1198,-1.1194,-1.1194,-1.1194,-1.1194,-1.1194,-1.1194,0.0,0.0,-2.0444,-2.0837,0.0,0.0,0.0,0.0,0.0,0.0,0.0,0.0,0.0,0.0,0.0,-1.7736,-1.7842,0.0,0.0,0.0,0.0,0.0,0.0,0.0,0.0,0.0,0.0,-1.6192,-1.6389,-1.6792,0.0,-1.7246,-1.7295,-1.7588,-1.7598,-1.7598,-1.7598,-1.8063,-1.8395,-1.8462,-1.8854,-1.9292,-1.963,-1.9993,-2.0542,-2.1124,-2.1141,-2.1302,-2.1578,-2.1205,-2.131,-2.172,-2.1558,-2.1967,-2.2634,-2.2918,-2.3114,-2.3232,-2.3135,-2.3135,-2.296,-2.2413,-2.1863,-2.1311,-2.0701,-1.9521,-1.8326,-1.8056,-1.7217,-1.6473,-1.6109,-1.6021,-1.5933,-1.5933,-1.5832,-1.5832,-1.5832,-1.5905,-1.5952,-1.5845,-1.5912,-1.5979,-1.5979,-1.5963,-1.6097,-1.678,-1.6572,-1.638,-1.6182,-1.5703,-1.5218,-1.4843,-1.4641,-1.4394,-1.4298,-1.401,-1.3539,-1.3055,-1.3055,-1.2856,-1.2273,-1.2078,-1.178,-1.1487,-1.1292,-1.1194,-1.1194,-1.1194,-1.1096,-1.0904,-1.0904,-1.0998,-2.0964,-2.0592,0.0,-2.0672,-2.0438,0.0,-2.0498,0.0,0.0,0.0,0.0,0.0,0.0,0.0,0.0,-1.7963,-1.7956,-1.7898,0.0,-1.7373,0.0,0.0,0.0,0.0,0.0,0.0,-1.6252,-1.6506,-1.6637,-1.6901,0.0,0.0,-1.7314,-1.7598,-1.7607,-1.7607,-1.7607,-1.7871,-1.8008,-1.8008,-1.8202,-1.8566,-1.9143,-1.9445,-2.0135,-2.0903,-2.0927,-2.1085,-2.1369,-2.1221,-2.1293,-2.15,-2.1654,-2.2021,-2.2549,-2.2812,-2.3008,-2.3057,-2.3057,-2.2775,-2.2403,-2.1784,-2.0953,-2.0034,-1.9513,-1.8334,-1.716,-1.7283,-1.6571,-1.5852,-1.5959,-1.5905,-1.5832,-1.5832,-1.5832,-1.5832,-1.5832,-1.5832,-1.5832,-1.5832,-1.5832,-1.5737,-1.573,-1.5635,-1.5704,-1.6275,-1.6077,-1.5783,-1.5686,-1.5199,-1.488,-1.461,-1.4394,-1.4202,-1.401,-1.3534,-1.3055,-1.2565,-1.2565,-1.2273,-1.1785,-1.1683,-1.1658,-1.1416,-1.1269,-1.1269,-1.1416,-1.1269,-1.1096,-1.0801,-1.0801,-1.0801]},{"header":{"parameterUnit":"m.s-1","parameterCategory":1,"la1":30.6,"la2":29.2853,"lo1":-89.7004,"lo2":-87.6739,"dy":0.0162,"dx":0.0183,"nx":112,"ny":82,"refTime":"2023-06-27T06:00:00:Z","depth":0,"parameterNumber":3,"parameterNumberName":"V-component_of_WINDS"},"data":[0.0,0.0,0.0,0.0,0.0,0.0,0.0,0.0,0.0,0.0,0.0,0.0,0.0,0.0,0.0,0.0,0.0,0.0,0.0,0.0,0.0,0.0,0.0,0.0,0.0,0.0,0.0,0.0,0.0,0.0,0.0,0.0,0.0,0.0,0.0,0.0,0.0,0.0,0.0,0.0,0.0,0.0,0.0,0.0,0.0,0.0,0.0,0.0,0.0,0.0,0.0,0.0,0.0,0.0,0.0,0.0,0.0,0.0,0.0,0.0,0.0,0.0,0.0,0.0,0.0,0.0,0.0,0.0,0.0,0.0,0.0,0.0,0.0,0.0,0.0,0.0,0.0,0.0,0.0,0.0,0.0,0.0,0.0,0.0,0.0,0.0,0.0,0.0,0.0,0.0,0.0,-2.6524,-3.0236,-3.2564,-3.268,-3.1835,-2.988,-2.6584,0.0,0.0,0.0,0.0,0.0,0.0,0.0,0.0,0.0,0.0,0.0,0.0,0.0,0.0,0.0,0.0,0.0,0.0,0.0,0.0,0.0,0.0,0.0,0.0,0.0,0.0,0.0,0.0,0.0,0.0,0.0,0.0,0.0,0.0,0.0,0.0,0.0,0.0,0.0,0.0,0.0,0.0,0.0,0.0,0.0,0.0,0.0,0.0,0.0,0.0,0.0,0.0,0.0,0.0,0.0,0.0,0.0,0.0,0.0,0.0,0.0,0.0,0.0,0.0,0.0,0.0,0.0,0.0,0.0,0.0,0.0,0.0,0.0,0.0,0.0,0.0,0.0,0.0,0.0,0.0,0.0,0.0,0.0,0.0,0.0,0.0,0.0,0.0,0.0,0.0,0.0,0.0,0.0,0.0,0.0,0.0,0.0,0.0,0.0,0.0,0.0,0.0,0.0,0.0,-2.5893,-2.8622,-3.0642,-3.2034,-3.263,-3.0874,-2.9003,-2.7251,0.0,0.0,0.0,0.0,0.0,0.0,0.0,0.0,0.0,0.0,0.0,0.0,0.0,0.0,0.0,0.0,0.0,0.0,0.0,0.0,0.0,0.0,0.0,0.0,0.0,0.0,0.0,0.0,0.0,0.0,0.0,0.0,0.0,0.0,0.0,0.0,0.0,0.0,0.0,0.0,0.0,0.0,0.0,0.0,0.0,0.0,0.0,0.0,0.0,0.0,0.0,0.0,0.0,0.0,0.0,0.0,0.0,0.0,0.0,0.0,0.0,0.0,0.0,0.0,0.0,0.0,0.0,0.0,0.0,0.0,0.0,0.0,0.0,0.0,0.0,0.0,0.0,0.0,0.0,0.0,0.0,0.0,0.0,0.0,0.0,0.0,0.0,0.0,0.0,0.0,0.0,0.0,0.0,0.0,0.0,0.0,0.0,0.0,0.0,0.0,0.0,0.0,0.0,-2.5344,-2.6687,-2.9152,-3.0013,-3.0725,-3.1454,-2.9499,-2.7644,-2.6187,-2.5094,0.0,0.0,0.0,0.0,0.0,0.0,0.0,0.0,0.0,0.0,0.0,0.0,0.0,0.0,0.0,0.0,0.0,0.0,0.0,0.0,0.0,0.0,0.0,0.0,0.0,0.0,0.0,0.0,0.0,0.0,0.0,0.0,0.0,0.0,0.0,0.0,0.0,0.0,0.0,0.0,0.0,0.0,0.0,0.0,0.0,0.0,0.0,0.0,0.0,0.0,0.0,0.0,0.0,0.0,0.0,0.0,0.0,0.0,0.0,0.0,0.0,0.0,0.0,0.0,0.0,0.0,0.0,0.0,0.0,0.0,0.0,0.0,0.0,0.0,0.0,0.0,0.0,0.0,0.0,0.0,0.0,0.0,0.0,0.0,0.0,0.0,0.0,0.0,0.0,0.0,0.0,0.0,0.0,0.0,0.0,0.0,0.0,0.0,0.0,0.0,0.0,0.0,-2.5955,-2.6717,-2.8688,-2.9069,-2.94,-2.9963,-2.786,-2.6104,-2.5176,-2.3918,0.0,0.0,0.0,0.0,0.0,0.0,0.0,0.0,0.0,0.0,0.0,0.0,0.0,0.0,0.0,0.0,0.0,0.0,0.0,0.0,0.0,0.0,0.0,0.0,0.0,0.0,0.0,0.0,0.0,0.0,0.0,0.0,0.0,0.0,0.0,0.0,0.0,0.0,0.0,0.0,0.0,0.0,0.0,0.0,0.0,0.0,0.0,0.0,0.0,0.0,0.0,0.0,0.0,0.0,0.0,0.0,0.0,0.0,0.0,0.0,0.0,0.0,0.0,0.0,0.0,0.0,0.0,0.0,0.0,0.0,0.0,0.0,0.0,0.0,0.0,0.0,0.0,0.0,0.0,0.0,0.0,0.0,0.0,0.0,0.0,0.0,0.0,0.0,0.0,0.0,0.0,0.0,0.0,0.0,0.0,0.0,0.0,0.0,0.0,0.0,0.0,0.0,-2.5193,-2.5756,-2.73,-2.808,-2.8472,-2.8522,-2.5889,-2.4481,-2.5077,-2.2477,0.0,0.0,0.0,0.0,0.0,0.0,0.0,0.0,0.0,0.0,0.0,0.0,0.0,0.0,0.0,0.0,0.0,0.0,0.0,0.0,0.0,0.0,0.0,0.0,0.0,0.0,0.0,0.0,0.0,0.0,0.0,0.0,0.0,0.0,0.0,0.0,0.0,0.0,0.0,0.0,0.0,0.0,0.0,0.0,0.0,0.0,0.0,0.0,0.0,0.0,0.0,0.0,0.0,0.0,0.0,0.0,0.0,0.0,0.0,0.0,0.0,0.0,0.0,0.0,0.0,0.0,0.0,0.0,0.0,0.0,0.0,0.0,0.0,0.0,0.0,0.0,0.0,0.0,0.0,0.0,0.0,0.0,0.0,0.0,0.0,0.0,0.0,0.0,0.0,0.0,0.0,0.0,0.0,0.0,0.0,0.0,0.0,0.0,0.0,0.0,0.0,0.0,-2.5508,-2.617,0.0,-2.7131,-2.7197,-2.7682,-2.5425,-2.4116,-2.4398,0.0,0.0,0.0,0.0,0.0,0.0,0.0,0.0,0.0,0.0,0.0,0.0,0.0,0.0,0.0,0.0,0.0,0.0,0.0,0.0,0.0,0.0,0.0,0.0,0.0,0.0,0.0,0.0,0.0,0.0,0.0,0.0,0.0,0.0,0.0,0.0,0.0,0.0,0.0,0.0,0.0,0.0,0.0,0.0,0.0,0.0,0.0,0.0,0.0,0.0,0.0,0.0,0.0,0.0,0.0,0.0,0.0,0.0,0.0,0.0,0.0,0.0,0.0,0.0,0.0,0.0,0.0,0.0,0.0,0.0,0.0,0.0,0.0,0.0,0.0,0.0,0.0,0.0,0.0,0.0,0.0,0.0,0.0,0.0,0.0,0.0,0.0,0.0,0.0,0.0,0.0,0.0,0.0,0.0,0.0,0.0,0.0,0.0,0.0,0.0,0.0,0.0,-2.473,-2.5227,-2.5942,0.0,-2.6557,-2.6438,-2.6955,-2.473,-2.3603,-2.4299,0.0,0.0,0.0,0.0,0.0,0.0,0.0,0.0,0.0,0.0,0.0,0.0,0.0,0.0,0.0,0.0,0.0,0.0,0.0,0.0,0.0,0.0,0.0,0.0,0.0,0.0,0.0,0.0,0.0,0.0,0.0,0.0,0.0,0.0,0.0,0.0,0.0,0.0,0.0,0.0,0.0,0.0,0.0,0.0,0.0,0.0,0.0,0.0,0.0,0.0,0.0,0.0,0.0,0.0,0.0,0.0,0.0,0.0,0.0,0.0,0.0,0.0,0.0,0.0,0.0,0.0,0.0,0.0,0.0,0.0,0.0,0.0,0.0,0.0,0.0,0.0,0.0,0.0,0.0,0.0,0.0,0.0,0.0,0.0,0.0,0.0,0.0,0.0,0.0,0.0,0.0,0.0,0.0,0.0,0.0,0.0,0.0,0.0,0.0,0.0,0.0,0.0,-2.393,-2.4178,-2.4778,-2.6334,-2.6382,-2.6295,-2.6279,-2.3534,-2.2742,0.0,0.0,0.0,0.0,0.0,0.0,0.0,0.0,0.0,0.0,0.0,0.0,0.0,0.0,0.0,0.0,0.0,0.0,0.0,0.0,0.0,0.0,0.0,0.0,0.0,0.0,0.0,0.0,0.0,0.0,0.0,0.0,0.0,0.0,0.0,0.0,0.0,0.0,0.0,0.0,0.0,0.0,0.0,0.0,0.0,0.0,0.0,0.0,0.0,0.0,0.0,0.0,0.0,0.0,0.0,0.0,0.0,0.0,0.0,0.0,0.0,0.0,0.0,0.0,0.0,0.0,0.0,0.0,0.0,0.0,0.0,0.0,0.0,0.0,0.0,0.0,0.0,0.0,0.0,0.0,0.0,0.0,0.0,0.0,0.0,0.0,0.0,0.0,0.0,0.0,0.0,0.0,0.0,0.0,0.0,0.0,0.0,0.0,0.0,0.0,0.0,0.0,0.0,-2.4812,-2.4996,-2.5364,-2.6385,-2.645,-2.6216,-2.5647,-2.3781,-2.3181,-2.4396,0.0,0.0,0.0,0.0,0.0,0.0,0.0,0.0,0.0,0.0,0.0,0.0,0.0,0.0,0.0,0.0,0.0,0.0,0.0,0.0,0.0,0.0,0.0,0.0,0.0,0.0,0.0,0.0,0.0,0.0,0.0,0.0,0.0,0.0,0.0,0.0,0.0,0.0,0.0,0.0,0.0,0.0,0.0,0.0,0.0,0.0,0.0,0.0,0.0,0.0,0.0,0.0,0.0,0.0,0.0,0.0,0.0,0.0,0.0,0.0,0.0,0.0,0.0,0.0,0.0,0.0,0.0,0.0,0.0,0.0,0.0,0.0,0.0,0.0,0.0,0.0,0.0,0.0,0.0,0.0,0.0,0.0,0.0,0.0,0.0,0.0,0.0,0.0,0.0,0.0,0.0,0.0,0.0,0.0,0.0,0.0,0.0,0.0,0.0,0.0,0.0,0.0,-2.5438,-2.5242,-2.5395,-2.6454,-2.6554,-2.6201,-2.5447,-2.4227,-2.3694,-2.416,0.0,0.0,0.0,0.0,0.0,0.0,0.0,0.0,0.0,0.0,0.0,0.0,0.0,0.0,0.0,0.0,0.0,0.0,0.0,0.0,0.0,0.0,0.0,0.0,0.0,0.0,0.0,0.0,0.0,0.0,0.0,0.0,0.0,0.0,0.0,0.0,0.0,0.0,0.0,0.0,0.0,0.0,0.0,0.0,0.0,0.0,0.0,0.0,0.0,0.0,0.0,0.0,0.0,0.0,0.0,0.0,0.0,0.0,0.0,0.0,0.0,0.0,0.0,0.0,0.0,0.0,0.0,0.0,0.0,0.0,0.0,0.0,0.0,0.0,0.0,0.0,0.0,0.0,0.0,0.0,0.0,0.0,0.0,0.0,0.0,0.0,0.0,0.0,0.0,0.0,0.0,0.0,0.0,0.0,0.0,0.0,0.0,0.0,0.0,0.0,0.0,0.0,-2.5836,-2.5221,-2.5118,-2.6539,-2.6657,-2.6303,-2.5579,-2.4725,-2.4225,-2.4257,0.0,0.0,0.0,0.0,0.0,0.0,0.0,0.0,0.0,0.0,0.0,0.0,0.0,0.0,0.0,0.0,0.0,0.0,0.0,0.0,0.0,0.0,0.0,0.0,0.0,0.0,0.0,0.0,0.0,0.0,0.0,0.0,0.0,0.0,0.0,0.0,0.0,0.0,0.0,0.0,0.0,0.0,0.0,0.0,0.0,0.0,0.0,0.0,0.0,0.0,0.0,0.0,0.0,0.0,0.0,0.0,0.0,0.0,0.0,0.0,-1.7543,0.0,0.0,0.0,0.0,0.0,0.0,0.0,0.0,0.0,0.0,0.0,0.0,0.0,0.0,0.0,0.0,0.0,0.0,0.0,0.0,0.0,0.0,0.0,0.0,0.0,0.0,0.0,0.0,0.0,0.0,0.0,0.0,0.0,0.0,0.0,0.0,0.0,0.0,0.0,0.0,0.0,-2.64,-2.5861,-2.571,-2.659,-2.6708,-2.637,-2.5644,-2.482,-2.4475,-2.4714,-2.4018,0.0,0.0,0.0,0.0,0.0,0.0,0.0,0.0,0.0,0.0,0.0,0.0,0.0,0.0,0.0,0.0,0.0,0.0,0.0,0.0,0.0,0.0,0.0,0.0,0.0,0.0,0.0,0.0,0.0,0.0,0.0,0.0,0.0,0.0,0.0,0.0,0.0,0.0,0.0,0.0,0.0,0.0,0.0,0.0,0.0,0.0,0.0,0.0,0.0,0.0,0.0,0.0,0.0,0.0,0.0,0.0,0.0,0.0,0.0,0.0,-1.964,0.0,0.0,0.0,0.0,0.0,0.0,0.0,0.0,0.0,0.0,0.0,0.0,0.0,0.0,0.0,0.0,0.0,0.0,0.0,0.0,0.0,0.0,0.0,0.0,0.0,0.0,0.0,0.0,0.0,0.0,0.0,0.0,0.0,0.0,0.0,0.0,0.0,0.0,0.0,0.0,-2.7057,-2.6243,-2.5879,-2.6623,-2.6691,-2.6404,-2.5659,-2.5222,-2.4896,-2.4735,-2.443,0.0,0.0,0.0,0.0,0.0,0.0,0.0,0.0,0.0,0.0,0.0,0.0,0.0,0.0,0.0,0.0,0.0,0.0,0.0,0.0,0.0,0.0,0.0,0.0,0.0,0.0,0.0,0.0,0.0,0.0,0.0,0.0,0.0,0.0,0.0,0.0,0.0,0.0,0.0,0.0,0.0,0.0,0.0,0.0,0.0,0.0,0.0,0.0,0.0,0.0,0.0,0.0,0.0,-2.2504,-2.3215,-2.375,-2.454,-2.506,-2.5135,-2.2941,-2.179,-2.1449,-2.2332,0.0,0.0,0.0,0.0,0.0,0.0,0.0,0.0,0.0,0.0,0.0,0.0,0.0,0.0,0.0,0.0,0.0,0.0,0.0,0.0,0.0,0.0,0.0,0.0,-2.7908,-2.8141,0.0,0.0,0.0,0.0,0.0,0.0,0.0,0.0,0.0,0.0,0.0,0.0,-2.7452,-2.6745,-2.637,-2.6843,-2.6894,-2.659,-2.5862,-2.5741,-2.5465,-2.488,-2.4959,-2.5202,0.0,0.0,0.0,0.0,0.0,0.0,0.0,0.0,0.0,0.0,0.0,0.0,0.0,0.0,0.0,0.0,0.0,0.0,0.0,0.0,0.0,0.0,0.0,0.0,0.0,0.0,0.0,0.0,0.0,0.0,0.0,0.0,-1.4222,-1.445,0.0,0.0,0.0,0.0,0.0,0.0,0.0,0.0,0.0,0.0,0.0,0.0,0.0,-2.1103,-2.1543,-2.2373,-2.2832,-2.29,-2.3722,-2.4436,-2.5076,-2.5162,-2.5498,-2.6028,-2.6565,0.0,-2.439,-2.3317,0.0,0.0,0.0,0.0,0.0,0.0,0.0,0.0,0.0,0.0,0.0,0.0,0.0,0.0,0.0,0.0,0.0,0.0,0.0,0.0,0.0,0.0,-2.8812,-2.7913,-2.9042,-2.9959,0.0,-2.8037,-2.7542,-2.7341,0.0,0.0,0.0,0.0,0.0,0.0,0.0,0.0,-2.6926,-2.7843,-2.8315,-2.774,-2.7637,-2.7368,-2.6623,-2.6236,-2.6083,-2.6243,-2.5879,-2.5808,-2.6069,-2.6087,0.0,0.0,0.0,0.0,0.0,0.0,0.0,0.0,0.0,0.0,0.0,0.0,0.0,0.0,0.0,0.0,0.0,0.0,0.0,0.0,0.0,0.0,0.0,0.0,0.0,0.0,0.0,0.0,0.0,-1.5018,-1.5936,-1.5258,-1.645,-1.7156,0.0,0.0,0.0,0.0,0.0,0.0,0.0,0.0,0.0,-2.1487,-2.2697,-2.3477,-2.3672,-2.4287,-2.4844,-2.5312,-2.6014,-2.694,-2.8004,-2.8287,-2.8869,-2.9712,-2.9809,-2.9234,-2.8098,-2.6057,-2.5103,-2.4936,0.0,0.0,0.0,0.0,-2.5389,-2.6535,-2.638,-2.7046,0.0,0.0,0.0,0.0,0.0,0.0,0.0,0.0,0.0,0.0,0.0,0.0,0.0,-3.0707,-3.1741,-3.2757,-3.2705,-3.1719,-3.0246,0.0,-2.7585,-2.7604,-2.81,0.0,0.0,0.0,0.0,0.0,-2.8211,-2.9012,-2.947,-2.9124,-2.8691,-2.831,-2.7964,-2.7361,-2.7046,-2.7163,-2.673,-2.6315,-2.6002,-2.611,-2.6149,0.0,0.0,0.0,0.0,0.0,0.0,0.0,0.0,0.0,0.0,0.0,0.0,0.0,0.0,0.0,0.0,0.0,0.0,0.0,0.0,0.0,0.0,0.0,0.0,0.0,0.0,0.0,0.0,-1.6129,-1.7046,-1.5835,-1.7403,-1.8229,0.0,0.0,0.0,0.0,0.0,0.0,-2.1257,-2.2339,-2.3124,-2.3563,-2.501,-2.5732,-2.5732,-2.6064,-2.6553,-2.7178,-2.7933,-2.8926,-3.0308,-3.092,-3.1681,-3.2454,-3.2064,-3.1491,-3.0741,-2.8313,-2.6851,-2.6151,-2.5466,-2.5421,-2.564,-2.5691,-2.6614,-2.798,-2.8507,-2.9425,-3.0367,-3.016,0.0,-2.8876,-2.7825,0.0,0.0,0.0,0.0,-2.8962,-3.0033,-3.1774,-3.3371,-3.3591,-3.4393,-3.5182,-3.5537,-3.4607,-3.2797,0.0,-2.9262,-2.9262,-2.9262,0.0,0.0,0.0,0.0,-2.9728,-2.9532,-3.0172,-3.0592,-3.0398,-2.9646,-2.9101,-2.8908,-2.8229,-2.78,-2.78,-2.7353,-2.6742,-2.5947,-2.5888,-2.5606,-2.5009,0.0,0.0,0.0,0.0,0.0,0.0,0.0,0.0,0.0,0.0,0.0,0.0,0.0,0.0,0.0,0.0,0.0,0.0,0.0,0.0,0.0,0.0,0.0,0.0,0.0,0.0,0.0,0.0,0.0,-1.5835,-1.8146,0.0,0.0,0.0,0.0,-2.0415,-2.126,-2.222,-2.3306,-2.437,-2.5411,-2.6464,-2.7172,-2.7539,-2.7539,-2.7559,-2.7588,-2.7637,-2.8706,-2.9806,-3.0821,-3.1788,-3.2357,-3.2491,-3.2701,-3.2235,-3.1294,-2.8973,-2.8034,-2.7821,-2.6405,-2.6168,-2.6642,-2.6451,-2.7092,-2.8126,-2.8586,-2.9007,-2.9711,-3.101,-3.0971,-3.0283,-2.9624,-2.9469,0.0,0.0,-2.9613,-3.0701,-3.0998,-3.2886,-3.498,-3.5741,-3.634,-3.6485,-3.5774,-3.4996,-3.4167,0.0,-3.1461,-3.004,-3.004,0.0,-2.838,-2.8414,-2.9959,-3.0838,-3.0149,-3.1331,-3.193,-3.121,-3.0419,-2.9681,-2.8961,-2.8415,-2.8075,-2.8075,-2.7641,-2.7031,-2.6217,-2.5461,-2.5045,-2.5009,-2.5045,0.0,0.0,0.0,0.0,0.0,0.0,0.0,0.0,0.0,0.0,0.0,0.0,0.0,0.0,0.0,0.0,0.0,0.0,0.0,0.0,0.0,0.0,0.0,0.0,0.0,0.0,0.0,0.0,-1.9191,-2.0998,0.0,-2.0915,-2.153,-2.2129,-2.2536,-2.3683,-2.4805,-2.5713,-2.6934,-2.7764,-2.8126,-2.8926,-2.9297,-2.9297,-2.875,-2.8613,-2.8887,-2.9459,-3.0303,-3.1313,-3.2101,-3.2753,-3.3452,-3.295,-3.2609,-3.2211,-3.1051,-3.0198,-2.9591,-2.8333,-2.8015,-2.8261,-2.7857,-2.8937,-3.062,-3.0355,-3.1309,-3.2568,-3.1752,-3.1061,-3.0387,-2.9759,-2.9864,-3.0223,-3.0417,-3.1278,-3.2373,-3.3741,-3.4446,-3.5118,-3.6296,-3.6291,-3.6096,-3.6315,-3.6163,-3.5876,-3.5622,-3.3372,-3.1664,-3.2138,-3.0851,-2.973,-2.973,-3.0558,-3.112,-3.1075,-3.1994,-3.261,-3.2629,-3.1894,-3.1088,-3.0299,-2.9602,-2.8755,-2.7702,-2.7488,-2.6819,-2.5479,-2.5153,-2.4755,-2.423,-2.423,-2.5052,0.0,0.0,0.0,0.0,0.0,0.0,0.0,0.0,0.0,0.0,0.0,0.0,0.0,0.0,0.0,0.0,0.0,0.0,0.0,0.0,0.0,0.0,0.0,0.0,0.0,0.0,-2.1438,-2.1695,-2.3281,-2.4042,-2.3235,-2.3662,-2.4192,-2.4704,-2.5794,-2.6871,-2.7832,-2.8818,-2.9424,-2.958,-3.0137,-3.0293,-2.999,-2.9424,-2.9141,-2.9131,-3.0011,-3.0856,-3.1666,-3.2757,-3.3419,-3.3753,-3.3228,-3.281,-3.2601,-3.2228,-3.1851,-3.1336,-3.0206,-2.9831,-2.9909,-2.9391,-3.0259,-3.1707,-3.1723,-3.2933,-3.4262,-3.2961,-3.2063,-3.1435,-3.1031,-3.1195,-3.1614,-3.2063,-3.2734,-3.3717,-3.5329,-3.5819,-3.6046,-3.7034,-3.6784,-3.6535,-3.706,-3.6958,-3.6924,-3.7432,-3.5301,-3.3491,-3.3728,-3.2405,-3.1401,-3.164,-3.1585,-3.1716,-3.2339,-3.2556,-3.2813,-3.3334,-3.2564,-3.1722,-3.1057,-3.0496,-2.9391,-2.7526,-2.7417,-2.6693,-2.5063,-2.5009,-2.4755,-2.4212,-2.4465,-2.5052,-2.594,0.0,0.0,0.0,0.0,0.0,0.0,0.0,0.0,0.0,0.0,0.0,0.0,0.0,0.0,0.0,0.0,0.0,0.0,0.0,0.0,0.0,0.0,0.0,-1.9347,-2.1484,-2.2939,-2.2984,-2.484,-2.5748,-2.4968,-2.5459,-2.6171,-2.6882,-2.7514,-2.8433,-2.959,-3.0,-3.042,-3.0879,-3.0889,-3.0478,-2.9619,-2.958,-2.915,-2.833,-3.0567,-3.1575,-3.1677,-3.3808,-3.4282,-3.3332,-3.3308,-3.2968,-3.2449,-3.2412,-3.2649,-3.2968,-3.1851,-3.1399,-3.1323,-3.1036,-3.0899,-3.1164,-3.2454,-3.3624,-3.4502,-3.4502,-3.4083,-3.3559,-3.3559,-3.3559,-3.3559,-3.3559,-3.4045,-3.4728,-3.5661,-3.6822,-3.7801,-3.8044,-3.8003,-3.7905,-3.7905,-3.733,-3.7246,-3.8684,-3.7161,-3.5419,-3.4692,-3.3652,-3.3175,-3.3842,-3.3012,0.0,-3.3819,-3.2981,-3.2603,-3.337,-3.2403,-3.1506,-3.1066,-3.1039,-2.9989,-2.7526,-2.7399,-2.6693,-2.5063,-2.5009,-2.5009,-2.5009,-2.5823,-2.5905,-2.5269,0.0,0.0,0.0,0.0,0.0,0.0,0.0,0.0,0.0,0.0,0.0,0.0,0.0,0.0,0.0,0.0,0.0,0.0,0.0,0.0,0.0,0.0,-2.1374,-2.1475,-2.3098,-2.4711,-2.5876,-2.7279,-2.8063,-2.7763,-2.8585,-2.9278,-2.9422,-3.0036,-3.0616,-3.0967,-3.0801,-3.0762,-3.0889,-3.0889,-3.0771,-3.0527,-2.9893,-2.9453,-2.9209,-3.0874,-3.1575,-3.1677,-3.3808,-3.4679,-3.4366,-3.3609,-3.33,-3.3223,-3.2631,-3.2562,-3.2735,-3.2193,-3.1738,-3.1323,-3.0876,-3.1228,-3.2117,-3.3297,-3.4278,-3.5011,-3.5155,-3.51,-3.4951,-3.4951,-3.4951,-3.4951,-3.4951,-3.516,-3.5583,-3.6381,-3.6848,-3.7302,-3.7923,-3.8003,-3.7905,-3.7905,-3.7736,-3.7719,-3.8125,-3.7263,-3.64,-3.618,-3.5026,-3.376,-3.2876,-3.2502,0.0,-3.2721,-3.2474,-3.2816,-3.4147,-3.3954,-3.3268,-3.1981,-3.1872,-3.0333,-2.6765,-2.7091,-2.6693,-2.5063,-2.5009,-2.5009,-2.5009,-2.6413,-2.7035,0.0,0.0,0.0,0.0,0.0,0.0,0.0,0.0,0.0,0.0,0.0,0.0,0.0,0.0,0.0,0.0,0.0,0.0,0.0,0.0,0.0,0.0,-2.2098,-2.3382,-2.4235,-2.5179,-2.6261,-2.7536,-2.8569,-2.9238,-2.9105,-3.004,-3.0496,-3.0421,-3.0905,-3.1307,-3.126,-3.0898,-3.0762,-3.0889,-3.0762,-3.0665,-3.0605,-3.0635,-3.0409,-3.0038,-3.183,-3.2487,-3.2286,-3.4017,-3.4715,0.0,-3.3645,-3.3337,-3.3411,-3.2656,-3.2562,0.0,0.0,0.0,0.0,0.0,-3.1524,-3.2393,-3.3031,-3.4124,-3.5213,-3.5359,-3.5439,-3.5504,-3.5504,-3.5504,-3.5504,-3.5504,-3.5554,-3.5703,-3.6228,-3.6801,-3.7343,-3.7546,-3.8002,-3.8362,-3.8362,-3.8362,-3.8447,-3.8751,-3.8227,0.0,-3.7297,-3.5723,-3.4303,-3.3761,-3.3152,-3.2923,-3.3428,-3.2927,-3.302,-3.4203,-3.4047,-3.3262,-3.1818,-3.1999,0.0,0.0,0.0,-2.7345,-2.6059,-2.6023,0.0,0.0,0.0,-2.7307,-2.6981,0.0,0.0,0.0,-2.7677,-2.7934,0.0,0.0,0.0,0.0,0.0,0.0,0.0,0.0,0.0,0.0,0.0,0.0,0.0,0.0,0.0,0.0,-2.384,-2.5106,-2.704,-2.7352,-2.7646,-2.837,-2.9037,-2.9515,-2.9633,-3.0294,-3.0758,-3.0565,-3.0873,-3.1149,-3.0986,0.0,0.0,0.0,0.0,-3.0442,-3.0273,-3.1268,-3.1364,-3.0688,-3.2771,-3.3536,-3.3201,-3.4323,-3.4571,-3.4102,-3.3597,-3.3344,-3.3248,-3.2707,-3.2698,-3.3068,-3.3006,-3.2943,-3.2754,-3.177,-3.1823,-3.2321,-3.2393,0.0,0.0,-3.5213,-3.5294,-3.5439,-3.5504,-3.5504,-3.5504,-3.5504,-3.5504,-3.5554,-3.5638,-3.6753,-3.7646,-3.7118,-3.8091,-3.9106,-3.9106,-3.9106,-3.9309,-3.9952,-3.9495,-3.8785,-3.8142,-3.6214,-3.4912,-3.5419,-3.437,-3.3896,-3.4833,-3.3744,-3.3184,-3.3967,0.0,0.0,-3.1281,-3.1808,-3.0876,-2.7743,-2.8117,-2.8135,-2.7435,-2.7508,-2.7508,-2.7417,-2.7508,-2.7229,-2.6636,-2.6658,-2.7145,-2.8058,-2.8517,-2.8448,0.0,0.0,0.0,0.0,0.0,0.0,0.0,0.0,0.0,0.0,0.0,0.0,0.0,0.0,0.0,-2.3684,-2.5161,-2.6591,-2.7967,-2.8434,-2.8691,-2.8847,-2.9333,-2.9814,-3.0313,-3.1105,-3.1617,-3.1823,-3.1871,-3.1846,-3.1416,-3.0957,-3.0889,-3.0889,-3.0889,-3.084,-3.0752,-3.0266,-3.0359,-3.1133,0.0,0.0,-3.3201,-3.4323,-3.4775,-3.4643,-3.4126,-3.3877,-3.3801,-3.3273,-3.3045,-3.3031,-3.2554,-3.2102,-3.1707,-3.1639,-3.1863,-3.229,-3.3003,-3.3948,-3.4831,-3.5082,-3.5213,-3.5294,-3.5439,-3.5504,0.0,-3.5504,-3.5504,-3.5554,-3.5638,-3.6753,-3.7774,-3.7785,-3.8887,-3.9868,-3.9868,-3.9868,-3.9918,-4.0054,-3.9495,-3.8954,-3.8802,-3.7415,-3.596,-3.4878,-3.4472,-3.4287,-3.4197,-3.3434,-3.3318,-3.4373,-3.4054,-3.3416,-3.2532,-3.2306,-3.1093,-2.8515,-2.7881,-2.7556,-2.7417,-2.8008,-2.8044,-2.7393,-2.8026,-2.8304,-2.8166,-2.8264,-2.8755,-2.9533,-2.7852,-2.7695,0.0,0.0,0.0,0.0,0.0,0.0,0.0,0.0,0.0,0.0,0.0,-2.0757,0.0,0.0,-2.3563,-2.5399,-2.6353,-2.7306,-2.8517,-2.8856,-2.9094,-2.9213,-2.9517,-2.9996,-3.0472,-3.1165,-3.1609,-3.1562,-3.1728,-3.166,-3.123,-3.0879,-3.0762,-3.0889,-3.0762,-3.0762,-3.0889,-3.0887,-3.1185,-3.2028,-3.2586,-3.3241,-3.4017,-3.4531,-3.4823,-3.4799,-3.427,-3.3929,-3.3753,-3.3214,-3.2972,-3.3056,-3.2754,-3.2139,-3.143,-3.1529,-3.1793,-3.2146,-3.2648,-3.3604,-3.4765,-3.4949,-3.5148,-3.5228,-3.5439,-3.5504,-3.5504,-3.5504,-3.5504,-3.5504,-3.5604,-3.6477,-3.7472,-3.779,-3.8778,-3.9747,-4.002,-4.007,-4.007,-4.007,-3.9783,-3.9411,-3.9056,-3.8379,-3.7381,-3.5859,-3.5301,-3.5016,-3.4815,-3.4346,-3.4202,-3.4801,-3.4162,-3.3436,-3.2838,-3.169,-3.0477,-2.9282,-2.8811,-2.8431,-2.8008,-2.9174,-2.9427,-2.8612,-2.9391,-2.9807,-2.9834,-2.9963,-3.0214,-3.0611,-2.952,-2.9269,0.0,0.0,0.0,0.0,0.0,0.0,0.0,0.0,-1.998,-2.0611,-2.1266,-2.2155,-2.3107,-2.3773,-2.4769,-2.6885,-2.7242,-2.7691,-2.8819,-2.892,-2.8983,-2.9446,-2.9639,-2.996,-3.0497,-3.1062,-3.1258,-3.1035,-3.1328,-3.1338,-3.0791,-3.0635,-3.0635,-3.0762,-3.0635,-3.0635,-3.0889,-3.1564,-3.218,-3.2888,-3.3571,-3.4217,-3.4823,-3.4823,-3.4823,-3.4787,-3.4257,-3.3832,-3.3637,-3.2995,-3.2896,-3.3081,-3.3081,-3.2453,-3.1549,-3.17,-3.1993,-3.225,-3.2395,-3.3424,-3.4698,-3.4868,-3.5001,-3.5213,-3.5439,-3.5504,-3.5504,-3.5504,-3.5504,-3.5504,-3.5504,-3.6211,-3.7071,-3.7648,-3.8518,-3.9365,-3.9969,-4.007,-4.007,-4.007,-4.007,-3.9884,-3.9309,-3.9089,-3.8548,-3.7195,-3.6468,-3.6062,-3.6062,-3.571,-3.5444,-3.5444,-3.4488,-3.36,-3.2973,-3.1286,-3.0188,-3.0025,-3.0025,-2.9735,-2.9101,-3.0314,-3.0695,-3.0069,-3.0659,-3.103,-3.1084,-3.1164,-3.1316,-3.1495,-3.1451,-3.1181,-1.7573,-1.7059,-1.7025,-1.7837,-1.8303,-1.9213,0.0,0.0,-2.1859,-2.2735,-2.3311,-2.3749,-2.4086,-2.4837,-2.5756,-2.7022,-2.7471,-2.7994,-2.8865,-2.8682,-2.8686,-2.9266,-2.947,-2.9936,-3.0892,-3.0978,-3.1117,-3.1445,-3.1484,-3.12,-3.0528,-3.0645,-3.0762,-3.0509,-3.0762,-3.0889,-3.0889,-3.1147,-3.1864,-3.2888,-3.3118,-3.3866,-3.4823,-3.4823,-3.4823,-3.4775,-3.4247,-3.3968,-3.3924,-3.3271,-3.3068,-3.3081,-3.3081,-3.2679,-3.2198,-3.2916,-3.3053,-3.2935,-3.3637,-3.4086,-3.4481,-3.4802,-3.4935,-3.5001,-3.5359,-3.5504,-3.5504,-3.5504,-3.5504,-3.5504,-3.5504,-3.6211,-3.7071,-3.7648,-3.8518,-3.9365,-3.9969,-4.007,-4.007,-4.007,-4.007,-4.0054,-3.9969,-3.9411,-3.8717,-3.7905,-3.7702,-3.7652,-3.7652,-3.7039,-3.661,-3.661,-3.5907,-3.4871,-3.3454,-3.2459,-3.1618,-3.0894,-3.0858,-3.0822,-3.0731,-3.0894,-3.0948,-3.0858,-3.0948,-3.0985,-3.1012,-3.1137,-3.1563,-3.2265,-3.1664,-3.1476,-1.8009,-1.793,0.0,0.0,-1.9476,-2.1039,-2.2135,-2.2817,-2.3472,-2.4038,-2.4557,-2.4906,-2.5236,-2.5658,-2.6182,0.0,-2.7508,-2.7884,-2.8223,-2.8132,-2.8085,-2.794,-2.8145,-2.8729,-3.0073,-3.0354,-3.0616,-3.0752,-3.1006,-3.1074,-3.0655,-3.0772,-3.0889,-3.0645,-3.0889,-3.0889,-3.0889,-3.0442,-3.1179,-3.2888,-3.2447,-3.3201,-3.4823,-3.4823,-3.4823,-3.4775,-3.3917,-3.3735,-3.3924,-3.3007,-3.2822,-3.3081,-3.3081,-3.293,-3.2764,-3.2746,-3.2751,-3.2969,-3.3266,-3.3846,-3.4414,-3.4683,-3.4817,-3.4935,-3.5228,-3.5439,-3.5504,-3.5504,-3.5504,-3.5504,-3.5604,-3.6006,-3.6662,-3.7674,-3.8318,-3.8957,-3.9901,-4.007,-4.007,-4.007,-4.007,-4.007,-4.007,-3.9817,-3.9529,-3.9225,-3.8447,-3.7905,-3.7905,-3.7635,-3.7403,-3.7244,-3.629,-3.531,-3.4512,-3.3057,-3.2053,-3.1709,-3.1691,-3.1473,-3.1021,-3.189,-3.218,-3.1709,-3.2162,-3.2397,-3.2397,-3.252,-3.2766,-3.3076,-3.2892,-3.2932,-1.8291,0.0,0.0,-1.9344,-2.1151,-2.3065,-2.3192,-2.403,-2.4951,-2.5327,-2.5405,-2.5622,-2.6019,-2.5874,-2.6109,-2.7068,-2.7325,-2.7554,-2.7893,-2.7554,-2.716,-2.6995,-2.6842,-2.7237,-2.8623,-2.9394,-2.9844,-2.9844,-3.0371,-3.0703,-3.0587,-3.082,-3.0889,-3.0762,-3.0889,-3.0889,-3.0889,-3.0787,-3.1402,-3.2888,-3.2786,-3.3438,-3.4823,-3.4823,-3.4823,-3.4775,-3.3823,-3.3642,-3.3924,-3.2919,-3.2736,-3.3081,-3.3081,-3.3081,-3.3091,-3.2668,-3.2776,-3.3111,-3.3186,-3.3761,-3.4414,-3.4631,-3.4934,-3.52,-3.5414,-3.5627,-3.5774,-3.5774,-3.5639,-3.5554,-3.5638,-3.5831,-3.6321,-3.7499,-3.8019,-3.8574,-3.9627,-3.9969,-4.007,-4.007,-4.007,-4.007,-4.007,-4.007,-4.007,-4.007,-3.9174,-3.8514,-3.8514,-3.8514,-3.8401,-3.8102,-3.7172,-3.645,-3.6167,-3.4317,-3.3194,-3.3194,-3.2777,-3.227,-3.1691,-3.2777,-3.314,-3.2542,-3.3103,-3.3393,-3.3393,-3.352,-3.3605,-3.3605,-3.3726,-3.3895,0.0,0.0,-2.0822,-2.1938,-2.3606,-2.5074,-2.5582,-2.6011,-2.6342,-2.6534,-2.5991,-2.562,-2.5968,-2.5436,-2.5457,-2.6976,-2.6866,-2.704,-2.8214,-2.7013,-2.6217,-2.6614,-2.5645,-2.5385,0.0,-2.7978,-2.8955,-2.8955,-2.9736,-3.011,-2.9901,-3.0538,-3.0762,-3.0392,-3.0762,-3.0889,-3.0889,-3.2616,-3.3226,-3.2888,-3.4699,-3.5218,-3.4823,-3.4823,-3.4823,-3.4763,-3.3905,-3.3722,-3.3924,-3.3083,-3.281,-3.3081,-3.3081,-3.3081,-3.3091,-3.332,-3.3516,-3.3742,-3.3942,-3.4213,-3.4414,-3.4631,-3.5242,-3.5946,-3.6096,-3.6313,-3.6462,-3.6462,-3.5998,-3.5554,-3.5638,-3.5831,-3.6211,-3.6951,-3.7706,-3.8446,-3.9082,-3.9696,-4.007,-4.007,-4.007,-4.007,-4.007,-4.007,-4.007,-4.007,-4.0037,-4.0003,-4.0003,-4.0003,-3.9914,-3.9588,-3.9225,-3.886,-3.8534,-3.6748,-3.5693,-3.5693,-3.4226,-3.3357,-3.3339,-3.3375,-3.3393,-3.3357,-3.3393,-3.3393,-3.3393,-3.352,-3.3605,-3.3605,-3.3726,-3.3788,-1.9307,0.0,-2.2475,-2.2978,-2.4538,-2.6041,-2.6627,-2.7122,-2.7313,-2.6884,-2.6351,-2.5784,-2.5154,-2.5055,-2.5273,-2.5776,-2.6587,-2.7253,-2.7178,-2.7169,-2.6673,-2.5349,-2.5477,0.0,0.0,0.0,0.0,-2.8467,-2.9297,-2.9902,-3.0081,-3.0644,-3.0889,-3.0762,-3.0889,-3.1228,-3.2133,-3.2413,-3.3019,-3.4042,-3.4787,-3.5004,-3.4823,-3.4823,-3.4823,-3.4775,-3.3823,-3.3642,-3.3924,-3.2919,-3.2736,-3.3043,-3.2654,-3.2503,-3.2596,-3.3463,-3.3745,-3.3873,-3.4029,-3.4484,-3.498,-3.4627,-3.5122,-3.5819,-3.5459,-3.554,-3.5833,-3.5833,-3.5669,-3.5554,-3.5846,-3.5973,-3.6211,-3.7103,-3.7838,-3.8463,-3.9082,-3.9696,-4.007,-4.007,-4.007,-4.007,-4.007,-4.007,-4.007,-4.007,-4.007,-4.007,-4.007,-4.007,-4.0169,-4.0345,-3.9625,-3.9159,-3.9391,-3.815,-3.7395,-3.7395,-3.6381,-3.5783,-3.5783,-3.4751,-3.4208,-3.4208,-3.3665,-3.3393,-3.3393,-3.352,-3.3605,-3.3605,-3.3726,-3.3895,-2.0894,-2.2537,-2.4072,-2.4716,-2.5947,-2.7223,-2.7699,-2.7746,-2.7484,-2.6911,-2.6015,-2.5124,-2.4297,-2.3953,-2.4076,-2.5022,-2.5572,-2.6188,-2.6992,-2.6806,-2.6318,-2.5515,-2.5538,-2.5404,0.0,0.0,0.0,-2.7783,-2.8916,-2.9687,-2.9961,-3.0557,-3.0889,-3.0889,-3.1344,-3.1903,-3.2685,-3.3253,-3.4073,-3.5212,-3.492,-3.4823,-3.4823,-3.4823,-3.4727,-3.4499,-3.3739,-3.3533,-3.3654,-3.2845,-3.2736,-3.3043,-3.2667,-3.239,-3.2306,-3.3395,-3.3892,-3.3963,-3.4393,-3.4923,-3.5325,-3.4685,-3.5107,-3.5819,-3.5473,-3.557,-3.5863,-3.5863,-3.5684,-3.5569,-3.591,-3.5973,-3.6163,-3.6892,-3.7679,-3.8407,-3.8794,-3.9523,-4.007,-4.007,-4.007,-4.007,-4.007,-4.007,-4.007,-4.007,-4.007,-4.007,-4.007,-4.007,-4.0221,-4.0531,-4.0162,-4.0092,-4.0382,-3.9552,-3.8898,-3.8645,-3.7594,-3.6852,-3.658,-3.5584,-3.5041,-3.5041,-3.4534,-3.4117,-3.3828,-3.4229,-3.4152,-3.3623,-3.4358,-3.4537,-2.2899,-2.4156,-2.5666,-2.7059,-2.7972,-2.8472,-2.866,-2.7994,-2.7192,-2.644,-2.4967,-2.3664,0.0,0.0,-2.2029,-2.4651,-2.4051,-2.4382,-2.7555,-2.6049,-2.5248,0.0,0.0,0.0,0.0,0.0,0.0,-2.7153,0.0,-2.9662,-2.9813,-3.0535,-3.1005,-3.1122,-3.2123,-3.2799,-3.2913,-3.5079,-3.6308,-3.635,-3.5316,-3.4823,-3.4823,-3.4823,-3.4535,-3.4018,-3.3675,-3.3418,-3.315,-3.286,-3.2896,-3.3081,-3.3043,-3.2679,-3.2351,-3.3395,-3.3829,-3.4114,-3.5139,-3.5529,-3.5412,-3.4893,-3.5301,-3.5937,-3.6096,-3.6283,-3.6432,-3.6432,-3.5983,-3.5569,-3.591,-3.5973,-3.61,-3.6429,-3.7445,-3.8278,-3.8278,-3.9242,-4.007,-4.007,-4.007,-4.007,-4.007,-4.007,-4.007,-4.007,-4.007,-4.007,-4.007,-4.007,-4.007,-4.007,-4.0955,-4.1464,-4.1429,-4.0942,-4.0293,-3.9514,-3.8011,-3.6816,-3.6037,-3.5928,-3.5874,-3.5874,-3.5838,-3.5421,-3.4661,-3.5557,-3.521,-3.3751,-3.5494,-3.5588,-2.4514,-2.5848,-2.7172,-2.7691,-2.7962,-2.795,-2.8028,-2.775,-2.7032,-2.5375,-2.4535,-2.3636,0.0,0.0,0.0,-2.3813,-2.5315,0.0,-2.7422,-2.7892,0.0,-2.6825,0.0,-2.6998,-2.6484,-2.7744,0.0,0.0,-2.9182,-3.0108,-3.2614,-3.158,-3.1672,-3.3448,-3.3016,-3.3572,-3.5234,-3.6016,-3.6164,-3.5809,-3.5148,-3.4823,-3.4823,-3.4823,-3.4535,-3.4018,-3.3675,-3.3418,-3.315,-3.286,-3.2896,-3.3031,-3.2604,-3.2492,-3.2655,-3.4017,-3.4706,-3.5078,-3.6389,-3.6809,-3.662,-3.5682,-3.5947,-3.6423,-3.5681,-3.5612,-3.5744,-3.5744,-3.5639,-3.5569,-3.591,-3.5973,-3.61,-3.6429,-3.7445,-3.8278,-3.8278,-3.9242,-4.007,-4.007,-4.007,-4.007,-4.007,-4.007,-4.007,-4.007,-4.007,-4.007,-4.007,-4.007,-4.007,-4.007,-4.0955,-4.1253,-4.0648,-4.1622,-4.1705,-4.0311,-3.984,-3.9278,-3.8518,-3.7323,-3.6689,-3.6689,-3.6109,-3.5711,-3.5494,-3.5786,-3.5751,-3.5392,-3.593,-3.6196,-2.6689,-2.7606,-2.8544,-2.8322,-2.7986,-2.7651,-2.7322,-2.6662,-2.5751,-2.4073,-2.3129,0.0,0.0,0.0,0.0,0.0,0.0,0.0,-2.7468,-2.828,-2.8495,0.0,-2.7891,0.0,-2.7379,-2.8844,-3.0328,0.0,-3.055,-3.0997,-3.3475,-3.1869,-3.1893,-3.4112,-3.3674,-3.4569,-3.7,-3.6617,-3.6254,-3.5954,-3.5196,-3.4823,-3.4823,-3.4823,-3.4547,-3.4207,0.0,-3.36,-3.3328,-3.3034,-3.2982,-3.3043,-3.2717,-3.2727,-3.3131,-3.4324,-3.5099,-3.5783,-3.6864,-3.7476,-3.7521,-3.6131,-3.5869,-3.5878,-3.5436,-3.5439,-3.5504,-3.5504,-3.5504,-3.5569,-3.591,-3.5973,-3.6163,-3.6769,-3.7621,-3.8351,-3.8629,-3.9418,-4.007,-4.007,-4.007,-4.007,-4.007,-4.007,-4.007,-4.007,-4.007,-4.007,-4.007,-4.007,-4.007,-4.007,-4.0955,-4.1323,-4.0841,-4.1805,-4.185,-4.06,-4.0202,-3.9677,-3.8898,-3.7993,-3.7522,-3.7522,-3.7069,-3.6671,-3.6372,-3.678,-3.6674,-3.6054,-3.6875,-3.7156,-2.877,-2.9174,-2.9784,-2.8974,-2.8239,-2.7476,-2.6671,-2.5432,-2.4101,-2.2961,0.0,-2.0795,-2.1538,0.0,-2.1751,-2.3928,0.0,-2.6635,-2.7943,-2.8248,-2.8461,-2.8967,-2.8721,-2.8584,-2.8687,-3.0032,-3.1569,-3.3301,-3.2444,-3.2444,-3.3934,-3.2354,-3.2227,-3.4235,-3.467,-3.5813,-3.7769,-3.6855,-3.6338,-3.6182,-3.5268,-3.4823,-3.4823,-3.4823,-3.4631,-3.4408,0.0,0.0,-3.3493,-3.3295,-3.323,-3.324,-3.324,-3.3534,-3.3899,-3.4711,-3.5543,-3.6339,-3.7067,-3.7593,-3.7754,-3.6432,-3.5642,-3.5222,-3.5419,-3.5504,-3.5504,-3.5504,-3.5504,-3.5619,-3.591,-3.6037,-3.6289,-3.7288,-3.7982,-3.8625,-3.9346,-3.9914,-4.0223,-4.0223,-4.0155,-4.007,-4.007,-4.007,-4.007,-4.007,-4.007,-4.007,-4.007,-4.007,-4.007,-4.007,-4.0955,-4.1446,-4.1341,-4.155,-4.1325,-4.0419,-3.9749,-3.9025,-3.821,-3.8192,-3.8192,-3.8192,-3.8192,-3.7896,-3.7253,-3.8022,-3.7703,-3.6442,-3.7967,-3.8201,-2.9826,-2.9978,-3.0197,-2.9679,-2.8346,-2.7068,-2.6689,-2.5571,0.0,0.0,0.0,-2.2274,-2.1394,-2.1663,0.0,-2.4922,0.0,0.0,0.0,0.0,-2.9798,0.0,0.0,0.0,0.0,0.0,0.0,0.0,0.0,-3.5424,-3.7157,-3.5057,-3.4447,-3.5795,-3.6881,-3.712,-3.6687,-3.6495,-3.5966,-3.51,-3.4919,-3.4823,-3.4823,-3.4823,-3.4631,-3.4421,-3.4617,0.0,-3.3518,-3.3709,-3.3903,-3.4147,-3.4147,-3.474,-3.5606,-3.6275,-3.6779,-3.7141,-3.7229,-3.7085,-3.6877,-3.6667,-3.6546,-3.632,-3.5687,-3.5504,-3.5504,-3.5504,-3.5604,-3.5703,-3.5973,-3.6085,-3.6521,-3.7991,-3.8777,-3.9561,-4.075,-4.1037,-4.1018,-4.1018,-4.051,-4.007,-4.007,-4.007,-4.007,-4.007,-4.007,-4.007,-4.007,-4.007,-4.007,-4.007,-4.0955,-4.1236,-4.056,-4.1246,-4.1107,-3.9677,-3.946,-3.9025,-3.821,-3.8192,-3.8192,-3.8192,-3.8192,-3.8168,-3.8089,-3.8234,-3.8241,-3.8089,-3.8382,-3.8718,-3.1283,-3.1529,-3.1849,-2.9941,-2.8368,-2.6989,-2.5795,0.0,0.0,0.0,0.0,-2.1163,-2.1779,0.0,0.0,0.0,0.0,0.0,0.0,0.0,0.0,0.0,0.0,0.0,0.0,0.0,0.0,0.0,0.0,-3.6273,-3.7512,-3.6569,-3.6134,-3.6231,-3.7322,-3.7601,-3.6819,-3.6543,-3.6014,-3.5232,-3.4956,-3.4823,-3.4823,-3.4823,-3.4884,-3.5025,-3.4838,0.0,-3.412,-3.4412,-3.4482,-3.4468,-3.4855,-3.5639,-3.6529,-3.6824,-3.7229,-3.7723,-3.7418,-3.7172,-3.6994,-3.6516,-3.6197,-3.5895,-3.5633,-3.5504,-3.5504,-3.5504,-3.5844,-3.6189,-3.6064,-3.6618,-3.7571,-3.8715,-3.9985,-4.1111,-4.1753,-4.1499,-4.1204,-4.1204,-4.0595,-4.007,-4.007,-4.007,-4.007,-4.007,-4.007,-4.007,-4.007,-4.007,-4.007,-4.007,-4.0955,-4.1341,-4.0972,-4.1389,-4.1397,-4.0655,-4.0202,-3.9623,-3.8844,-3.8808,-3.8627,-3.8192,-3.8608,-3.8642,-3.8307,-3.8758,-3.8802,-3.851,-3.8707,-3.9064,-3.263,-3.3138,-3.3687,-3.0731,-2.9039,-2.743,-2.5654,-2.374,0.0,0.0,-2.0563,-2.0109,-2.2287,0.0,0.0,0.0,0.0,0.0,0.0,0.0,0.0,0.0,0.0,0.0,0.0,0.0,0.0,0.0,0.0,0.0,-3.7203,-3.737,-3.7097,-3.6406,-3.7263,-3.7385,-3.6855,-3.6447,-3.5966,-3.5437,-3.5028,-3.4823,-3.4823,-3.4835,-3.5126,-3.5596,-3.5178,0.0,0.0,-3.524,-3.5239,-3.5032,-3.5642,-3.6439,-3.7169,-3.7169,-3.7644,-3.8115,-3.752,-3.7434,-3.7432,-3.6428,-3.5821,-3.5406,-3.5484,-3.5504,-3.5504,-3.5504,-3.5979,-3.6446,-3.6277,-3.722,-3.8572,-3.9747,-4.1477,-4.2777,-4.2777,-4.2202,-4.1677,-4.1677,-4.095,-4.0324,-4.0324,-4.0189,-4.007,-4.007,-4.007,-4.007,-4.007,-4.0171,-4.0254,-4.0254,-4.1001,-4.1525,-4.1613,-4.1701,-4.1723,-4.1723,-4.0963,-4.0256,-3.9659,-3.9641,-3.9333,-3.8699,-3.9315,-3.9349,-3.8816,-3.9534,-3.9473,-3.8766,-3.9172,-3.9413,-3.3526,-3.4133,-3.4627,-3.3432,-3.1203,-2.8816,-2.7712,0.0,0.0,0.0,-2.1699,-2.1272,-2.2481,-2.2128,0.0,0.0,0.0,0.0,0.0,0.0,0.0,0.0,0.0,0.0,0.0,0.0,0.0,0.0,0.0,0.0,-3.7596,-3.7144,-3.6987,-3.7056,-3.6692,-3.629,-3.5761,-3.5713,-3.5425,-3.4895,-3.4847,-3.4823,-3.4823,-3.503,-3.532,-3.562,-3.5763,0.0,0.0,-3.5918,-3.6257,-3.6702,-3.6766,-3.7323,-3.8052,-3.8052,-3.8127,-3.8115,-3.752,-3.7492,-3.7649,-3.7043,-3.6502,-3.6067,-3.5618,-3.5504,-3.5504,-3.5504,-3.5634,-3.5963,-3.6732,-3.7558,-3.8883,-4.1559,-4.331,-4.4367,-4.4367,-4.3758,-4.3217,-4.3217,-4.2066,-4.1102,-4.1102,-4.0527,-4.007,-4.007,-4.007,-4.007,-4.007,-4.0483,-4.0754,-4.0754,-4.1185,-4.1656,-4.2115,-4.1875,-4.1723,-4.1723,-4.0963,-4.0492,-4.0419,-4.0401,-4.0365,-4.0293,-4.0365,-4.0419,-4.0469,-4.0628,-4.0312,-3.9607,-4.0004,-3.9954,-3.3469,-3.4275,-3.4651,-3.309,-3.0976,-2.8768,-2.7141,0.0,0.0,-2.2055,-2.1037,-2.0572,-2.1314,-2.1172,-2.1355,0.0,0.0,0.0,0.0,0.0,0.0,0.0,0.0,0.0,0.0,0.0,0.0,0.0,0.0,0.0,-3.7144,-3.7023,-3.6956,-3.6723,-3.6519,-3.6146,-3.5629,-3.5617,-3.5352,-3.4823,-3.4823,-3.4823,-3.4823,-3.4932,-3.5223,-3.5596,-3.5371,0.0,0.0,-3.6194,-3.6566,-3.6936,-3.7491,-3.7886,-3.8202,-3.8202,-3.8202,-3.8115,-3.752,-3.7434,-3.7447,-3.656,-3.6265,-3.6216,-3.6096,-3.5818,-3.5504,-3.5504,-3.619,-3.6878,-3.6808,-3.8401,-4.0534,-4.2581,-4.3887,-4.4451,-4.3978,-4.3639,-4.3284,-4.2828,-4.2252,-4.1863,-4.1863,-4.1255,-4.0747,-4.0747,-4.0358,-4.007,-4.007,-4.0531,-4.0896,-4.1185,-4.163,-4.199,-4.2198,-4.2345,-4.2411,-4.2411,-4.2122,-4.1741,-4.1252,-4.1234,-4.0999,-4.0528,-4.0999,-4.0999,-4.0599,-4.1195,-4.1118,-4.0382,-4.0996,-4.1143,-3.2552,-3.3593,-3.4188,-3.2857,-3.0744,-2.8494,0.0,0.0,0.0,-2.156,-2.0418,-1.9805,-2.0658,-2.0706,-2.0839,0.0,0.0,0.0,0.0,0.0,0.0,0.0,0.0,0.0,0.0,0.0,0.0,0.0,0.0,0.0,0.0,-3.6716,-3.6555,-3.6182,-3.6014,-3.5761,-3.5388,-3.5376,-3.5196,-3.4823,-3.4823,-3.4823,-3.4835,-3.4932,-3.5223,-3.5596,0.0,0.0,0.0,-3.7053,-3.7351,-3.7593,-3.8048,-3.8202,-3.8202,-3.8202,-3.8202,-3.8144,-3.7723,-3.7637,-3.7667,-3.6752,-3.6487,-3.6476,-3.6694,-3.6312,-3.5833,-3.6013,-3.7186,-3.833,-3.8023,-3.9929,-4.2195,-4.3531,-4.4236,-4.4418,-4.3876,-4.3758,-4.3606,-4.3064,-4.2777,-4.2557,-4.2337,-4.1694,-4.1136,-4.0899,-4.0409,-4.0171,-4.0303,-4.0707,-4.1185,-4.1674,-4.2115,-4.2418,-4.2418,-4.2711,-4.2882,-4.2882,-4.2882,-4.2647,-4.2085,-4.2067,-4.1796,-4.1234,-4.1778,-4.1796,-4.1216,-4.1977,-4.1973,-4.1306,-4.1977,-4.2208,-3.0649,-3.2217,-3.3408,-3.3276,-3.096,-2.8339,0.0,0.0,0.0,-2.1344,-2.0117,-1.9492,-2.1103,-2.0971,-2.0959,-2.2017,0.0,0.0,0.0,0.0,0.0,0.0,0.0,0.0,0.0,0.0,0.0,0.0,0.0,0.0,0.0,-3.5918,-3.5629,-3.5629,-3.5112,-3.4847,-3.4835,-3.4835,-3.4835,-3.4823,-3.4823,-3.4823,-3.4835,-3.532,-3.562,0.0,0.0,0.0,0.0,-3.8588,-3.8908,-3.9117,-3.8463,-3.8202,-3.8202,-3.8202,-3.8202,-3.8202,-3.8188,-3.8352,-3.8399,-3.7943,-3.7452,-3.7144,-3.7336,-3.6971,-3.6596,-3.721,-3.8656,-4.0159,-4.08,-4.2199,-4.363,-4.444,-4.457,-4.4587,-4.457,-4.457,-4.457,-4.4553,-4.3927,-4.3166,-4.2422,-4.1694,-4.095,-4.0206,-4.007,-4.0254,-4.0707,-4.1185,-4.1656,-4.2157,-4.2634,-4.2882,-4.2882,-4.29,-4.2882,-4.2882,-4.2882,-4.2882,-4.2882,-4.2882,-4.2864,-4.2864,-4.2864,-4.2864,-4.2864,-4.3069,-4.2935,-4.2474,-4.2922,-4.2969,-2.8315,-2.9209,-2.95,-2.9671,-2.8115,-2.6182,-2.4838,0.0,-2.1485,-2.0948,-2.0454,-2.0261,-2.0779,-2.1019,-2.15,-2.2558,-2.3604,0.0,0.0,0.0,0.0,0.0,0.0,0.0,0.0,0.0,0.0,0.0,0.0,0.0,0.0,-3.5905,-3.5449,-3.5088,-3.4919,-3.4823,-3.4823,-3.4823,-3.4823,-3.4823,-3.4823,-3.4823,-3.4823,-3.5126,0.0,0.0,0.0,0.0,0.0,-3.7977,-3.8538,-3.9131,-3.8463,-3.8478,-3.8826,-3.8376,-3.8202,-3.8202,-3.8202,-3.7941,-3.7696,-3.7753,-3.7396,-3.7035,-3.7282,-3.6671,-3.6043,-3.7256,-3.8672,-4.0107,-4.1549,-4.2606,-4.3545,-4.4384,-4.4587,-4.4434,-4.391,-4.4198,-4.4418,-4.3893,-4.4012,-4.413,-4.3893,-4.2794,-4.1863,-4.1627,-4.073,-4.0171,-4.0303,-4.1001,-4.1569,-4.1717,-4.244,-4.2882,-4.2882,-4.2882,-4.2882,-4.2882,-4.2882,-4.2882,-4.2882,-4.2882,-4.2938,-4.3049,-4.2938,-4.2975,-4.3087,-4.316,-4.3398,-4.381,-4.4124,-4.4336,0.0,-2.631,-2.6595,-2.6831,-2.5803,0.0,0.0,0.0,-2.1033,-2.0421,-2.0298,-2.0358,-2.0562,-2.1043,-2.168,-2.2546,-2.3556,0.0,0.0,0.0,0.0,0.0,0.0,0.0,0.0,0.0,0.0,0.0,0.0,0.0,0.0,-3.5425,-3.4871,-3.4547,-3.4535,-3.4631,-3.4823,-3.4631,-3.4631,-3.4823,-3.4823,-3.4823,-3.4823,-3.5223,0.0,0.0,0.0,0.0,0.0,-3.8968,-3.9255,-3.9479,-3.8826,-3.8681,-3.8768,-3.8362,-3.8202,-3.8202,-3.8202,-3.7955,-3.7681,-3.7768,-3.7467,-3.7114,-3.7067,-3.6836,-3.6821,-3.8022,-3.9441,-4.0795,-4.1885,-4.297,-4.3948,-4.4457,-4.4587,-4.4451,-4.3961,-4.4231,-4.4434,-4.3944,-4.4248,-4.4587,-4.4587,-4.3538,-4.2625,-4.2337,-4.1271,-4.0493,-4.0387,-4.1047,-4.1569,-4.176,-4.2458,-4.2882,-4.2882,-4.2882,-4.2882,-4.2882,-4.2882,-4.2882,-4.2882,-4.2938,-4.2994,-4.3104,-4.3031,-4.3087,-4.3214,-4.3442,-4.3899,-4.4557,-4.4814,-4.5087,0.0,0.0,0.0,0.0,0.0,0.0,0.0,0.0,0.0,-1.9881,-1.9841,-2.0021,-2.0692,-2.1139,-2.1656,-2.2258,-2.322,0.0,0.0,0.0,0.0,0.0,0.0,0.0,0.0,0.0,0.0,0.0,0.0,0.0,0.0,-3.4595,-3.4018,-3.3982,-3.3945,-3.4198,-3.4763,-3.4282,-3.4282,-3.4775,-3.4739,-3.4715,-3.4715,-3.5306,0.0,0.0,0.0,0.0,0.0,-4.0867,-4.0612,-4.0031,-3.9378,-3.8783,-3.8275,-3.8217,-3.8202,-3.8202,-3.8202,-3.8144,-3.8044,-3.7812,-3.7549,-3.7315,-3.6836,-3.7464,-3.8452,-3.9095,-4.0529,-4.1933,-4.1981,-4.329,-4.4587,-4.4587,-4.4587,-4.4587,-4.4587,-4.4587,-4.4587,-4.4587,-4.4587,-4.4587,-4.4587,-4.3927,-4.3183,-4.2472,-4.1745,-4.1155,-4.0848,-4.1226,-4.1683,-4.2115,-4.2577,-4.2844,-4.29,-4.2882,-4.2882,-4.2882,-4.2882,-4.2882,-4.2882,-4.3012,-4.3104,-4.3104,-4.316,-4.3196,-4.3232,-4.3886,-4.4412,-4.4796,-4.5061,-4.5235,-1.9654,0.0,-2.1468,-2.1468,0.0,0.0,0.0,0.0,0.0,0.0,0.0,0.0,0.0,-2.2185,-2.2438,0.0,0.0,0.0,0.0,0.0,0.0,0.0,0.0,0.0,0.0,0.0,0.0,0.0,0.0,0.0,0.0,-3.439,-3.3861,-3.3477,-3.308,-3.3296,-3.421,-3.4102,-3.4102,-3.4222,-3.3837,-3.3645,-3.3645,-3.4882,0.0,0.0,0.0,0.0,-3.9156,-3.9477,-3.9828,-3.9987,-3.887,-3.8652,-3.8899,-3.8391,-3.8202,-3.8202,-3.8202,-3.7564,-3.6794,-3.7005,-3.7263,-3.7569,-3.8467,-3.8212,-3.7674,-3.7992,-3.9594,-4.1389,-4.206,-4.3426,-4.4587,-4.4587,-4.4587,-4.4587,-4.4587,-4.4587,-4.4587,-4.4587,-4.4587,-4.4587,-4.4587,-4.3927,-4.3352,-4.3183,-4.2506,-4.1814,-4.1172,-4.1518,-4.1783,-4.1683,-4.2056,-4.2498,-4.2882,-4.2882,-4.2882,-4.2882,-4.2882,-4.2882,-4.2882,-4.2938,-4.2994,-4.3104,-4.316,-4.3304,-4.3495,-4.398,-4.4383,-4.4738,-4.5057,-4.5213,-1.8896,-1.9803,-2.0756,-2.0756,-2.0756,-2.0738,0.0,0.0,0.0,0.0,0.0,0.0,0.0,0.0,0.0,0.0,0.0,0.0,0.0,0.0,0.0,0.0,0.0,0.0,0.0,0.0,0.0,0.0,0.0,0.0,0.0,-3.3621,-3.3212,-3.2935,-3.2647,-3.2887,-3.3681,-3.3452,-3.3464,-3.3693,-3.3416,-3.355,-3.3894,-3.483,-3.5768,0.0,0.0,0.0,-3.933,-3.9441,-3.9497,-3.9454,-3.8775,-3.8543,-3.8558,-3.8272,-3.8202,-3.8159,-3.7883,-3.7492,-3.6994,-3.6913,-3.7352,-3.7943,-3.8377,-3.7988,-3.7539,-3.8307,-3.9936,-4.1581,-4.2029,-4.335,-4.4587,-4.4587,-4.4587,-4.4587,-4.4587,-4.4587,-4.4587,-4.4587,-4.4587,-4.4688,-4.5043,-4.4451,-4.3944,-4.3944,-4.3301,-4.2422,-4.1339,-4.1793,-4.2021,-4.1569,-4.2098,-4.2634,-4.2882,-4.2882,-4.2882,-4.2882,-4.2882,-4.2882,-4.2882,-4.2938,-4.3031,-4.316,-4.3178,-4.3391,-4.3841,-4.4072,-4.4439,-4.487,-4.5103,-4.5213,-1.9192,-2.0178,-2.1158,-2.1014,-2.1118,-2.1273,0.0,0.0,0.0,0.0,0.0,0.0,0.0,0.0,0.0,0.0,0.0,0.0,0.0,0.0,0.0,0.0,0.0,0.0,0.0,0.0,0.0,0.0,0.0,0.0,0.0,-3.2743,-3.2418,-3.2262,-3.2334,-3.2641,-3.3083,-3.2726,-3.2731,-3.3164,-3.3264,-3.3649,-3.4424,-3.5097,-3.6287,0.0,0.0,0.0,-3.9958,-3.9636,-3.9347,-3.8957,-3.8842,-3.8481,-3.8005,-3.8127,-3.8202,-3.8115,-3.752,-3.7535,-3.7662,-3.7205,-3.7679,-3.8302,-3.7853,-3.7773,-3.8082,-3.9223,-4.0644,-4.1917,-4.2093,-4.335,-4.4587,-4.4587,-4.4587,-4.4587,-4.4587,-4.4587,-4.4587,-4.4587,-4.4587,-4.479,-4.5415,-4.4993,-4.4587,-4.4587,-4.4012,-4.3098,-4.1816,-4.2262,-4.2444,-4.1833,-4.2391,-4.2806,-4.2882,-4.2882,-4.2882,-4.2882,-4.2882,-4.2882,-4.2882,-4.3012,-4.3086,-4.316,-4.316,-4.3461,-4.406,-4.4132,-4.4476,-4.5103,-4.5148,-4.5213,-2.037,-2.0888,-2.0948,-2.013,-2.0549,-2.1169,0.0,0.0,0.0,0.0,0.0,0.0,0.0,0.0,0.0,0.0,0.0,0.0,0.0,0.0,0.0,0.0,0.0,0.0,0.0,0.0,0.0,0.0,0.0,0.0,0.0,-3.2551,-3.207,-3.1156,-3.1565,-3.204,-3.2397,-3.2414,-3.2539,-3.2623,-3.2894,-3.3083,-3.333,-3.508,-3.617,0.0,0.0,-3.852,-3.9291,-3.8649,-3.8707,-3.9069,-3.8504,-3.8214,-3.8142,-3.8202,-3.8202,-3.8115,-3.752,-3.7171,-3.7131,-3.7588,-3.805,-3.8482,-3.896,-3.9506,-4.0079,-4.0293,-4.0755,-4.1434,-4.2574,-4.3722,-4.4587,-4.4587,-4.4587,-4.4587,-4.4587,-4.4587,-4.4587,-4.4587,-4.4587,-4.4621,-4.4739,-4.4654,-4.4587,-4.4587,-4.4468,-4.4228,-4.3769,-4.3285,-4.2967,-4.3116,-4.265,-4.2458,-4.2882,-4.2882,-4.2882,-4.2882,-4.2882,-4.2882,-4.2882,-4.2938,-4.2938,-4.2938,-4.2938,-4.3284,-4.3912,-4.3943,-4.4299,-4.5033,-4.5061,-4.5148,-2.0213,-2.1013,-2.1567,-2.1008,-2.1679,-2.2363,0.0,0.0,0.0,0.0,0.0,0.0,0.0,0.0,0.0,0.0,0.0,0.0,0.0,0.0,0.0,0.0,0.0,0.0,0.0,0.0,0.0,0.0,0.0,0.0,0.0,0.0,-3.1613,-3.1109,-3.2097,-3.2668,-3.2816,-3.3224,-3.3469,-3.3469,-3.3607,-3.3817,-3.3917,-3.5008,-3.5825,-3.6396,0.0,-3.771,-3.8514,-3.8045,-3.8088,-3.85,-3.8182,-3.8066,-3.8066,-3.8127,-3.7999,-3.768,-3.7404,-3.7332,-3.7426,-3.7367,-3.8109,-3.8931,-3.8886,-3.9324,-4.0076,-4.0805,-4.1468,-4.2161,-4.2839,-4.3722,-4.444,-4.457,-4.4587,-4.4587,-4.4587,-4.4587,-4.4587,-4.4587,-4.4587,-4.4587,-4.4587,-4.4587,-4.4587,-4.4587,-4.4587,-4.4504,-4.4251,-4.4123,-4.4038,-4.4064,-4.3548,-4.3322,-4.3534,-4.3136,-4.2882,-4.2882,-4.2882,-4.2882,-4.2882,-4.2882,-4.2882,-4.2882,-4.2882,-4.3142,-4.3623,-4.3831,-4.4223,-4.4789,-4.5038,-4.5192,-2.0412,-2.124,-2.2091,-2.216,0.0,0.0,-2.3826,0.0,0.0,0.0,0.0,0.0,0.0,0.0,0.0,0.0,0.0,0.0,0.0,0.0,0.0,0.0,0.0,0.0,0.0,0.0,0.0,0.0,0.0,0.0,0.0,0.0,-3.1529,-3.139,-3.2571,-3.3195,-3.3291,-3.387,-3.4209,-3.4306,-3.4555,-3.4739,-3.495,-3.5233,-3.5816,-3.658,-3.6678,-3.7129,-3.7853,-3.7763,-3.7853,-3.8005,-3.8005,-3.8005,-3.8005,-3.8127,-3.7825,-3.7331,-3.755,-3.7711,-3.7824,-3.7541,-3.8317,-3.932,-3.8796,-3.9189,-4.0146,-4.1194,-4.2221,-4.3047,-4.3213,-4.3781,-4.444,-4.457,-4.4587,-4.4587,-4.4587,-4.4587,-4.4587,-4.4587,-4.4587,-4.4587,-4.4587,-4.4587,-4.4587,-4.4587,-4.4587,-4.461,-4.463,-4.4771,-4.4964,-4.504,-4.4638,-4.4295,-4.4114,-4.3353,-4.2882,-4.2882,-4.2882,-4.2882,-4.2882,-4.2882,-4.2882,-4.2882,-4.2882,-4.305,-4.3406,-4.3799,-4.4175,-4.4624,-4.4995,-4.5213,-2.1924,-2.1925,-2.1957,-2.2909,0.0,0.0,-2.5432,0.0,0.0,0.0,0.0,0.0,0.0,0.0,0.0,0.0,0.0,0.0,0.0,0.0,0.0,0.0,0.0,0.0,0.0,0.0,0.0,0.0,0.0,0.0,0.0,0.0,0.0,-3.1668,-3.2241,-3.275,-3.303,-3.3563,-3.4006,-3.4306,-3.5156,-3.5642,-3.5668,-3.592,-3.6451,-3.7204,-3.6864,-3.7129,-3.7929,-3.8066,-3.8202,-3.8202,-3.8202,-3.8202,-3.8202,-3.8202,-3.7825,-3.7389,-3.8178,-3.8223,-3.8043,-3.872,-3.919,-3.9409,-3.9364,-4.0293,-4.1393,-4.1459,-4.2506,-4.3611,-4.3906,-4.427,-4.457,-4.4587,-4.4587,-4.4587,-4.4587,-4.4587,-4.4587,-4.4587,-4.4587,-4.4587,-4.4587,-4.4587,-4.4587,-4.4587,-4.4587,-4.4944,-4.5848,-4.5348,-4.5269,-4.6272,-4.5649,-4.491,-4.415,-4.3353,-4.2882,-4.2882,-4.2882,-4.2882,-4.2882,-4.2882,-4.2882,-4.2882,-4.2882,-4.305,-4.3406,-4.3754,-4.4136,-4.4624,-4.4948,-4.517,-2.1973,-2.2406,-2.2929,-2.308,0.0,0.0,0.0,0.0,0.0,0.0,0.0,0.0,0.0,0.0,0.0,0.0,0.0,0.0,0.0,0.0,0.0,0.0,0.0,0.0,0.0,0.0,0.0,0.0,0.0,0.0,0.0,0.0,0.0,-3.1971,-3.3023,-3.3628,-3.3761,-3.4372,-3.4748,-3.4867,-3.5203,-3.5162,-3.4802,-3.5269,-3.578,-3.6155,-3.64,-3.7039,-3.7929,-3.8005,-3.8066,-3.8202,-3.8202,-3.8202,-3.8202,-3.8202,-3.8057,-3.7897,-3.8204,-3.8355,-3.8487,-3.8796,-3.9104,-3.9424,-3.9424,-4.0076,-4.094,-4.1393,-4.2285,-4.3262,-4.3906,-4.4212,-4.4344,-4.457,-4.4587,-4.4587,-4.4587,-4.4587,-4.4587,-4.4587,-4.4587,-4.4587,-4.4587,-4.4587,-4.4587,-4.4587,-4.4587,-4.4961,-4.5968,-4.5852,-4.6059,-4.7145,-4.654,-4.5526,-4.4204,-4.3806,-4.3425,-4.2918,-4.2882,-4.2882,-4.2882,-4.2882,-4.2882,-4.2882,-4.2882,-4.2995,-4.3196,-4.3721,-4.4106,-4.443,-4.4948,-4.5213,-2.2178,-2.2526,-2.2962,0.0,0.0,0.0,0.0,0.0,0.0,0.0,0.0,0.0,0.0,0.0,0.0,0.0,0.0,0.0,0.0,0.0,0.0,0.0,0.0,0.0,0.0,0.0,0.0,0.0,0.0,0.0,0.0,0.0,0.0,0.0,-3.342,-3.3958,-3.3958,-3.4365,-3.4576,-3.4576,-3.4649,-3.4733,-3.4829,-3.5054,-3.5511,-3.6056,-3.6358,-3.7039,-3.7929,-3.8005,-3.8066,-3.8202,-3.8202,-3.8202,-3.8202,-3.8202,-3.8202,-3.8202,-3.8277,-3.8501,-3.8782,-3.887,-3.9307,-3.9753,-3.9753,-4.0409,-4.1276,-4.1722,-4.249,-4.3262,-4.3906,-4.4155,-4.4212,-4.4514,-4.4587,-4.4587,-4.4587,-4.4587,-4.457,-4.4514,-4.4514,-4.4514,-4.4514,-4.4665,-4.4759,-4.4797,-4.4961,-4.539,-4.6262,-4.6358,-4.6707,-4.7615,-4.6993,-4.6051,-4.4947,-4.4385,-4.386,-4.3299,-4.3027,-4.2882,-4.2882,-4.2882,-4.2882,-4.2882,-4.2882,-4.2995,-4.3232,-4.3754,-4.4136,-4.4457,-4.4972,-4.5254,-2.276,-2.2212,0.0,0.0,0.0,0.0,0.0,0.0,0.0,0.0,0.0,0.0,0.0,0.0,0.0,0.0,0.0,0.0,0.0,0.0,0.0,0.0,0.0,0.0,0.0,0.0,0.0,0.0,0.0,0.0,0.0,0.0,0.0,0.0,-3.3326,-3.3326,-3.3326,-3.3326,-3.3326,-3.3326,-3.3466,-3.4497,-3.6023,-3.5494,-3.5963,-3.7246,-3.6878,-3.7189,-3.7929,-3.8142,-3.8202,-3.8202,-3.8202,-3.8202,-3.8202,-3.8202,-3.8202,-3.8202,-3.8427,-3.8649,-3.8855,-3.9017,-3.9722,-4.0478,-4.0478,-4.1459,-4.2585,-4.2585,-4.3235,-4.3956,-4.4056,-4.4196,-4.4367,-4.457,-4.4587,-4.4587,-4.4587,-4.4587,-4.457,-4.4367,-4.431,-4.431,-4.431,-4.4746,-4.5144,-4.525,-4.5749,-4.631,-4.6817,-4.6908,-4.7107,-4.7657,-4.6993,-4.6504,-4.6504,-4.5037,-4.4114,-4.4095,-4.3353,-4.29,-4.2882,-4.2882,-4.2882,-4.2882,-4.2882,-4.3105,-4.3487,-4.3844,-4.4233,-4.472,-4.5042,-4.5254,-2.3096,0.0,0.0,0.0,0.0,0.0,0.0,0.0,0.0,0.0,0.0,0.0,0.0,0.0,0.0,0.0,0.0,0.0,0.0,0.0,0.0,0.0,0.0,0.0,0.0,0.0,0.0,0.0,0.0,0.0,0.0,0.0,0.0,0.0,-3.3605,-3.3536,-3.3536,-3.3396,-3.3396,-3.3536,-3.3536,-3.3889,-3.4356,-3.4768,-3.521,-3.5812,-3.6603,-3.7109,-3.7548,-3.8028,-3.8202,-3.8202,-3.8202,-3.8202,-3.8202,-3.8202,-3.8202,-3.8144,-3.793,-3.8209,-3.8782,-3.8483,-3.9345,-4.0478,-4.0478,-4.1459,-4.2585,-4.2585,-4.3235,-4.3956,-4.4056,-4.4196,-4.4367,-4.457,-4.4587,-4.457,-4.444,-4.4367,-4.4367,-4.4293,-4.4196,-4.4196,-4.4293,-4.4652,-4.4947,-4.5001,-4.5563,-4.6213,-4.6817,-4.7214,-4.7511,-4.7657,-4.75,-4.712,-4.6558,-4.6069,-4.5309,-4.4168,-4.4403,-4.4077,-4.2936,-4.2882,-4.2938,-4.3049,-4.3049,-4.325,-4.3707,-4.4035,-4.4411,-4.4776,-4.5109,-4.5297,-2.3116,0.0,0.0,0.0,0.0,0.0,0.0,0.0,0.0,0.0,0.0,0.0,0.0,0.0,0.0,0.0,0.0,0.0,0.0,0.0,0.0,0.0,0.0,0.0,0.0,0.0,0.0,0.0,0.0,0.0,0.0,0.0,0.0,0.0,-3.3758,-3.3744,-3.3744,-3.3605,-3.3605,-3.3744,-3.373,-3.3799,-3.3827,-3.4455,-3.501,-3.5481,-3.6331,-3.6751,-3.6939,-3.7302,-3.7447,-3.7447,-3.7447,-3.7447,-3.7476,-3.7738,-3.7839,-3.7796,-3.755,-3.8048,-3.8752,-3.8261,-3.9373,-4.0873,-4.0873,-4.1852,-4.2974,-4.2974,-4.3432,-4.3956,-4.4056,-4.4196,-4.4367,-4.457,-4.4587,-4.457,-4.4367,-4.431,-4.4253,-4.4155,-4.4114,-4.4056,-4.4155,-4.4708,-4.5161,-4.5197,-4.595,-4.666,-4.7107,-4.7468,-4.7717,-4.7717,-4.7717,-4.7518,-4.7029,-4.6395,-4.5617,-4.4639,-4.4421,-4.3896,-4.2936,-4.3208,-4.3282,-4.3104,-4.3104,-4.3339,-4.3804,-4.4143,-4.4465,-4.48,-4.5132,-4.5297,0.0,0.0,0.0,0.0,0.0,0.0,0.0,0.0,0.0,0.0,0.0,0.0,0.0,0.0,0.0,0.0,0.0,0.0,0.0,0.0,0.0,0.0,0.0,0.0,0.0,0.0,0.0,0.0,0.0,0.0,0.0,0.0,0.0,-3.3865,-3.3879,-3.3811,-3.3811,-3.3868,-3.3896,0.0,-3.4074,-3.4128,-3.4142,-3.4538,-3.521,-3.5928,-3.6142,-3.6257,-3.6301,-3.6301,-3.6301,-3.6301,-3.6301,-3.6344,-3.6475,-3.7085,-3.7302,-3.7375,-3.7492,-3.8076,-3.8678,-3.8246,-3.9635,-4.1525,-4.1525,-4.2506,-4.3628,-4.3628,-4.3763,-4.3956,-4.4056,-4.4196,-4.4367,-4.4514,-4.457,-4.4514,-4.431,-4.4253,-4.4196,-4.3956,-4.3898,-4.3898,-4.3898,-4.4801,-4.5597,-4.5817,-4.6799,-4.7511,-4.7511,-4.7615,-4.7717,-4.7717,-4.7717,-4.7717,-4.7717,-4.6287,-4.5381,-4.5291,-4.3914,-4.3045,-4.29,-4.3588,-4.3699,-4.3123,-4.3104,-4.3339,-4.3823,-4.4143,-4.4465,-4.48,-4.5132,-4.5297,0.0,0.0,0.0,0.0,0.0,0.0,0.0,0.0,0.0,0.0,0.0,0.0,0.0,0.0,0.0,0.0,0.0,0.0,0.0,0.0,0.0,0.0,0.0,0.0,0.0,0.0,0.0,0.0,0.0,0.0,0.0,0.0,0.0,-3.3593,-3.3408,-3.3327,-3.3327,-3.3708,-3.3951,0.0,-3.4059,-3.4196,-3.4346,-3.4423,-3.4897,-3.5561,-3.5561,-3.5851,-3.6301,-3.6301,-3.6301,-3.6301,-3.6301,-3.6635,-3.7114,-3.7259,-3.7375,-3.7492,-3.768,-3.7999,-3.8246,-3.8311,-3.9757,-4.1525,-4.1525,-4.2506,-4.3628,-4.3628,-4.3763,-4.3956,-4.4056,-4.4196,-4.431,-4.4367,-4.4367,-4.431,-4.4155,-4.4056,-4.3939,-4.3898,-4.3763,-4.3704,-4.3898,-4.4801,-4.5868,-4.6954,-4.7302,-4.7554,-4.7657,-4.7657,-4.7717,-4.7717,-4.7717,-4.7717,-4.7717,-4.6812,-4.5979,-4.5345,-4.4983,-4.4222,-4.2936,-4.3063,-4.3139,-4.3178,-4.3178,-4.3444,-4.3955,-4.4231,-4.4519,-4.48,-4.5132,-4.5297,0.0,0.0,0.0,0.0,0.0,0.0,0.0,0.0,0.0,0.0,0.0,0.0,0.0,0.0,0.0,0.0,0.0,0.0,0.0,0.0,0.0,0.0,0.0,0.0,0.0,0.0,0.0,0.0,0.0,0.0,0.0,-3.2463,-3.2672,-3.3006,-3.2941,-3.3021,-3.3324,-3.3604,-3.3922,-3.4264,-3.4264,-3.4278,-3.4414,-3.4414,-3.4588,-3.4907,-3.4907,-3.5096,-3.5401,-3.5401,-3.5401,-3.5401,-3.5717,-3.5868,-3.5952,-3.6597,-3.6975,-3.7053,-3.6943,-3.7656,-3.8552,-3.8469,-3.9833,-4.1591,-4.1917,-4.2772,-4.3628,-4.3628,-4.3763,-4.3956,-4.4056,-4.4196,-4.431,-4.444,-4.444,-4.4384,-4.4056,-4.3998,-4.3939,-4.3763,-4.3687,-4.3628,-4.3763,-4.4746,-4.595,-4.7214,-4.7468,-4.7511,-4.7615,-4.7657,-4.7717,-4.7717,-4.7717,-4.7554,-4.7174,-4.6395,-4.5784,-4.5424,-4.4681,-4.4084,-4.3631,-4.325,-4.3087,-4.3214,-4.3251,-4.3463,-4.3749,-4.406,-4.4279,-4.443,-4.4887,-4.5109,0.0,0.0,0.0,0.0,0.0,0.0,0.0,0.0,0.0,0.0,0.0,0.0,0.0,0.0,0.0,0.0,0.0,0.0,0.0,0.0,0.0,0.0,0.0,0.0,0.0,0.0,0.0,0.0,0.0,0.0,-3.1192,-3.183,-3.2179,-3.2179,-3.228,-3.26,-3.3122,-3.3253,-3.3572,-3.408,-3.4196,-3.424,-3.4254,-3.4356,-3.4414,-3.4414,-3.4534,-3.4601,-3.4601,-3.4721,-3.4721,-3.4787,-3.5335,-3.5279,-3.5022,-3.6222,-3.6641,-3.6645,-3.6461,-3.7515,-3.8777,-3.8637,-3.9937,-4.1596,-4.2203,-4.2937,-4.3628,-4.3628,-4.3763,-4.3956,-4.4056,-4.4196,-4.4367,-4.4514,-4.457,-4.4474,-4.4015,-4.3998,-4.3981,-4.3687,-4.3671,-4.3831,-4.3931,-4.493,-4.6116,-4.7214,-4.745,-4.7511,-4.7511,-4.7615,-4.7717,-4.7717,-4.7717,-4.7446,-4.6757,-4.5979,-4.5533,-4.5503,-4.4104,-4.3597,-4.4163,-4.3597,-4.3251,-4.3251,-4.334,-4.3446,-4.3497,-4.3846,-4.4005,-4.3986,-4.4572,-4.4868,0.0,0.0,0.0,0.0,0.0,0.0,0.0,0.0,0.0,0.0,0.0,0.0,0.0,0.0,0.0,0.0,0.0,0.0,0.0,0.0,0.0,0.0,0.0,0.0,0.0,0.0,0.0,0.0,0.0,0.0,-2.9871,-3.048,-3.0829,-3.0829,-3.1366,-3.17,-3.1787,-3.2353,-3.2687,-3.2774,-3.3325,-3.3601,-3.3616,-3.4167,-3.4414,-3.4414,-3.5023,-3.527,-3.5335,-3.5882,-3.6134,-3.6134,-3.6259,-3.6565,-3.7052,-3.732,-3.717,-3.701,-3.8191,-3.8191,-3.7778,-3.8857,-4.0213,-4.1523,-4.1646,-4.2545,-4.3628,-4.3628,-4.3763,-4.3956,-4.4056,-4.4196,-4.431,-4.431,-4.444,-4.4514,-4.4172,-4.3998,-4.3881,-4.3628,-4.4071,-4.4695,-4.5285,-4.6049,-4.6799,-4.7511,-4.7657,-4.7657,-4.7657,-4.7699,-4.7717,-4.7717,-4.7717,-4.7663,-4.7554,-4.6912,-4.623,-4.5539,-4.4689,-4.398,-4.3379,-4.3359,-4.3376,-4.3376,-4.3394,-4.3446,-4.3497,-4.3846,-4.4005,-4.4005,-4.4374,-4.4676,0.0,0.0,0.0,0.0,0.0,0.0,0.0,0.0,0.0,0.0,0.0,0.0,0.0,0.0,0.0,0.0,0.0,0.0,0.0,0.0,0.0,0.0,0.0,0.0,0.0,0.0,0.0,0.0,0.0,-2.8724,-2.9073,-2.9697,-2.9871,-2.9523,-3.0118,-3.0466,-3.0466,-3.1105,-3.1787,-3.2513,-3.2738,-3.3057,-3.3485,-3.3746,-3.4266,-3.4971,-3.527,-3.5578,-3.6009,-3.6259,-3.6384,-3.6446,-3.6829,-3.6955,-3.7018,-3.7449,-3.7576,-3.7606,-3.7857,-3.82,-3.8592,-3.9176,-4.0079,-4.0917,-4.1334,-4.1873,-4.2485,-4.3016,-4.3265,-4.3521,-4.4095,-4.4327,-4.444,-4.444,-4.4514,-4.4514,-4.427,-4.4097,-4.3939,-4.3822,-4.4243,-4.4841,-4.5699,-4.631,-4.6908,-4.7615,-4.7717,-4.7717,-4.7717,-4.7717,-4.7717,-4.7717,-4.7759,-4.7638,-4.7184,-4.6506,-4.5966,-4.5714,-4.4528,-4.3907,-4.4016,-4.3666,-4.3446,-4.3446,-4.3446,-4.3463,-4.3497,-4.3649,-4.3749,-4.3763,-4.4162,-4.4511,0.0,0.0,0.0,0.0,0.0,0.0,0.0,0.0,0.0,0.0,0.0,0.0,0.0,0.0,0.0,0.0,0.0,0.0,0.0,0.0,0.0,0.0,0.0,0.0,0.0,0.0,0.0,0.0,0.0,-2.7963,-2.8283,-2.9013,-2.9144,-2.8504,-2.9058,-2.9377,-2.9377,-3.0016,-3.0754,-3.171,-3.1916,-3.2384,-3.2977,-3.3151,-3.3921,-3.5145,-3.5503,-3.6009,-3.6646,-3.6829,-3.689,-3.6951,-3.7519,-3.7445,-3.7175,-3.7764,-3.8041,-3.8065,-3.778,-3.8273,-3.9113,-3.9324,-3.9838,-4.0498,-4.0974,-4.1276,-4.1614,-4.2292,-4.2802,-4.3222,-4.3833,-4.4305,-4.4587,-4.4587,-4.4587,-4.4514,-4.431,-4.4155,-4.3998,-4.3898,-4.4429,-4.511,-4.58,-4.6501,-4.7107,-4.7615,-4.7717,-4.7717,-4.7717,-4.7717,-4.7699,-4.7759,-4.7861,-4.7575,-4.6797,-4.6239,-4.5825,-4.5516,-4.4382,-4.3923,-4.4378,-4.3809,-4.3497,-4.3497,-4.3532,-4.3532,-4.3532,-4.3532,-4.3566,-4.3667,-4.3986,-4.4289,0.0,0.0,0.0,0.0,0.0,0.0,0.0,0.0,0.0,0.0,0.0,0.0,0.0,0.0,0.0,0.0,0.0,0.0,0.0,0.0,0.0,0.0,0.0,0.0,0.0,0.0,0.0,0.0,0.0,-2.7836,-2.7314,-2.833,-2.8656,-2.7983,-2.8446,-2.8739,-2.8739,-2.9233,-2.9521,-2.9608,-3.0773,-3.1426,-3.1642,-3.228,-3.3245,-3.452,-3.5782,-3.6707,-3.7417,-3.8017,-3.8278,-3.8335,-3.8448,-3.8504,-3.8544,-3.8805,-3.8583,-3.8205,-3.8931,-3.8821,-3.8448,-3.9089,-3.9835,-4.0431,-4.0431,-4.1039,-4.166,-4.1766,-4.2434,-4.3177,-4.3266,-4.3934,-4.4587,-4.4587,-4.4587,-4.4514,-4.4155,-4.3998,-4.3898,-4.3898,-4.4855,-4.5699,-4.585,-4.6863,-4.7657,-4.7699,-4.7717,-4.7717,-4.7717,-4.7717,-4.7759,-4.7861,-4.792,-4.7616,-4.684,-4.6885,-4.6285,-4.4766,-4.4637,-4.4323,-4.3589,-4.3516,-4.3497,-4.3497,-4.3548,-4.3582,-4.3582,-4.3582,-4.3667,-4.3804,-4.3883,-4.4048,0.0,0.0,0.0,0.0,0.0,0.0,0.0,0.0,0.0,0.0,0.0,0.0,0.0,0.0,0.0,0.0,0.0,0.0,0.0,0.0,0.0,0.0,0.0,0.0,0.0,0.0,0.0,0.0,0.0,0.0,-2.7181,-2.7954,-2.8037,-2.734,-2.7886,-2.8167,-2.8071,-2.8121,-2.8641,-2.9507,-2.9911,-3.056,-3.1526,-3.1772,-3.2818,-3.4425,-3.5385,-3.6364,-3.7476,-3.8148,-3.8448,-3.8504,-3.856,-3.8727,-3.8876,-3.8969,-3.8914,-3.8914,-3.9218,-3.9148,-3.8952,-3.9202,-3.9508,-3.9723,-3.9794,-4.003,-4.0438,-4.105,-4.153,-4.2004,-4.3074,-4.3584,-4.3961,-4.4468,-4.4587,-4.4514,-4.4253,-4.4097,-4.4155,-4.4614,-4.5303,-4.595,-4.6454,-4.7214,-4.7717,-4.7717,-4.7717,-4.7717,-4.7717,-4.7717,-4.756,-4.7193,-4.7161,-4.6895,-4.6209,-4.5773,-4.526,-4.4692,-4.4178,-4.3791,-4.3497,-4.3497,-4.3513,-4.3548,-4.3582,-4.3582,-4.3582,-4.3686,-4.3786,-4.3851,-4.3883,-4.4079,0.0,0.0,0.0,0.0,0.0,0.0,0.0,0.0,0.0,0.0,0.0,0.0,0.0,0.0,0.0,0.0,0.0,0.0,0.0,0.0,0.0,0.0,0.0,0.0,0.0,0.0,0.0,0.0,0.0,0.0,-2.7306,-2.7684,-2.7586,-2.7018,-2.7345,-2.7443,-2.7281,-2.7443,-2.7977,-2.8871,-2.9232,-2.9882,-3.0887,-3.1105,-3.2137,-3.3798,-3.4447,-3.5748,-3.7476,-3.8165,-3.856,-3.8655,-3.8727,-3.8821,-3.9023,-3.9094,-3.9202,-3.9272,-3.9272,-3.9272,-3.9272,-3.9272,-3.9325,-3.9379,-3.9501,-3.9537,-3.9742,-4.0421,-4.0845,-4.1319,-4.2368,-4.3047,-4.3538,-4.4062,-4.4384,-4.457,-4.444,-4.427,-4.435,-4.5001,-4.5545,-4.6098,-4.6799,-4.7345,-4.7717,-4.7717,-4.7717,-4.7717,-4.7717,-4.7759,-4.7601,-4.7179,-4.6989,-4.6684,-4.6267,-4.5297,-4.4837,-4.5094,-4.4085,-4.3608,-4.3883,-4.3626,-4.3513,-4.3582,-4.3634,-4.3667,-4.3682,-4.3786,-4.3883,-4.3929,-4.3929,-4.414,0.0,0.0,0.0,0.0,0.0,0.0,0.0,0.0,0.0,0.0,0.0,0.0,0.0,0.0,0.0,0.0,0.0,0.0,0.0,0.0,0.0,0.0,0.0,0.0,0.0,0.0,0.0,0.0,0.0,-2.6905,-2.758,-2.7488,-2.7284,-2.6974,-2.6884,-2.6698,-2.6481,-2.7144,-2.7489,-2.7518,-2.8757,-2.9479,-2.9639,-3.0277,-3.1248,-3.2422,-3.3123,-3.496,-3.7525,-3.8274,-3.8639,-3.8805,-3.8969,-3.9023,-3.9023,-3.9218,-3.9272,-3.9272,-3.9272,-3.9272,-3.9272,-3.9325,-3.9379,-3.9501,-3.9501,-3.9694,-3.9901,-3.9901,-4.0526,-4.117,-4.1204,-4.232,-4.3453,-4.342,-4.4012,-4.457,-4.4626,-4.4497,-4.4502,-4.5001,-4.5545,-4.6147,-4.6799,-4.7363,-4.7717,-4.7717,-4.7717,-4.7717,-4.7717,-4.7819,-4.7925,-4.7974,-4.7378,-4.7018,-4.702,-4.5608,-4.5021,-4.5773,-4.436,-4.3846,-4.4635,-4.392,-4.3532,-4.3615,-4.3753,-4.3837,-4.3897,-4.3897,-4.3929,-4.4005,-4.4005,-4.421,-2.8844,0.0,0.0,0.0,0.0,0.0,0.0,0.0,0.0,0.0,0.0,0.0,0.0,0.0,0.0,0.0,0.0,0.0,0.0,0.0,0.0,0.0,0.0,0.0,0.0,0.0,0.0,0.0,-2.6719,-2.6777,-2.7565,-2.7488,-2.7077,-2.6453,-2.6755,-2.6651,-2.6002,-2.6654,-2.7219,-2.7683,-2.8494,-2.9117,-2.9639,-3.0396,-3.141,-3.2517,-3.3346,-3.4966,-3.7124,-3.7616,-3.8275,-3.8969,-3.8969,-3.9094,-3.9202,-3.9272,-3.9272,-3.9272,-3.9272,-3.9272,-3.9325,-3.9379,-3.9448,-3.9554,-3.9746,-3.9849,-3.9901,-4.0037,-4.024,-4.051,-4.1068,-4.2726,-4.4113,-4.3555,-4.4012,-4.4665,-4.5035,-4.5054,-4.5161,-4.5699,-4.6262,-4.6817,-4.7363,-4.7615,-4.7717,-4.7717,-4.7717,-4.7717,-4.7819,-4.7861,-4.7765,-4.7305,-4.7088,-4.656,-4.5443,-4.4966,-4.4562,-4.4176,-4.3736,-4.3624,-4.3879,-4.371,-4.3649,-4.38,-4.3832,-4.3915,-4.3974,-4.3974,-4.3974,-4.4005,-4.4147,-4.4266,0.0,0.0,0.0,0.0,0.0,0.0,0.0,-2.8372,0.0,0.0,0.0,0.0,0.0,0.0,0.0,0.0,0.0,0.0,0.0,0.0,0.0,0.0,0.0,0.0,0.0,0.0,0.0,-2.6719,-2.6653,-2.6933,-2.7917,-2.7675,-2.7259,-2.6737,-2.6688,-2.6586,-2.6404,-2.6418,-2.6797,-2.7399,-2.7984,-2.8477,-2.8855,-3.0146,-3.1257,-3.2206,-3.3253,-3.4727,-3.6486,-3.7039,-3.7995,-3.9148,-3.9148,-3.9218,-3.9272,-3.9272,-3.9272,-3.9272,-3.9272,-3.9342,-3.9395,-3.9501,-3.9606,-3.9694,-3.9849,-3.9952,-3.9986,-4.0087,-4.007,-4.0257,-4.1018,-4.2405,-4.3644,-4.369,-4.4343,-4.5052,-4.5511,-4.58,-4.6049,-4.6358,-4.6707,-4.7062,-4.7615,-4.7717,-4.7717,-4.7717,-4.7759,-4.7819,-4.7902,-4.7984,-4.7864,-4.7547,-4.6927,-4.6305,-4.5737,-4.4782,-4.4287,-4.4488,-4.3899,-4.3695,-4.4078,-4.3833,-4.3734,-4.3915,-4.3897,-4.3961,-4.4097,-4.4036,-4.4036,-4.4147,-4.4354,-4.4468,0.0,0.0,0.0,0.0,0.0,0.0,-2.8429,-2.8812,-2.8935,0.0,0.0,0.0,0.0,0.0,0.0,0.0,0.0,0.0,0.0,0.0,0.0,0.0,0.0,0.0,0.0,-2.5152,-2.5415,-2.6092,-2.6576,-2.7254,-2.8185,-2.7819,-2.7545,-2.7333,-2.6692,-2.6562,-2.7063,-2.6461,-2.6404,-2.7018,-2.754,-2.7723,-2.7821,-2.9849,-3.109,-3.1721,-3.3089,-3.454,-3.5976,-3.6669,-3.781,-3.9172,-3.9239,-3.9272,-3.9272,-3.9272,-3.9272,-3.9272,-3.9325,-3.9379,-3.9501,-3.9537,-3.9694,-3.9901,-3.9901,-3.9986,-4.007,-4.007,-4.0138,-4.0341,-4.0933,-4.173,-4.2634,-4.37,-4.463,-4.5424,-4.5926,-4.6495,-4.6908,-4.6972,-4.6999,-4.7151,-4.7615,-4.7717,-4.7717,-4.7717,-4.7819,-4.792,-4.7943,-4.8087,-4.8187,-4.8226,-4.691,-4.6287,-4.6929,-4.4911,-4.423,-4.5535,-4.4391,-4.3947,-4.4681,-4.414,-4.3851,-4.3897,-4.3897,-4.4023,-4.4285,-4.4116,-4.4147,-4.4314,-4.4578,-4.4712,0.0,0.0,0.0,0.0,0.0,0.0,-3.0153,-3.0112,-3.0005,0.0,0.0,0.0,0.0,0.0,0.0,0.0,0.0,0.0,0.0,0.0,0.0,0.0,0.0,0.0,0.0,-2.6065,-2.6231,-2.7047,-2.7519,-2.7374,-2.6535,-2.73,-2.7435,-2.6811,-2.7036,-2.6914,-2.64,-2.6783,-2.7049,-2.7196,-2.7739,-2.8032,-2.8076,-3.015,-3.1389,-3.1997,-3.3393,-3.5083,-3.6853,-3.7002,-3.7581,-3.8477,-3.9056,-3.9272,-3.9272,-3.9272,-3.9272,-3.9325,-3.9432,-3.9501,-3.9554,-3.9746,-3.9849,-3.9901,-4.0037,-4.0087,-4.007,-4.007,-4.051,-4.0882,-4.0409,-4.1563,-4.279,-4.2425,-4.3687,-4.512,-4.5655,-4.6354,-4.7017,-4.7468,-4.7554,-4.7572,-4.7657,-4.7717,-4.7717,-4.7861,-4.7861,-4.7943,-4.8126,-4.8206,-4.8226,-4.8267,-4.7406,-4.6673,-4.6177,-4.5165,-4.441,-4.4078,-4.3852,-4.3859,-4.4073,-4.3957,-4.3897,-4.3974,-4.3974,-4.4085,-4.4285,-4.4255,-4.4314,-4.4458,-4.4632,-4.4712,0.0,0.0,0.0,-3.1676,0.0,0.0,0.0,-3.0327,0.0,0.0,0.0,0.0,0.0,0.0,0.0,0.0,0.0,0.0,0.0,0.0,0.0,0.0,0.0,0.0,0.0,-2.5594,-2.6102,-2.7502,-2.8434,-2.8682,-2.818,-2.828,-2.8132,-2.7636,-2.6962,-2.6718,-2.6996,-2.652,-2.6633,-2.7284,-2.7558,-2.7743,-2.8068,-3.0145,-3.1381,-3.2012,-3.3762,-3.507,-3.6025,-3.6406,-3.7003,-3.7765,-3.8858,-3.9272,-3.9272,-3.9272,-3.9325,-3.9395,-3.9501,-3.9606,-3.9694,-3.9849,-3.9952,-3.9986,-4.0087,-4.007,-4.007,-4.007,-4.0358,-4.068,-4.0948,-4.1727,-4.2573,-4.308,-4.4283,-4.5443,-4.5968,-4.6482,-4.6981,-4.7687,-4.7516,-4.7352,-4.7747,-4.7819,-4.7842,-4.7907,-4.8006,-4.8087,-4.8206,-4.8226,-4.8101,-4.7755,-4.6985,-4.6177,-4.5423,-4.4649,-4.4057,-4.3738,-4.3786,-4.3851,-4.3915,-4.3929,-4.4005,-4.4147,-4.4147,-4.4266,-4.4496,-4.4496,-4.4524,-4.4605,-4.4738,-4.4796,0.0,0.0,0.0,0.0,0.0,-3.1148,0.0,0.0,0.0,0.0,0.0,0.0,0.0,0.0,0.0,0.0,0.0,0.0,0.0,0.0,0.0,0.0,0.0,0.0,0.0,-2.5326,-2.5956,-2.7385,-2.8793,-2.9664,-2.9772,-2.9323,-2.8982,-2.8873,-2.7319,-2.7008,-2.8107,-2.6738,-2.6546,-2.7625,-2.7437,-2.7619,-2.824,-3.0185,-3.1421,-3.2159,-3.4067,-3.4982,-3.5148,-3.5744,-3.6522,-3.7433,-3.8609,-3.9156,-3.9272,-3.9325,-3.9395,-3.9501,-3.9554,-3.9694,-3.9901,-3.9952,-3.9986,-4.007,-4.007,-4.007,-4.0121,-4.0221,-4.0204,-4.0489,-4.1543,-4.1921,-4.2341,-4.3756,-4.4782,-4.5545,-4.5992,-4.6408,-4.6888,-4.7339,-4.7092,-4.7041,-4.7797,-4.7943,-4.7966,-4.805,-4.813,-4.8187,-4.8226,-4.8139,-4.7829,-4.7205,-4.6287,-4.5478,-4.4886,-4.411,-4.3701,-4.3804,-4.3883,-4.3929,-4.3929,-4.4023,-4.4147,-4.4285,-4.4314,-4.444,-4.4712,-4.4712,-4.4712,-4.4738,-4.4846,-4.4895,0.0,0.0,0.0,0.0,-3.3673,0.0,0.0,0.0,0.0,0.0,0.0,0.0,0.0,0.0,0.0,0.0,0.0,0.0,0.0,0.0,0.0,0.0,0.0,0.0,0.0,0.0,-2.6862,-2.6507,-2.7931,-2.8579,-2.8021,-2.8968,-2.9496,-2.9496,-2.9157,-2.9066,-2.9225,-2.8607,-2.8356,-2.8383,-2.7925,-2.8278,-2.9277,-3.0568,-3.1805,-3.3015,-3.4329,-3.5263,-3.5876,-3.5976,-3.682,-3.8096,-3.8278,-3.8725,-3.9325,-3.9432,-3.9501,-3.9537,-3.9746,-3.9901,-3.9901,-4.0037,-4.007,-4.007,-4.007,-4.007,-4.0171,-4.0611,-4.0707,-4.0866,-4.1426,-4.1927,-4.2399,-4.2588,-4.3635,-4.456,-4.4616,-4.5765,-4.6603,-4.5984,-4.6366,-4.7062,-4.7864,-4.801,-4.805,-4.8148,-4.8187,-4.8226,-4.8267,-4.7644,-4.7223,-4.7279,-4.5863,-4.4923,-4.497,-4.4295,-4.3865,-4.3883,-4.3942,-4.3974,-4.3974,-4.4177,-4.4285,-4.4285,-4.443,-4.4551,-4.4712,-4.4712,-4.4745,-4.487,-4.4895,-4.4895,0.0,0.0,0.0,0.0,0.0,0.0,-3.3638,0.0,-3.3009,0.0,0.0,0.0,0.0,0.0,0.0,0.0,0.0,0.0,0.0,0.0,0.0,0.0,0.0,0.0,0.0,0.0,0.0,0.0,0.0,-2.9426,-2.9121,-2.9313,-2.9697,-3.0107,-2.9356,-2.9122,-2.9524,-2.8873,-2.8693,-2.9012,-2.8764,-2.9014,-2.9795,-3.0653,-3.1688,-3.2948,-3.3876,-3.4667,-3.5363,-3.5459,-3.6073,-3.7037,-3.7153,-3.8102,-3.9432,-3.959,-3.9694,-3.9746,-3.9849,-3.9935,-4.0037,-4.0087,-4.007,-4.007,-4.007,-4.0336,-4.0625,-4.0797,-4.1122,-4.1464,-4.1937,-4.2244,-4.2519,-4.2788,-4.3668,-4.4381,-4.4381,-4.5002,-4.5551,-4.5679,-4.5625,-4.5827,-4.6652,-4.7124,-4.7599,-4.8174,-4.8247,-4.8121,-4.7682,-4.7389,-4.6856,-4.5936,-4.5289,-4.4767,-4.4387,-4.4068,-4.3929,-4.3961,-4.3974,-4.4036,-4.4177,-4.4255,-4.4373,-4.4524,-4.4578,-4.4685,-4.4815,-4.4815,-4.4846,-4.4895,-4.4895,-4.4895,-3.4243,0.0,0.0,0.0,0.0,0.0,0.0,0.0,0.0,0.0,0.0,0.0,0.0,0.0,0.0,0.0,0.0,0.0,0.0,0.0,0.0,0.0,0.0,0.0,0.0,0.0,0.0,-2.795,-2.9313,-3.0187,-3.0108,-2.9951,-3.0166,-3.0683,-2.9782,-2.9557,-3.0021,-2.9329,-2.92,-2.9629,-2.939,-2.9637,-3.0337,-3.0936,-3.1834,-3.3027,-3.3773,-3.4402,-3.4899,-3.5041,-3.5538,-3.6237,-3.663,-3.7819,-3.9306,-3.9393,-3.9613,-3.9901,-3.9952,-4.0037,-4.007,-4.007,-4.0171,-4.0303,-4.0303,-4.0689,-4.115,-4.1268,-4.1621,-4.2103,-4.258,-4.2714,-4.2846,-4.316,-4.3689,-4.4163,-4.4163,-4.4382,-4.4729,-4.5096,-4.493,-4.4892,-4.548,-4.6195,-4.7001,-4.7827,-4.7792,-4.7517,-4.7224,-4.682,-4.6156,-4.501,-4.4783,-4.448,-4.3984,-4.3929,-4.3992,-4.4085,-4.4067,-4.4177,-4.4344,-4.4401,-4.4496,-4.4712,-4.4738,-4.4796,-4.4895,-4.4895,-4.4895,-4.4895,-4.4895,-4.4895,0.0,0.0,0.0,-3.5396,0.0,0.0,0.0,0.0,-3.5334,0.0,0.0,0.0,0.0,0.0,0.0,-3.0311,0.0,0.0,0.0,0.0,0.0,0.0,0.0,0.0,0.0,0.0,0.0,-2.9124,-2.9802,-3.0187,-3.0108,-3.0768,-3.1173,-3.119,-3.1134,-3.1134,-3.1151,-3.0666,-3.036,-3.0251,-2.9673,-2.9955,-3.1104,-3.1683,-3.2649,-3.3806,-3.4535,-3.4883,-3.4899,-3.5041,-3.5538,-3.6287,-3.728,-3.8151,-3.8807,-3.8807,-3.9295,-3.9901,-4.0037,-4.0087,-4.007,-4.007,-4.0402,-4.0802,-4.0802,-4.1202,-4.1778,-4.2216,-4.24,-4.258,-4.3069,-4.3251,-4.3376,-4.3394,-4.3465,-4.3534,-4.3534,-4.414,-4.4488,-4.3718,-4.4176,-4.4727,-4.4745,-4.5406,-4.6214,-4.704,-4.6489,-4.6305,-4.7169,-4.5898,-4.4936,-4.5068,-4.4416,-4.3947,-4.4005,-4.4005,-4.4067,-4.4285,-4.4285,-4.4344,-4.4487,-4.4632,-4.4685,-4.4712,-4.4821,-4.4914,-4.4895,-4.4895,-4.4895,-4.4895,-4.4895,-4.4895,0.0,0.0,-3.488,-3.5374,0.0,0.0,0.0,0.0,0.0,0.0,0.0,0.0,0.0,0.0,0.0,-3.1031,-3.106,0.0,0.0,0.0,0.0,0.0,0.0,0.0,0.0,0.0,0.0,-2.9211,-2.9414,-2.968,0.0,-2.9871,-2.9956,-3.0463,-3.048,-3.048,-3.048,-3.0819,-3.0918,-3.0878,-3.0617,-3.0874,-3.1722,-3.1841,-3.2557,-3.3806,-3.4163,-3.4592,-3.5041,-3.5291,-3.582,-3.6508,-3.6966,-3.7858,-3.9006,-3.9496,-3.9834,-4.0037,-4.007,-4.007,-4.0171,-4.0434,-4.0689,-4.0938,-4.1293,-4.1864,-4.24,-4.2537,-4.2884,-4.3196,-4.3375,-4.3428,-4.3481,-4.3481,-4.3497,-4.3497,-4.3497,-4.3699,-4.3828,-4.3534,-4.3718,-4.3901,-4.3901,-4.4156,-4.4834,-4.6104,-4.6158,-4.5936,-4.5696,-4.5284,-4.4831,-4.436,-4.4077,-4.3974,-4.4005,-4.4097,-4.4285,-4.443,-4.443,-4.4468,-4.4632,-4.4685,-4.4745,-4.4821,-4.487,-4.4895,-4.4895,-4.4895,-4.4919,-4.4986,-4.4986,-4.4943,-3.5412,-3.5133,0.0,-3.5448,-3.5222,0.0,-3.5504,0.0,0.0,0.0,0.0,0.0,0.0,0.0,0.0,-3.1913,-3.1737,-3.1635,0.0,-3.1504,0.0,0.0,0.0,0.0,0.0,0.0,-3.0246,-3.0086,-3.0014,-3.0179,0.0,0.0,-2.9989,-3.048,-3.0497,-3.0497,-3.0497,-3.0954,-3.119,-3.119,-3.1055,-3.1362,-3.2018,-3.2202,-3.2857,-3.3943,-3.4318,-3.4747,-3.5215,-3.5669,-3.6148,-3.6683,-3.7317,-3.8142,-3.9056,-3.9512,-3.9851,-4.0138,-4.0138,-4.0254,-4.0417,-4.0754,-4.1122,-4.1534,-4.1846,-4.2418,-4.3012,-4.332,-4.3451,-4.3552,-4.3846,-4.3699,-4.3497,-4.3497,-4.3497,-4.3497,-4.3497,-4.3497,-4.3497,-4.3497,-4.3497,-4.3532,-4.3513,-4.3548,-4.4042,-4.5331,-4.5401,-4.5194,-4.4918,-4.4776,-4.4471,-4.3984,-4.3974,-4.4036,-4.4097,-4.4266,-4.443,-4.4551,-4.4551,-4.4632,-4.4764,-4.477,-4.5079,-4.5786,-4.5198,-4.5198,-4.5786,-4.5198,-4.4919,-4.4991,-4.4991,-4.4991]}]]